GFSNW_250_rhum_000.txt.gz
RH
92 94 90 28 23 54 63 72 94 80 72 84 84 100 92 86 89 79 80 73 96 100 100 100 100 100 100 100 100 100 100 100 100 100 100 100 100 100 92 76 89 100 100 100
83 100 98 53 28 20 23 30 74 85 85 87 87 93 100 98 82 73 75 62 80 85 99 100 100 100 100 100 100 100 100 100 100 100 100 100 97 99 100 100 100 100 85 100
89 85 87 91 46 27 21 20 43 66 98 98 89 80 95 96 92 83 82 73 62 75 94 100 100 100 100 100 99 98 100 99 98 100 100 100 100 100 100 100 100 95 100 100
81 73 72 81 62 48 28 21 24 40 67 79 84 84 82 83 98 96 89 73 57 62 86 100 100 100 100 100 100 100 100 100 100 100 100 100 100 100 100 100 100 99 100 100
87 72 55 55 69 62 51 29 32 28 33 51 66 57 68 83 68 66 58 80 67 46 52 85 94 100 100 100 100 99 100 100 100 100 99 99 100 100 100 97 97 98 100 100
53 75 70 56 49 57 77 51 47 28 28 28 33 49 57 56 61 63 44 45 54 46 54 65 90 99 96 95 96 96 100 100 96 100 100 92 96 100 100 86 68 70 73 69
30 55 59 66 59 52 47 68 74 63 58 46 37 39 38 43 44 42 41 32 37 38 36 47 62 72 81 96 95 100 100 97 92 88 99 89 79 80 85 74 70 60 53 46
37 28 39 48 57 58 56 45 42 60 69 63 58 51 46 47 54 65 66 45 39 34 35 37 42 57 65 69 71 77 83 80 78 66 74 75 71 69 70 70 82 60 51 42
70 58 55 43 44 58 61 58 56 57 48 49 58 66 71 55 41 40 55 81 76 92 74 68 63 38 38 44 44 44 53 52 39 40 38 40 49 53 48 42 42 34 32 48
72 86 85 67 55 48 49 57 61 61 56 52 51 52 57 59 63 60 45 68 100 100 100 100 100 100 100 78 62 67 52 48 50 48 44 44 52 55 58 61 66 70 76 79
50 67 90 95 88 71 63 62 61 64 61 60 56 51 50 54 56 54 56 59 56 45 44 46 64 92 75 71 78 80 67 56 60 53 48 43 59 50 46 45 38 44 45 46
64 64 71 100 100 100 94 90 87 84 91 90 81 79 72 66 67 55 46 47 53 57 56 52 55 64 65 67 74 69 72 89 57 68 55 49 32 35 38 30 27 24 23 23
54 53 57 48 58 79 96 96 94 99 99 100 95 99 96 93 83 78 72 64 61 52 44 41 47 55 57 61 71 72 86 88 64 45 75 63 40 29 25 24 24 24 25 25
46 51 80 87 73 60 60 50 55 59 63 58 54 58 79 85 89 94 100 98 79 67 66 62 60 59 54 50 46 40 51 39 41 41 43 40 41 43 44 46 48 48 48 48
52 48 48 69 82 81 84 83 81 64 68 60 69 91 86 80 86 86 73 61 53 54 55 57 62 73 69 69 65 75 83 82 78 76 74 61 65 67 64 55 48 46 48 50
69 60 56 54 66 74 70 54 58 56 53 66 71 78 81 98 98 90 80 76 62 59 53 51 51 51 46 37 41 44 43 42 40 33 30 27 26 24 24 26 32 27 24 22
81 67 70 85 58 60 69 71 67 68 62 65 62 70 82 93 83 79 74 68 63 52 59 61 59 53 46 46 50 53 35 21 19 19 21 28 30 23 26 31 31 32 31 19
66 88 94 92 89 99 100 91 84 83 77 73 81 90 100 100 99 99 92 71 63 73 69 82 84 82 64 62 67 38 25 32 34 40 47 43 32 34 38 35 23 17 13 12
85 79 73 83 100 98 83 100 100 100 84 83 98 100 93 100 85 79 78 82 72 55 60 61 48 46 51 65 34 30 41 45 54 57 44 38 45 39 36 31 19 13 11 11
86 100 85 75 86 90 78 65 62 77 85 100 100 100 97 81 63 59 59 58 53 44 47 48 49 66 86 53 42 53 51 53 48 34 34 44 47 39 34 22 12 8 8 9
95 96 98 100 100 100 86 77 93 100 100 100 100 100 91 77 69 67 72 77 65 59 72 76 86 97 77 39 64 66 64 62 50 44 50 43 29 24 23 13 6 6 8 7
83 78 74 76 91 95 100 100 100 100 100 100 100 100 91 85 75 76 81 77 77 88 84 92 97 85 48 59 53 58 65 52 42 41 34 23 21 17 12 7 6 8 8 7
83 84 91 95 100 100 100 95 100 100 95 100 100 100 100 100 98 95 82 76 77 73 73 79 81 46 49 47 49 54 44 31 31 28 22 16 12 9 7 7 8 8 8 8
100 100 100 100 100 100 100 100 94 95 100 98 97 100 100 100 98 86 76 67 63 68 79 72 35 37 36 42 46 30 25 29 16 14 12 9 7 7 7 8 8 9 10 10
98 93 99 98 99 100 100 100 100 100 100 100 97 100 100 97 90 76 68 63 58 58 48 32 30 35 42 37 25 25 26 14 13 11 7 5 6 7 8 8 9 11 12 12
100 100 100 100 100 100 100 100 99 97 98 96 94 98 100 98 70 59 58 60 69 40 28 26 28 31 28 22 27 24 14 12 11 7 6 6 8 8 8 8 10 11 10 9
100 100 100 100 100 100 100 100 100 93 98 100 100 98 90 59 52 56 77 88 43 34 30 27 24 22 27 29 19 15 13 10 9 8 8 9 8 8 9 10 10 9 8 8

GFSNW_250_rhum_003.txt.gz
RH
98 75 39 25 79 100 100 98 73 75 73 89 60 84 86 92 97 100 100 100 100 100 100 100 100 100 100 98 100 94 100 100 100 100 100 100 98 90 90 98 100 100 98 100
80 74 52 23 31 64 91 98 99 82 73 75 62 71 75 75 94 82 100 100 100 100 100 100 100 100 100 100 100 100 100 100 100 100 100 100 100 100 92 94 100 100 100 100
87 70 64 38 19 30 46 92 90 93 85 90 80 76 86 100 86 76 100 100 100 100 100 100 100 100 100 100 100 100 100 100 100 100 100 100 100 100 100 100 100 99 99 100
99 77 58 55 28 20 31 50 70 96 94 97 92 92 82 100 95 67 91 100 100 100 100 100 100 100 100 100 100 99 100 100 100 100 100 100 100 100 95 98 100 100 100 100
94 77 78 54 52 32 31 40 54 77 89 96 100 100 98 100 100 75 71 81 92 98 96 100 100 100 93 94 100 100 98 92 91 87 86 100 100 100 100 100 100 100 100 100
66 74 68 70 53 52 35 37 33 34 38 68 77 79 74 86 76 91 91 82 86 93 98 94 100 100 99 96 91 98 100 100 98 100 89 92 100 100 100 100 100 100 100 100
32 50 60 65 61 61 59 45 38 38 42 39 41 51 63 58 63 66 62 64 73 70 72 70 76 77 85 88 91 95 90 89 94 100 87 98 100 100 100 100 100 100 88 81
52 51 38 48 67 61 61 67 59 43 41 36 33 32 31 34 42 46 46 35 34 29 31 41 52 68 83 90 88 92 94 89 96 100 100 100 97 100 100 100 100 97 86 80
79 63 52 47 45 68 65 59 54 54 56 46 42 38 36 37 44 49 53 45 43 38 44 44 44 49 58 65 86 92 100 97 83 84 87 100 99 99 96 97 99 90 78 70
43 70 76 67 50 47 58 56 51 56 62 55 50 53 53 49 45 46 48 50 46 43 45 45 34 33 34 35 47 67 70 66 71 80 76 71 68 67 64 66 64 61 58 50
40 41 51 64 72 68 64 70 65 63 63 66 73 77 78 71 62 56 57 50 48 46 48 59 63 56 63 71 76 78 53 51 52 48 50 50 53 49 45 44 41 39 35 31
48 47 50 64 74 60 70 74 74 78 98 97 89 77 78 71 60 65 63 57 59 58 54 51 52 60 69 64 93 61 51 55 44 52 52 48 37 30 29 26 24 25 26 25
65 63 59 56 55 79 66 60 79 74 72 87 92 100 98 95 87 73 66 70 72 66 66 68 70 68 63 60 58 49 56 59 31 24 35 33 33 34 30 31 36 36 34 29
65 72 71 67 56 74 63 72 58 52 51 52 59 64 63 63 64 82 77 76 69 70 69 72 79 81 80 84 77 76 81 57 56 64 61 54 60 50 44 37 35 36 33 29
51 59 62 59 54 60 83 80 76 67 74 74 60 66 63 55 60 72 67 62 61 64 63 64 69 75 62 57 56 72 54 55 50 46 45 40 40 40 37 32 30 29 27 27
64 56 53 52 60 62 62 63 89 100 99 98 92 72 70 58 54 57 58 61 63 60 55 53 56 54 48 43 48 46 42 46 51 42 40 36 34 30 30 29 29 33 34 37
76 70 73 70 63 64 68 80 84 82 84 87 96 98 93 93 85 79 79 71 66 66 65 65 72 69 68 69 70 66 58 45 44 42 38 37 35 34 32 34 46 50 52 50
99 90 82 79 81 83 87 86 82 81 94 90 94 100 100 100 100 100 97 90 83 82 84 91 76 61 52 53 48 45 38 39 40 40 39 39 38 43 53 60 58 46 43 44
100 100 100 95 91 88 93 95 88 70 74 92 100 100 100 100 100 97 97 91 100 100 86 69 57 57 83 76 71 53 50 50 49 51 61 59 56 52 51 52 46 44 45 44
100 100 100 100 100 100 89 77 81 81 100 100 100 100 100 100 100 95 77 77 78 68 75 88 82 88 95 79 59 62 77 66 72 73 58 55 56 53 50 42 42 30 30 20
100 100 100 100 100 100 100 87 93 95 98 100 100 100 100 100 100 100 100 100 98 89 96 83 82 100 100 95 82 75 69 62 61 58 52 44 50 45 35 28 23 20 13 11
100 100 100 100 100 100 100 100 100 98 95 100 100 100 100 100 96 90 100 100 97 88 70 87 100 100 91 78 74 65 67 60 51 49 53 46 36 34 26 22 19 12 9 8
100 100 100 100 100 100 92 100 100 100 94 96 100 96 92 95 99 100 100 100 97 85 83 88 97 74 62 70 67 68 64 49 48 50 45 43 28 19 23 18 11 10 7 6
100 100 100 100 100 100 100 100 100 100 100 100 96 99 100 100 94 97 100 100 96 73 72 94 77 71 75 64 66 61 52 45 44 46 40 24 16 22 16 11 10 8 6 7
94 97 100 100 100 100 100 100 100 100 100 100 100 100 94 100 100 100 93 82 91 94 98 71 68 69 61 54 50 45 41 46 46 33 20 18 21 15 10 9 9 8 7 7
71 87 96 98 100 100 100 100 89 82 94 98 84 96 97 90 91 90 96 100 100 96 62 57 60 57 53 59 58 47 35 32 26 19 19 17 12 10 9 9 8 7 7 7
52 56 76 83 87 96 87 100 98 91 91 79 72 84 100 90 79 99 100 100 77 62 64 63 65 64 65 52 39 36 31 20 16 15 12 9 9 9 9 8 8 7 7 7

GFSNW_250_rhum_009.txt.gz
RH
100 100 100 50 83 83 91 100 91 97 80 100 100 100 100 100 100 100 100 89 94 98 100 100 100 100 100 100 100 100 100 95 96 100 100 100 100 100 100 100 100 100 97 89
100 100 100 59 64 96 88 100 100 71 96 72 100 100 100 100 100 98 100 100 100 100 98 100 100 100 100 100 100 100 100 100 100 100 100 100 100 100 100 100 100 100 100 100
96 100 100 66 38 54 90 96 88 100 100 72 77 92 100 100 100 100 98 97 100 100 100 100 100 100 100 100 100 100 100 100 100 100 100 100 100 100 100 100 100 100 100 100
89 90 99 63 39 52 55 94 88 96 100 99 100 73 81 97 100 100 100 92 100 100 100 100 100 100 100 100 100 100 100 100 100 100 100 100 100 100 100 100 100 100 100 100
88 88 84 61 43 39 39 52 78 91 100 88 100 100 94 100 89 87 100 100 100 88 98 100 100 100 100 100 100 100 100 99 100 100 100 100 98 98 96 96 88 94 86 84
68 85 82 57 46 41 37 40 61 69 87 99 97 100 100 60 84 100 100 98 71 80 92 90 85 92 100 96 99 91 98 100 100 100 100 100 100 100 93 78 74 76 80 96
46 67 91 63 50 39 45 38 44 58 75 93 100 99 86 78 77 59 79 90 89 67 60 83 84 93 90 100 95 99 100 100 99 100 100 100 100 100 100 98 89 89 97 92
45 52 68 81 57 45 42 45 45 42 55 73 71 78 62 65 72 79 62 57 63 81 64 60 79 82 92 92 93 93 87 97 97 100 100 100 100 100 100 100 100 100 100 100
54 48 47 66 68 58 47 45 54 56 48 52 51 66 68 61 67 74 68 64 51 53 64 65 60 78 76 79 65 70 72 68 68 71 81 83 83 91 96 100 99 95 79 66
65 64 49 45 56 59 60 60 50 46 48 59 65 63 63 66 66 62 71 73 58 48 45 53 62 60 59 61 59 60 62 62 72 83 84 83 85 77 68 64 67 78 93 97
40 44 59 53 49 55 63 61 68 59 49 50 50 59 69 75 82 77 73 71 73 65 50 53 60 56 54 60 64 68 71 74 71 86 88 81 82 85 96 94 85 64 48 50
56 36 34 52 52 61 62 65 64 66 67 72 72 70 66 57 61 63 74 80 85 86 92 82 74 76 72 67 73 65 65 76 84 90 88 90 78 69 65 70 68 67 62 60
71 57 44 40 39 43 52 63 76 74 69 64 73 83 87 82 79 80 61 62 69 70 75 79 84 73 70 66 64 66 67 70 78 90 83 77 73 66 58 59 57 48 37 27
86 67 57 48 40 37 42 53 50 56 64 59 59 68 74 74 84 87 78 74 83 97 99 90 74 75 67 66 65 68 60 65 66 66 61 57 52 44 34 28 26 28 31 31
68 77 62 58 54 42 40 43 55 49 41 56 64 46 35 43 45 45 50 56 69 87 86 69 66 67 61 59 58 53 55 58 58 58 49 47 50 44 40 43 42 42 41 39
78 63 61 54 58 55 47 45 46 38 40 40 45 42 42 47 53 49 42 48 50 53 60 65 66 60 65 71 69 70 84 83 76 75 67 63 65 60 55 53 53 40 34 29
97 79 60 54 58 58 54 54 58 51 40 43 44 44 51 51 55 63 70 72 75 75 81 93 94 98 100 100 100 100 94 78 70 73 75 77 79 66 43 34 32 33 33 40
99 97 84 69 63 60 56 61 58 59 61 52 47 50 51 60 63 66 72 77 82 84 88 96 92 94 100 100 79 73 62 60 60 63 58 50 45 41 42 42 41 43 46 52
100 100 100 91 76 68 65 62 65 65 62 62 64 59 54 55 59 62 63 66 62 65 73 76 77 100 100 74 64 54 45 47 52 50 46 42 38 39 46 59 56 57 57 63
100 100 100 100 89 75 70 73 69 75 89 84 74 63 66 69 68 69 66 68 68 72 74 63 62 92 92 74 66 54 49 51 52 57 61 57 60 62 64 64 58 56 58 64
100 100 100 100 100 95 72 64 66 70 77 88 94 91 86 80 71 73 78 77 77 78 83 78 75 92 78 77 68 66 63 62 64 74 76 66 60 60 60 57 61 68 79 76
100 100 96 100 100 100 92 87 79 75 80 97 95 86 78 74 84 89 96 96 93 91 88 85 89 88 95 80 70 75 77 83 90 74 66 64 66 66 69 79 74 79 76 70
99 100 100 99 100 100 100 100 100 94 88 89 98 100 98 92 81 76 79 85 99 100 100 100 100 98 80 63 69 66 69 74 73 76 78 77 71 71 75 68 73 78 81 80
99 94 100 100 100 100 100 100 100 100 100 97 83 83 92 94 91 81 78 81 91 100 100 100 98 66 68 73 70 75 76 75 84 86 84 81 81 78 74 79 79 70 81 93
89 91 95 99 99 100 100 100 100 100 100 95 93 92 91 87 87 96 95 99 100 100 99 81 77 80 84 94 98 95 95 94 91 85 77 73 77 78 80 70 69 75 71 63
63 71 80 90 94 99 100 100 100 100 100 100 100 100 96 87 84 84 99 100 100 96 89 92 92 94 98 98 96 89 87 85 81 82 87 82 75 66 55 64 68 69 60 36
49 54 62 74 83 80 82 89 99 100 100 100 100 100 100 100 100 100 100 100 88 81 86 88 83 83 83 82 80 86 84 89 92 83 76 67 61 60 66 64 58 40 22 15

GFSNW_250_rhum_012.txt.gz
RH
83 100 100 100 52 84 98 94 67 100 100 100 100 100 100 100 100 100 84 100 90 84 50 49 44 44 36 29 26 24 23 30 32 29 27 26 27 31 34 32 63 84 100 100
77 100 100 100 57 70 99 83 100 97 95 100 91 99 94 100 80 100 94 77 96 94 83 55 46 51 53 48 51 41 32 29 30 26 28 29 33 41 36 49 75 96 100 100
72 100 100 100 88 70 72 100 91 67 92 100 100 99 91 96 100 96 100 98 99 81 78 87 83 83 59 61 57 47 38 38 40 44 45 44 41 36 62 100 98 100 100 92
66 97 100 100 100 62 77 100 100 71 65 100 100 100 89 99 97 100 98 100 100 100 99 100 100 99 100 100 100 93 88 57 53 55 44 40 40 90 100 100 100 100 100 100
54 91 100 100 79 47 61 92 100 100 63 90 100 98 100 100 94 85 100 66 100 100 100 100 100 100 100 100 100 100 100 100 100 100 100 99 100 98 94 98 100 100 100 100
41 74 99 100 67 41 45 70 78 98 93 78 79 79 97 100 96 100 62 64 90 100 99 76 100 100 100 100 100 99 100 100 100 100 100 100 100 100 100 100 100 100 100 100
39 54 83 94 69 43 42 45 65 86 97 100 77 84 82 91 100 100 100 97 52 73 100 100 100 79 97 100 100 100 100 92 89 98 97 100 100 100 100 100 100 100 95 86
51 48 62 77 63 46 37 40 46 61 82 84 100 100 100 100 99 99 100 84 74 45 66 100 100 100 100 98 100 100 100 100 100 100 100 100 100 100 100 98 96 99 100 96
66 52 46 59 59 49 39 40 45 49 52 76 96 96 100 82 84 65 80 99 96 67 52 65 84 89 100 100 100 100 100 100 100 100 100 100 100 100 100 100 100 95 96 92
79 68 51 47 52 52 45 42 46 48 50 51 72 84 98 95 94 80 77 65 61 75 56 47 54 63 67 81 77 94 96 96 91 92 99 100 100 100 96 92 78 74 78 74
76 88 77 49 48 50 53 45 42 48 56 58 54 52 70 77 74 64 74 74 75 69 60 63 47 44 54 61 62 60 57 64 68 71 72 69 69 69 60 60 62 66 74 79
72 90 74 62 51 44 50 59 50 43 43 53 61 65 65 65 72 67 73 84 89 93 87 83 92 83 52 59 67 63 65 75 70 69 68 74 74 78 83 82 77 76 78 91
71 75 90 45 51 52 51 53 59 62 59 56 56 58 59 62 72 80 88 91 96 91 97 98 76 69 72 83 80 78 88 83 98 85 79 87 92 98 100 99 95 88 90 78
83 73 72 77 46 42 51 54 58 64 69 72 82 81 75 77 77 70 63 63 73 83 91 93 95 92 87 81 86 89 83 89 84 86 86 86 87 96 92 85 72 60 52 43
91 84 76 69 71 51 44 48 53 58 64 65 67 81 86 88 89 90 94 80 76 80 85 82 96 100 97 89 95 87 94 96 95 92 84 77 68 59 54 44 37 35 40 37
100 98 98 81 74 80 55 39 37 39 48 51 53 66 73 65 70 75 87 94 99 100 100 100 100 100 94 86 85 60 75 75 63 57 54 48 40 37 40 46 52 56 56 50
100 96 96 100 84 72 68 61 46 36 39 41 40 40 48 50 39 39 45 51 60 66 75 80 83 77 82 81 78 60 70 68 67 61 43 40 46 55 54 60 56 45 40 38
93 100 100 100 100 87 83 63 58 53 42 36 43 42 43 39 39 39 41 46 50 60 65 62 57 64 65 64 64 72 68 67 69 60 56 60 62 56 51 46 42 40 41 37
100 96 99 100 100 100 90 72 57 55 58 52 55 50 44 47 49 47 47 52 59 68 76 83 85 88 85 72 81 83 81 71 53 53 60 71 73 65 57 50 52 50 37 37
100 100 95 87 90 99 100 86 67 50 51 60 59 53 56 54 52 52 51 51 52 58 70 76 89 100 85 82 80 71 61 55 56 62 66 62 54 48 47 47 43 39 40 47
100 100 100 95 86 86 86 85 84 67 69 74 71 68 66 63 61 61 58 56 57 62 76 79 89 90 77 74 68 61 56 59 65 68 62 53 48 46 43 43 45 53 61 64
97 100 100 100 93 87 85 96 96 99 89 81 67 65 70 68 68 70 79 79 73 72 72 72 74 74 76 78 79 74 76 81 80 72 60 49 44 44 48 56 64 63 64 75
86 100 97 99 92 86 80 96 100 100 98 88 92 92 84 80 74 74 78 77 81 84 86 85 78 75 72 70 72 84 94 88 73 61 64 68 69 64 63 64 68 80 75 72
72 91 92 88 95 90 100 100 100 98 89 91 94 91 80 77 82 82 80 80 83 85 77 70 66 58 59 64 66 65 64 63 68 73 74 76 74 70 79 78 77 68 75 87
55 70 80 91 100 97 97 100 100 100 99 95 92 89 87 91 98 100 100 99 97 90 78 71 76 78 71 72 72 71 71 74 75 73 71 70 72 70 66 70 81 83 88 81
43 50 69 81 93 98 96 100 100 100 100 98 98 97 94 89 90 100 100 97 86 78 80 81 83 84 91 90 89 88 85 79 74 69 72 70 67 80 93 90 82 77 71 64
28 38 50 61 82 92 93 91 99 100 98 98 98 95 93 92 99 100 100 89 78 74 74 80 87 92 92 94 99 99 92 88 87 85 88 91 90 79 76 76 73 65 54 50

GFSNW_250_rhum_015.txt.gz
RH
100 74 73 100 100 83 52 91 67 100 100 100 98 100 100 100 100 71 39 28 22 28 25 26 26 30 25 22 22 20 17 15 13 13 13 14 14 14 15 17 20 28 31 34
100 75 68 100 100 89 60 89 86 100 100 65 99 100 100 100 100 92 49 48 37 30 30 31 40 36 34 28 26 23 21 18 15 13 12 12 14 15 17 17 21 29 30 35
100 76 64 100 100 100 60 66 79 97 100 97 74 88 82 100 99 100 92 51 57 60 40 39 38 40 38 40 32 25 25 23 22 20 21 18 20 19 18 18 26 29 30 32
100 75 58 92 100 100 65 61 76 79 100 100 80 95 100 100 99 100 100 99 70 51 54 60 49 33 27 28 37 36 29 28 28 25 21 19 16 16 23 29 29 29 30 31
100 80 56 85 100 100 79 57 85 66 80 100 100 100 96 80 100 100 88 97 98 100 88 70 62 52 35 32 28 26 26 25 24 30 32 31 30 30 30 30 27 27 41 44
100 84 49 78 100 100 82 50 86 73 72 100 100 100 100 61 90 100 100 90 89 98 99 100 87 79 66 55 49 46 49 46 33 35 32 31 32 31 32 35 43 44 85 100
98 86 47 72 100 100 78 50 62 97 69 71 100 100 100 69 73 71 100 100 100 100 100 96 100 81 98 100 83 75 86 76 92 75 85 77 82 74 60 59 89 100 100 98
93 88 51 68 100 96 63 44 56 80 90 77 78 99 100 100 80 62 58 67 98 100 86 93 100 100 100 100 100 100 100 100 100 100 100 100 100 100 100 100 100 100 100 100
100 98 59 61 83 86 62 38 46 62 75 78 86 90 91 100 100 91 67 66 78 75 82 100 81 92 100 100 100 100 100 95 98 95 100 100 100 100 100 100 99 92 86 95
100 97 80 57 71 67 61 42 40 47 57 57 89 100 97 100 100 100 100 94 93 60 57 61 100 100 93 84 93 100 99 99 100 100 100 100 100 100 98 99 100 100 100 100
100 93 90 61 62 58 52 47 40 48 48 52 62 75 97 89 100 100 100 100 100 100 96 53 57 90 90 100 100 96 99 98 98 100 100 100 100 100 100 100 99 94 84 74
92 93 94 83 63 56 53 47 44 43 45 54 60 61 69 93 99 93 95 79 69 80 86 91 86 62 62 84 99 85 80 80 89 97 100 98 85 75 73 69 65 64 63 62
77 92 87 95 84 64 50 52 44 44 46 48 54 54 59 66 71 73 71 82 86 74 79 89 96 85 89 79 70 81 100 100 100 91 95 72 76 93 84 81 76 66 71 81
71 87 93 89 91 80 61 52 49 43 42 49 52 54 59 61 65 65 63 64 69 66 64 72 87 94 100 100 93 71 63 72 92 90 86 91 97 80 84 90 86 82 77 72
68 75 94 92 88 69 77 66 58 56 57 50 55 62 65 66 64 64 68 70 74 71 71 76 88 96 100 99 74 81 61 92 100 86 76 87 93 97 91 86 84 79 79 86
70 73 81 96 84 79 61 64 69 70 62 62 63 65 73 84 84 82 76 72 67 64 70 71 75 80 82 83 65 55 77 86 95 95 91 93 91 93 100 99 94 74 54 54
80 76 72 84 99 85 90 61 53 67 78 71 83 87 94 92 93 94 98 96 96 90 86 82 87 87 90 96 96 92 100 100 100 100 97 91 85 74 60 54 56 57 49 46
90 84 77 74 94 99 90 80 64 60 60 62 79 90 88 84 78 87 97 97 93 98 100 100 100 100 100 100 89 87 99 100 97 87 79 70 60 56 58 52 43 44 51 51
93 90 85 75 83 96 91 83 70 68 77 63 59 66 60 56 62 61 54 52 60 79 85 87 81 88 87 83 78 85 73 67 66 61 56 59 65 58 49 49 55 56 57 57
94 95 96 86 79 87 94 96 82 79 88 92 86 72 58 51 54 50 50 43 43 43 57 56 62 63 58 63 75 72 70 73 61 61 66 75 70 56 55 59 63 67 65 65
97 100 100 96 90 83 77 84 94 86 82 98 100 94 83 69 63 56 51 49 42 40 48 46 59 63 54 48 52 57 65 68 74 80 74 65 66 72 75 73 66 59 56 56
99 99 99 98 93 82 74 76 77 91 99 100 100 87 81 86 83 79 71 62 56 48 49 46 50 54 51 52 54 56 59 63 67 67 70 73 72 68 63 62 66 65 63 59
94 97 89 93 98 86 82 79 90 99 100 87 68 75 80 74 68 75 68 59 59 63 61 62 61 60 62 65 68 72 76 78 80 83 84 81 81 82 78 66 55 55 62 65
81 92 84 84 94 94 100 99 96 98 97 90 82 78 74 79 87 79 70 69 64 60 60 62 64 68 73 78 82 81 78 78 80 78 78 76 69 63 62 66 66 63 64 60
67 74 72 78 82 96 100 100 100 100 100 97 88 82 80 80 81 86 86 82 72 67 69 72 73 75 73 79 85 84 87 89 85 78 71 69 66 63 59 56 57 58 56 58
48 50 56 70 77 86 95 100 100 100 100 98 95 88 83 82 88 92 84 72 67 70 76 69 65 67 76 78 67 66 66 62 59 59 59 59 57 55 55 56 58 64 70 76
42 46 56 65 69 71 76 74 98 100 100 100 95 86 85 94 100 95 83 76 78 75 74 78 84 82 80 73 70 66 65 66 64 61 56 54 54 57 64 69 75 80 84 87

GFSNW_250_rhum_018.txt.gz
RH
59 88 100 100 100 100 100 77 70 99 57 100 100 100 100 100 70 33 28 21 14 15 17 17 19 18 16 14 14 15 16 15 16 18 20 22 24 24 22 25 33 30 26 24
55 86 100 100 100 100 100 76 68 98 54 100 100 100 100 100 75 38 29 25 20 20 17 24 29 20 17 16 15 15 15 16 15 16 16 16 18 21 21 24 26 23 20 21
54 88 100 100 100 100 100 84 71 90 99 94 93 99 100 100 100 44 39 27 28 26 26 30 31 26 25 22 17 16 16 18 18 19 21 20 19 19 19 20 20 19 18 17
50 92 100 100 100 98 99 89 65 65 100 100 94 89 100 100 100 70 58 45 38 43 35 35 38 37 30 28 25 21 19 18 18 18 17 16 15 14 14 14 15 14 16 17
47 89 100 100 100 91 100 98 68 78 89 97 100 94 100 98 100 100 62 67 62 49 43 45 46 44 42 37 30 25 24 24 21 19 17 16 16 14 14 15 15 16 17 16
44 92 100 100 98 83 100 96 89 56 83 100 100 80 100 100 100 100 100 88 70 72 55 45 38 34 35 37 39 34 28 26 26 24 22 21 21 21 21 20 20 19 22 23
42 93 100 100 96 79 100 96 100 58 63 79 99 88 73 90 100 98 98 100 100 94 76 65 44 37 33 36 41 45 49 42 39 38 33 33 37 27 27 27 30 32 29 31
43 92 100 100 90 75 99 98 95 61 55 66 90 100 58 81 100 100 100 92 100 100 100 99 82 61 54 50 45 37 30 30 33 29 30 34 34 34 41 40 41 41 47 44
36 83 100 100 86 71 96 97 87 54 69 75 73 100 100 56 98 100 100 100 82 100 100 100 100 100 100 92 74 69 60 48 44 42 39 31 38 38 41 44 46 52 47 48
36 80 100 100 88 71 84 95 72 45 68 85 68 82 100 100 56 72 91 97 95 100 100 93 82 100 98 98 98 93 100 90 88 91 87 97 98 89 92 100 100 94 87 85
33 76 100 100 92 75 79 90 62 40 54 80 83 72 73 94 100 68 58 59 76 94 86 85 94 85 84 100 100 100 100 100 100 100 100 100 100 100 100 100 98 98 99 99
30 69 100 100 99 81 77 77 58 47 42 57 79 86 91 100 99 100 100 81 97 71 59 70 66 72 100 76 83 91 100 100 100 100 100 100 100 98 87 75 72 66 69 67
32 66 100 100 100 93 75 73 60 48 41 46 56 72 68 83 98 100 100 100 86 82 100 84 59 55 74 92 97 88 84 72 65 63 61 62 58 56 62 67 68 74 73 65
34 54 97 100 100 97 86 70 62 50 48 44 48 58 62 66 66 65 88 98 94 86 72 76 88 80 65 67 69 85 95 100 95 100 100 100 96 95 96 92 87 88 98 100
38 48 85 100 100 93 91 84 68 59 48 52 50 48 53 60 75 72 65 65 68 89 85 74 72 73 78 77 75 74 64 67 83 88 92 100 94 100 100 99 94 95 100 95
50 43 74 90 100 98 92 80 77 67 54 49 48 55 51 52 56 66 71 73 75 82 83 78 82 85 79 79 81 80 84 91 79 79 81 74 84 94 97 90 99 100 96 93
61 44 57 77 90 97 89 89 63 69 65 55 57 54 58 60 64 69 76 79 80 82 82 81 78 76 76 81 82 71 75 91 99 93 79 77 81 98 100 100 100 100 95 96
74 58 48 60 77 94 96 82 70 65 68 72 63 70 68 70 68 67 77 86 89 92 91 80 74 72 72 80 80 71 89 98 96 77 61 68 93 100 100 99 97 95 93 84
86 77 60 58 66 78 96 91 77 74 70 75 83 85 70 66 75 84 80 81 90 88 89 86 81 91 91 90 82 93 100 100 100 99 100 100 100 100 100 99 96 86 72 62
88 83 82 86 75 74 87 94 86 81 84 87 87 90 89 77 79 82 82 86 91 100 96 86 81 89 88 90 100 100 100 100 100 99 100 100 99 92 81 72 62 59 60 59
89 77 84 90 91 80 87 90 89 89 97 96 99 98 91 87 82 79 72 78 78 79 78 63 90 92 77 86 96 100 99 95 84 68 62 61 61 62 62 61 60 61 64 64
100 82 86 85 84 88 88 93 95 99 100 100 100 97 81 82 82 82 76 67 62 63 80 79 87 78 68 61 58 69 76 75 68 64 64 64 61 60 61 61 64 64 66 77
95 100 93 91 77 71 86 100 100 100 100 100 91 75 69 63 59 63 68 63 76 77 74 84 85 71 71 73 74 70 69 69 65 63 63 62 63 66 69 73 76 79 76 68
98 94 86 86 85 85 100 100 96 100 100 99 96 99 100 100 94 82 69 57 57 53 63 74 70 72 76 77 80 80 71 66 66 66 66 66 68 68 67 62 57 52 53 51
94 87 75 78 90 100 100 100 100 100 100 100 93 86 88 92 90 93 90 83 80 88 89 84 84 79 79 88 85 72 67 67 63 60 59 57 56 53 49 48 49 51 50 54
77 82 82 94 94 100 100 100 100 100 100 100 99 98 92 89 86 93 96 98 98 95 88 81 78 84 86 84 79 75 72 68 64 62 61 59 58 59 57 53 52 57 60 56
32 55 82 96 100 100 100 100 100 100 100 100 100 100 100 100 96 94 90 90 93 93 92 93 94 92 88 86 79 76 70 65 61 60 64 66 61 56 53 50 52 56 57 60

GFSNW_250_rhum_021.txt.gz
RH
96 98 80 98 67 98 100 100 100 80 68 70 70 78 100 100 76 29 18 15 19 14 16 13 16 15 13 15 17 19 22 24 29 29 27 24 22 20 20 22 23 24 26 28
99 90 80 92 65 98 100 100 100 70 76 58 90 98 100 100 74 34 22 20 20 18 18 18 15 13 11 13 16 18 20 23 26 30 29 26 24 22 22 22 24 26 25 30
95 91 78 91 68 100 100 100 100 67 84 75 97 100 100 100 80 44 30 26 21 21 20 23 19 16 13 13 14 15 16 18 21 23 30 32 34 32 30 28 25 27 27 29
89 98 82 87 74 100 100 100 100 72 99 60 80 100 99 100 84 56 39 31 26 30 31 29 26 20 18 15 12 13 15 16 16 17 20 23 23 25 26 25 26 23 27 25
100 92 80 92 82 100 100 100 100 82 85 64 90 100 90 100 95 67 44 33 37 38 34 31 31 31 28 23 19 16 15 15 16 16 16 16 18 17 17 19 21 22 25 26
98 76 73 86 81 100 100 100 100 93 65 97 76 100 91 96 100 91 73 56 48 47 53 38 28 26 25 24 22 20 19 18 18 18 18 18 19 19 17 16 18 20 23 22
100 74 92 74 84 100 100 99 100 99 70 98 66 82 100 100 100 100 98 93 86 64 56 50 40 34 30 30 28 25 21 21 19 20 21 26 26 24 24 23 21 20 21 19
100 82 89 72 81 100 100 98 100 100 95 76 99 69 95 99 100 100 100 100 100 99 84 62 46 40 37 35 35 34 33 28 27 25 28 29 27 25 23 22 20 21 22 21
99 78 81 74 79 97 100 97 98 100 100 72 96 61 79 88 100 100 100 100 100 99 100 97 82 68 57 57 53 47 43 40 36 30 30 27 26 25 28 26 28 30 28 29
91 79 72 57 88 91 98 97 92 100 100 70 74 91 69 79 78 100 100 100 100 100 100 100 100 96 85 72 59 48 49 44 42 41 46 45 36 34 31 29 29 27 32 33
96 92 70 58 95 88 97 96 86 97 100 77 56 81 95 59 77 94 100 100 100 100 100 100 100 100 100 100 96 85 76 74 75 69 69 90 68 53 60 62 60 61 60 58
97 80 58 56 94 85 96 97 83 90 100 57 48 60 90 90 63 79 97 100 100 100 100 100 100 75 91 87 95 93 93 93 92 94 98 100 99 92 89 100 96 95 89 87
89 74 54 49 91 86 96 96 81 85 95 53 45 62 75 86 90 64 75 82 92 94 88 82 83 98 99 93 92 96 93 91 96 100 100 93 94 90 96 100 100 100 100 90
84 70 52 51 91 87 99 99 81 76 96 58 48 62 67 77 70 74 74 56 51 54 55 54 65 70 68 69 79 96 94 86 87 97 100 100 100 100 100 100 99 97 79 66
75 67 51 54 87 90 95 99 87 76 96 68 47 49 56 69 79 87 97 99 90 84 92 95 70 56 58 58 65 65 76 81 82 85 88 84 67 69 70 70 67 73 81 86
78 74 52 48 78 97 93 100 97 78 85 76 51 51 47 49 62 74 76 81 98 100 100 100 99 99 86 88 80 62 65 64 60 64 69 73 76 78 84 93 95 91 90 87
77 78 43 39 74 100 99 100 98 82 67 68 65 54 56 51 49 53 63 65 65 70 79 89 88 81 78 82 71 74 79 77 79 79 74 71 70 67 66 72 75 65 60 64
81 81 44 36 62 98 100 100 96 96 77 71 78 72 52 52 54 53 54 55 59 64 70 72 72 70 72 78 82 70 57 54 66 78 77 72 72 70 70 66 61 59 61 85
87 78 52 38 41 86 100 100 97 96 91 77 88 81 64 56 52 52 51 58 60 73 80 89 86 98 99 91 73 65 70 78 83 87 92 95 90 87 78 63 56 64 74 88
86 83 66 57 33 58 96 94 95 98 100 87 82 71 76 78 73 66 64 64 71 81 89 82 95 100 91 89 82 89 92 90 86 83 80 79 85 87 86 89 89 88 91 89
79 77 84 87 58 43 69 89 95 99 100 100 95 80 73 76 80 86 90 92 100 100 97 85 100 100 83 96 100 99 94 90 90 85 79 84 82 81 92 97 94 82 71 75
88 84 86 89 73 51 47 62 82 100 100 100 100 92 85 79 69 70 69 72 71 88 98 99 100 100 97 98 100 100 94 87 86 85 82 78 74 80 79 78 78 75 72 67
82 88 78 70 75 62 47 45 58 98 100 100 100 90 74 67 72 70 63 55 67 76 86 100 100 92 99 99 100 99 90 84 81 79 77 78 78 75 73 72 70 67 65 63
61 78 78 71 59 65 76 55 52 59 87 94 96 100 98 95 86 81 81 76 81 94 100 100 94 88 97 100 99 95 90 85 80 83 86 83 79 74 68 60 54 52 53 57
59 77 82 74 65 85 100 98 93 90 72 71 83 91 94 95 91 89 88 89 91 100 100 92 92 94 91 90 94 96 95 95 91 78 64 56 56 58 65 71 71 73 70 66
34 60 74 85 81 84 100 100 100 100 100 96 86 86 93 100 97 100 100 100 100 100 96 97 95 92 89 87 83 80 78 75 72 73 75 76 77 78 79 75 71 66 65 67
20 33 65 79 91 90 92 100 100 100 100 99 92 90 95 96 98 100 100 100 100 100 100 98 98 97 94 90 89 88 83 79 78 79 84 82 81 82 79 77 75 70 67 64

GFSNW_250_rhum_024.txt.gz
RH
70 86 96 100 98 87 85 100 98 97 100 86 74 79 90 100 100 54 24 21 19 17 20 21 20 20 22 20 20 14 15 19 21 22 25 26 25 24 27 30 33 38 44 45
61 80 85 97 100 84 86 100 99 94 100 90 78 76 99 100 83 33 25 21 20 21 25 21 20 23 23 22 22 20 18 19 22 29 26 24 22 21 22 26 30 33 35 40
53 60 63 86 100 93 87 100 98 96 98 73 63 98 79 91 62 33 26 24 22 22 26 19 20 22 25 23 23 20 19 20 22 29 39 40 28 26 23 22 24 28 30 31
42 50 59 96 100 93 89 100 99 99 95 63 70 84 88 87 69 40 30 26 23 25 35 32 22 16 19 22 22 20 18 19 21 24 31 33 37 38 34 28 24 20 23 22
42 44 64 92 99 87 91 100 100 96 97 71 61 65 100 96 85 57 38 30 33 35 31 23 24 21 17 18 20 23 21 20 21 23 24 28 32 35 36 38 33 32 32 33
37 44 68 85 98 89 90 100 100 95 96 74 62 64 92 98 95 76 60 42 32 33 31 28 25 16 15 14 14 16 19 20 20 21 23 23 25 31 36 39 39 40 38 39
36 49 73 86 94 82 95 100 99 92 100 80 53 90 92 100 100 92 78 64 48 38 45 40 31 24 22 18 16 15 16 16 18 19 21 22 24 23 25 28 31 34 36 34
37 58 69 93 79 86 99 100 100 94 100 83 59 95 78 100 100 100 97 94 86 67 57 50 39 33 26 22 20 19 17 15 16 18 18 18 19 20 21 22 21 21 22 22
42 56 69 82 79 87 100 100 100 95 100 86 77 79 70 100 100 100 100 97 98 100 86 64 56 50 46 36 31 28 24 20 18 17 18 18 18 19 20 21 22 21 19 19
40 49 74 78 85 90 100 100 100 98 99 99 84 72 83 84 100 100 100 99 91 94 88 83 73 63 58 50 46 39 36 34 29 24 25 23 20 20 20 23 22 21 23 23
35 42 60 70 90 87 98 100 100 99 100 100 96 68 80 79 94 99 100 100 100 95 94 93 90 87 75 54 50 47 46 51 50 46 49 44 39 43 50 55 53 43 43 43
40 45 55 70 79 81 88 100 100 98 100 100 100 82 63 75 92 90 100 100 100 100 100 98 90 78 73 67 66 65 72 59 54 56 91 65 54 53 49 45 53 56 46 46
41 41 55 76 88 80 80 100 100 96 95 100 100 100 76 63 74 75 100 100 99 100 100 100 100 100 100 93 83 82 73 76 75 83 94 85 68 69 70 73 75 87 100 100
38 42 54 81 90 83 82 100 100 96 94 99 100 99 83 74 67 69 79 97 100 100 97 98 96 99 95 96 96 97 99 86 90 91 90 92 92 91 95 100 100 96 87 93
29 39 57 76 86 82 82 99 100 97 93 97 100 93 72 71 63 57 68 77 92 97 98 93 87 80 70 70 88 88 97 100 100 100 100 100 100 100 100 98 100 100 100 100
30 46 57 82 77 77 77 100 100 100 93 86 91 81 59 58 64 58 54 65 74 86 86 87 84 63 60 60 60 63 66 68 75 79 93 88 78 75 79 78 71 75 84 89
38 50 60 78 79 71 73 96 100 98 85 76 82 86 54 54 53 54 63 70 60 61 65 72 60 57 64 70 76 78 89 90 75 61 60 63 62 61 61 64 60 63 63 62
32 51 65 74 69 61 75 87 93 99 96 83 93 100 68 55 56 59 57 66 63 72 88 85 87 89 92 100 100 83 76 81 72 68 67 60 53 59 61 61 59 56 57 59
44 57 67 55 66 59 70 86 93 95 99 99 100 78 76 60 53 52 52 51 53 60 70 78 76 86 90 93 81 77 68 60 55 63 68 62 56 55 57 63 72 73 72 73
49 53 64 54 67 69 66 80 84 94 100 100 100 83 91 84 66 61 59 53 53 59 61 66 66 76 83 89 88 80 70 90 97 73 66 68 70 72 76 78 79 85 86 80
38 49 68 65 71 66 57 62 77 90 100 100 99 94 83 88 87 70 60 58 58 61 62 58 70 80 74 67 74 94 100 92 84 83 78 76 72 68 66 69 75 85 86 91
52 56 71 70 58 55 46 54 78 95 100 100 100 96 88 85 76 80 74 67 68 73 74 73 93 90 61 65 85 86 86 83 80 76 77 78 81 86 91 98 99 96 90 84
47 46 67 67 51 51 42 48 78 99 100 100 100 90 84 72 63 64 74 80 96 97 93 100 98 90 80 80 87 92 91 87 88 96 100 100 99 97 92 81 77 77 78 78
30 36 56 61 44 46 50 52 59 75 98 97 85 77 75 84 86 75 64 71 84 93 100 100 99 88 92 100 100 98 94 91 88 90 90 90 88 87 90 95 92 89 90 91
30 32 40 59 64 62 71 58 54 56 72 84 91 89 90 89 85 94 92 91 89 99 100 97 87 68 76 91 100 100 100 98 97 98 97 92 90 92 90 90 95 99 96 84
39 36 38 58 67 70 80 79 69 57 51 59 82 94 98 96 91 99 96 99 100 100 99 93 87 90 93 92 90 93 98 100 100 98 98 100 99 99 99 94 88 88 91 93
21 28 34 53 67 87 90 87 87 79 62 50 46 54 63 86 99 100 98 94 86 90 95 97 100 100 100 100 100 100 100 100 98 100 99 97 95 93 86 82 86 88 85 85

GFSNW_250_rhum_027.txt.gz
RH
15 22 23 46 62 71 86 100 98 77 93 100 97 100 81 67 91 100 86 39 34 23 18 14 15 20 23 23 20 20 24 27 29 27 54 38 33 26 34 40 38 36 40 37
18 21 21 52 61 76 97 100 100 88 99 100 94 96 61 81 99 100 40 35 30 21 19 20 21 20 22 24 24 27 24 18 21 24 35 30 28 26 35 34 35 33 35 32
16 19 26 53 61 72 100 95 97 90 100 99 98 76 61 91 100 67 37 34 28 19 20 22 25 22 25 30 26 24 20 19 22 24 37 33 31 32 30 32 32 33 35 30
16 17 34 53 57 65 96 92 100 97 98 93 98 54 78 99 99 42 38 38 33 28 28 28 30 27 29 28 28 26 24 23 22 23 32 34 30 30 28 28 30 30 33 31
17 18 39 53 54 63 100 94 100 99 100 90 94 50 85 99 75 42 42 44 37 29 31 30 44 36 33 38 38 33 32 28 24 24 30 40 31 29 28 26 26 28 29 31
16 20 37 46 51 66 94 96 100 99 100 98 94 56 68 96 68 49 44 40 36 30 29 26 21 18 18 21 23 23 24 28 25 24 24 33 43 42 31 30 32 34 31 38
17 23 37 37 48 68 85 99 100 100 100 99 91 59 72 85 91 76 62 51 49 52 38 32 27 25 24 22 21 21 20 19 19 20 21 24 36 42 47 42 36 37 45 38
16 18 32 36 50 76 91 95 95 100 100 100 92 63 75 85 92 96 80 60 50 45 36 34 30 21 21 22 22 23 22 22 22 22 21 22 23 27 34 40 44 43 47 45
17 22 30 37 59 91 78 93 94 100 100 100 94 72 90 79 83 99 100 89 80 69 57 45 43 37 30 24 21 20 20 21 20 21 22 22 21 23 24 26 28 29 31 33
22 21 32 41 64 80 81 86 94 100 100 99 100 71 85 96 83 98 99 100 100 100 92 66 51 44 36 34 28 22 19 19 21 21 21 21 21 22 22 24 24 23 25 26
26 32 42 46 61 68 85 86 100 100 100 100 100 79 69 100 94 98 96 92 94 97 94 90 65 56 51 40 37 36 30 25 21 20 21 20 20 20 20 21 21 22 23 23
26 31 46 54 56 66 79 86 100 100 100 100 100 89 69 85 100 100 100 93 96 99 97 95 89 76 58 49 50 49 50 45 44 44 31 25 24 25 30 31 30 27 30 35
26 31 49 52 58 66 80 91 100 100 100 100 100 100 86 83 98 98 100 93 82 93 93 93 90 91 84 79 61 50 42 41 42 44 39 39 53 55 47 44 47 43 42 48
32 49 54 53 55 64 81 96 100 100 100 100 100 98 100 85 77 90 100 96 100 100 100 93 93 87 89 82 73 72 69 68 66 60 56 50 56 55 52 55 66 67 61 63
36 53 55 58 53 62 85 98 100 100 100 100 100 100 100 94 76 63 100 95 100 100 100 100 100 100 100 100 100 97 94 84 82 84 91 92 85 85 88 92 94 100 88 82
39 54 58 54 53 62 81 100 98 100 100 100 100 99 98 100 93 74 68 98 99 100 100 100 100 100 99 100 90 93 100 100 100 100 100 97 81 80 85 88 94 98 100 100
39 53 59 52 53 59 71 94 100 100 100 100 100 100 100 100 100 87 75 70 89 92 99 100 100 100 96 90 78 71 66 73 72 72 76 87 88 86 90 90 85 80 75 65
37 61 64 52 53 57 66 88 92 98 96 98 100 100 100 100 91 91 81 74 67 71 77 81 90 93 93 95 82 70 62 61 67 74 70 68 70 66 58 56 55 54 51 47
46 59 67 57 54 64 64 72 80 92 92 100 100 100 93 100 82 69 66 66 69 66 64 69 77 85 86 89 82 76 65 60 66 75 80 74 79 77 64 56 50 49 51 48
50 51 52 53 52 67 62 57 75 86 94 100 100 94 86 100 86 62 64 59 53 60 64 61 62 72 80 81 74 69 62 64 65 72 78 79 71 72 68 67 67 69 68 70
43 41 46 62 63 63 68 52 65 82 100 100 100 100 92 99 98 83 60 64 62 64 67 53 67 98 89 74 76 69 64 63 68 74 74 90 97 90 85 81 81 82 77 75
42 55 67 59 52 57 65 55 57 78 100 100 100 100 94 100 97 92 80 62 57 58 67 59 78 99 76 72 72 72 69 67 68 77 98 94 91 87 85 81 80 80 75 72
46 46 43 45 40 55 67 64 66 82 100 100 100 100 97 93 86 86 77 72 70 67 67 68 88 84 69 59 58 60 60 67 79 74 80 74 78 79 81 80 81 76 79 94
36 42 44 32 42 53 79 93 79 72 92 99 95 89 82 89 90 79 75 93 92 90 88 81 64 62 63 63 64 69 69 66 66 72 76 76 80 86 87 86 89 99 100 100
23 32 43 47 45 60 78 85 72 65 76 85 80 83 86 81 86 96 89 98 96 100 100 95 73 72 80 75 67 60 64 69 69 69 73 83 85 82 85 94 100 100 100 100
15 22 34 41 43 57 74 88 75 64 64 64 70 77 83 87 87 100 100 100 100 100 100 90 78 66 64 67 68 66 69 74 78 82 83 85 88 95 100 100 100 100 97 90
11 20 34 43 48 63 75 84 76 59 53 54 56 65 84 89 88 97 99 100 94 94 96 96 96 95 95 99 100 100 100 96 94 97 97 96 100 100 99 100 100 99 96 94

GFSNW_250_rhum_030.txt.gz
RH
5 7 8 11 14 19 29 37 64 95 70 74 100 95 96 99 100 63 79 96 86 53 47 28 21 14 14 16 44 51 51 50 64 64 36 39 34 38 65 47 54 52 54 62
6 7 9 12 15 26 33 44 96 71 65 100 100 91 100 100 76 72 97 89 54 51 33 24 24 23 22 73 89 66 46 37 54 38 19 19 25 39 41 51 50 47 58 61
6 8 10 13 20 29 29 50 89 73 100 100 100 95 100 96 63 95 87 56 47 37 25 25 23 28 22 28 48 49 50 40 34 32 27 28 50 45 47 55 56 54 57 60
6 9 12 16 25 28 36 73 93 80 93 100 98 100 100 57 87 91 63 49 45 30 23 27 30 25 23 21 33 45 39 38 36 31 33 46 48 41 40 53 58 55 51 54
8 11 14 24 25 30 67 92 90 82 92 100 97 100 88 57 93 78 54 53 52 31 26 29 37 30 24 25 35 40 28 32 30 31 33 55 42 35 44 54 53 54 49 49
9 11 16 20 18 48 95 97 84 81 98 100 100 100 54 74 99 57 61 60 56 44 33 35 31 34 33 32 29 28 20 21 22 26 34 42 30 35 40 46 51 51 50 41
10 12 18 19 30 84 84 88 78 90 94 100 100 99 59 79 89 60 66 64 59 58 49 39 39 34 30 24 26 29 31 28 24 25 30 33 38 38 36 40 37 42 44 39
11 14 16 19 48 81 78 90 93 85 99 100 100 88 69 88 93 78 77 70 62 54 50 52 49 44 43 45 44 38 32 30 28 30 30 38 42 40 35 33 35 38 39 36
12 18 26 34 68 79 80 91 88 93 100 100 100 86 67 91 92 91 90 82 72 56 49 42 39 45 43 43 41 38 35 31 29 27 29 35 38 45 51 56 46 44 36 30
14 21 21 43 67 56 72 92 89 99 100 100 100 93 66 92 89 90 100 94 79 85 69 51 40 35 35 34 34 34 34 34 32 29 25 26 28 32 38 49 56 48 47 45
14 17 26 56 64 56 66 74 94 100 99 100 100 97 70 91 98 75 100 100 100 94 98 84 68 48 36 31 29 27 27 28 27 27 27 25 24 25 26 28 31 35 40 41
14 18 29 52 68 58 69 74 93 93 95 100 100 100 78 93 98 85 76 95 100 100 98 88 83 70 57 48 42 33 29 25 26 26 24 23 23 22 22 24 24 24 26 27
15 19 27 46 64 66 72 84 93 90 95 100 100 100 81 91 97 91 79 69 92 94 97 92 84 66 54 57 54 51 45 34 28 24 22 25 26 27 27 28 28 28 28 28
18 23 28 44 72 71 74 84 95 92 92 100 100 100 99 81 95 99 91 76 82 82 83 87 90 86 78 66 59 54 51 49 46 42 31 27 28 28 27 28 30 31 30 31
17 23 31 52 75 71 78 83 94 93 92 100 100 97 100 95 79 94 99 84 86 88 82 80 83 88 86 80 79 80 77 66 64 56 58 49 47 49 51 52 54 52 49 48
16 25 37 59 77 72 80 75 87 93 99 100 100 99 99 100 86 83 88 92 84 85 90 90 92 95 100 100 99 88 86 90 84 79 76 66 67 76 92 96 90 89 94 91
16 35 48 73 75 75 84 74 93 98 97 100 100 100 100 100 100 92 86 96 100 94 83 94 94 100 100 100 96 93 87 81 77 81 80 77 78 83 87 83 80 77 80 82
18 36 47 72 81 90 77 78 90 94 93 94 100 100 100 99 100 100 100 90 90 100 100 87 98 100 100 100 100 98 88 89 88 89 88 79 74 69 68 67 70 75 74 74
17 38 48 61 82 92 92 93 89 95 84 84 99 100 100 100 100 100 100 100 99 81 98 100 91 96 100 100 90 88 90 87 76 70 64 62 64 70 75 78 84 76 64 62
18 30 52 79 97 92 99 96 89 89 81 86 99 100 100 100 99 100 100 100 100 100 85 92 94 100 97 89 79 76 80 82 80 81 79 75 67 60 65 71 74 72 68 70
14 18 37 88 91 90 84 84 84 93 84 97 100 96 95 100 100 100 100 100 100 100 100 84 88 93 82 75 79 84 77 70 79 77 71 76 74 63 72 72 68 78 92 99
17 27 48 76 82 75 73 76 83 100 91 94 99 90 80 95 100 100 100 100 92 76 86 92 100 100 81 76 70 71 69 73 72 67 60 66 67 73 74 75 81 100 100 100
20 25 34 53 70 67 59 68 81 97 100 100 100 95 88 95 94 94 94 96 96 87 85 97 100 80 71 72 71 69 66 60 58 58 64 68 77 74 71 82 95 92 83 78
16 24 28 37 52 70 96 100 100 100 100 100 100 95 80 84 88 82 85 100 100 100 100 100 86 73 67 66 65 62 62 62 62 64 66 65 60 68 78 84 77 72 69 72
13 17 26 37 54 84 100 100 100 100 100 100 99 84 75 69 70 79 86 100 100 100 100 98 78 67 64 59 55 56 56 57 59 61 61 60 69 72 71 67 65 68 66 66
13 15 22 43 53 72 93 100 97 97 100 98 89 76 74 68 62 81 99 100 100 100 100 100 88 78 73 68 65 66 68 68 67 70 70 70 68 67 66 66 65 68 77 87
9 12 19 26 39 53 71 95 97 92 99 99 93 88 82 77 62 72 93 100 100 100 100 100 100 98 94 94 95 96 96 92 85 80 76 69 68 69 68 72 79 83 89 92

GFSNW_250_rhum_033.txt.gz
RH
2 3 4 5 6 7 8 10 13 16 23 39 76 100 100 100 95 91 84 87 95 64 60 79 60 36 29 16 8 11 35 42 48 61 86 100 100 100 94 56 38 33 35 73
3 3 4 4 5 7 9 12 18 22 34 64 100 100 100 100 85 90 94 98 65 65 65 52 34 29 25 15 24 43 74 100 100 100 100 100 100 100 73 48 39 48 59 65
3 4 5 6 6 8 10 15 20 28 48 100 100 95 100 99 94 100 100 70 68 67 52 39 30 26 29 39 52 58 84 99 100 100 100 100 100 78 46 43 47 65 67 64
4 4 6 6 8 11 16 21 29 49 88 87 86 100 94 98 96 100 68 73 69 59 38 37 27 31 32 67 85 92 94 100 100 100 100 100 56 49 43 42 48 61 55 56
4 5 6 8 10 15 20 30 36 58 72 92 100 96 100 98 100 69 83 72 67 40 40 29 24 36 72 89 77 61 70 66 98 85 74 79 34 33 35 32 33 39 53 59
5 6 7 10 12 16 26 37 52 73 91 100 99 86 100 100 73 84 80 67 74 40 40 22 33 36 32 37 65 55 52 44 50 51 38 41 27 34 34 24 37 48 53 52
6 6 9 12 17 26 33 32 68 81 100 100 92 99 100 93 74 93 77 78 88 47 44 42 55 41 39 32 30 43 45 36 43 54 46 25 27 29 28 25 35 46 45 53
6 7 12 15 20 33 31 62 79 92 99 90 100 100 100 72 94 91 77 91 100 55 61 63 80 69 61 50 34 34 37 36 37 45 38 32 27 27 30 39 39 47 45 51
7 9 13 22 26 29 40 95 89 86 83 100 100 100 100 74 100 93 100 87 95 84 53 49 74 99 100 93 97 78 59 49 47 48 36 32 32 44 65 66 56 51 41 46
7 11 16 23 27 42 82 87 90 95 99 99 100 100 81 91 100 95 100 100 86 84 92 81 57 48 59 62 62 61 58 52 46 34 36 36 42 52 57 56 59 57 47 43
8 14 20 25 29 61 80 92 99 100 99 99 94 100 81 93 100 82 92 100 97 90 69 68 76 74 60 50 44 43 42 38 38 36 34 31 38 53 57 52 50 59 65 63
10 15 19 24 41 79 83 88 100 100 98 97 94 100 92 81 98 100 69 100 100 91 75 59 54 60 59 61 65 58 50 42 36 33 30 30 34 37 41 47 50 55 59 62
10 15 18 23 52 80 85 92 100 100 100 93 93 100 98 74 94 98 90 69 98 100 100 86 64 46 46 42 41 38 38 40 39 35 33 32 30 30 31 33 37 40 42 43
11 15 17 25 52 68 81 87 100 100 100 98 99 100 95 86 90 100 100 94 56 75 93 99 95 80 71 63 53 39 41 32 30 31 33 33 33 32 30 28 28 28 29 30
12 16 18 30 60 80 89 86 98 100 99 97 100 98 100 95 82 96 100 98 93 71 86 89 96 93 95 95 90 72 73 56 34 32 32 29 31 30 31 30 30 30 29 30
12 17 22 38 66 80 89 100 98 100 100 100 98 98 100 96 97 85 84 82 99 96 76 88 100 100 95 100 99 96 88 70 63 59 59 62 60 56 48 43 40 39 39 37
13 19 25 48 76 80 90 100 100 100 100 100 97 99 100 100 95 88 79 80 99 94 83 82 89 86 96 93 90 86 85 75 72 75 74 68 63 68 62 63 64 62 66 75
14 20 29 46 68 84 90 92 100 100 100 100 97 96 99 99 97 86 89 95 83 82 81 88 98 94 89 98 89 85 93 98 97 91 77 73 71 71 75 78 77 82 88 85
15 20 29 38 59 92 96 92 100 100 98 100 100 91 93 100 100 86 84 87 99 88 89 99 90 85 94 98 97 94 98 100 100 95 88 83 79 83 80 72 71 67 61 56
13 16 17 35 56 89 89 90 99 99 100 100 100 91 98 100 98 96 88 97 100 100 100 98 100 100 98 85 77 81 84 92 93 82 80 81 76 71 67 63 61 64 62 60
12 12 25 44 51 75 87 84 96 100 100 100 100 100 100 100 100 100 100 99 100 100 100 100 100 100 100 100 100 88 73 65 73 84 85 83 79 67 67 69 67 66 70 70
12 21 38 41 38 57 80 84 99 100 100 100 100 100 100 98 91 95 100 99 100 100 100 100 100 100 84 95 100 100 100 98 96 93 87 81 72 74 68 70 74 66 70 76
12 18 28 32 36 52 80 90 100 100 100 100 100 100 100 92 95 84 84 89 100 100 100 100 100 100 100 89 83 94 97 99 94 86 74 69 73 76 75 75 69 68 70 75
11 15 21 25 35 53 84 88 89 100 100 100 100 100 99 91 100 87 78 85 99 100 100 100 100 90 80 77 78 73 74 80 78 76 76 77 73 73 74 69 69 71 74 70
11 15 21 36 55 81 87 94 92 100 100 100 100 98 94 93 96 99 92 90 99 100 100 100 91 88 82 76 75 75 75 78 84 89 82 74 70 66 66 66 66 70 67 66
9 15 31 38 54 73 72 78 93 91 96 95 98 94 85 88 86 95 99 100 100 100 93 99 100 99 100 100 97 91 87 84 77 71 68 64 62 63 64 67 68 64 66 70
8 16 24 40 49 73 80 85 93 94 95 88 87 88 80 73 74 82 96 100 100 100 100 100 100 100 100 95 98 100 99 93 83 73 67 66 68 71 73 75 73 72 72 72

GFSNW_250_rhum_039.txt.gz
RH
2 2 1 1 2 3 3 5 8 11 13 13 15 39 73 100 100 94 100 92 100 97 94 84 78 78 80 100 100 100 91 100 100 60 53 64 83 73 60 56 28 15 18 9
2 2 2 2 3 4 4 5 8 10 13 15 13 31 46 68 79 90 90 88 92 94 83 63 68 90 79 100 100 99 88 86 86 82 68 73 93 90 100 100 100 65 50 24
2 2 3 3 3 4 5 6 7 8 8 10 12 15 24 42 64 78 77 82 86 78 58 63 99 75 100 100 99 86 93 100 79 86 82 100 100 86 100 97 100 100 100 98
2 2 3 3 3 4 5 6 7 9 12 16 17 19 21 27 35 44 60 75 66 56 70 90 82 100 100 84 88 100 100 100 92 87 100 100 100 93 100 100 100 100 100 100
2 3 3 3 4 5 7 8 11 16 14 9 11 14 18 22 29 43 56 56 58 88 94 93 93 96 69 66 81 100 97 95 82 100 100 100 100 98 89 82 100 100 100 100
2 3 3 4 5 6 8 10 12 12 10 14 18 18 25 33 37 48 59 71 92 89 88 78 62 60 66 81 100 100 98 79 90 100 100 100 100 100 96 100 94 93 83 70
2 3 4 6 6 7 8 8 9 11 15 16 19 31 38 47 57 75 92 91 89 70 56 50 50 53 46 99 100 100 94 82 86 100 100 98 100 100 100 100 93 100 72 57
3 4 5 7 8 7 8 9 12 14 17 25 44 46 62 88 93 87 90 76 64 55 54 44 40 28 94 100 100 100 91 100 98 100 100 100 93 100 100 100 95 99 68 58
3 4 5 7 9 11 11 12 16 23 41 57 56 75 98 93 93 85 90 76 70 51 47 34 31 74 72 94 100 85 90 93 100 100 100 99 65 92 93 98 100 90 67 57
3 4 6 8 11 13 17 17 22 36 63 68 92 86 89 92 92 95 81 78 54 54 33 31 69 75 71 78 87 88 98 91 73 71 73 68 69 96 98 100 99 80 65 55
3 5 7 10 12 15 26 22 32 62 73 91 94 89 91 96 98 76 75 78 64 42 30 40 60 74 86 89 89 84 98 86 88 90 97 98 100 100 100 100 91 63 56 60
3 5 7 11 13 20 26 27 36 56 84 92 90 82 94 100 90 81 65 81 73 45 48 70 81 67 83 91 95 98 96 100 98 100 100 100 100 100 100 97 83 56 51 63
3 4 8 11 16 28 31 39 58 67 77 90 86 94 100 98 91 88 69 60 67 81 77 78 84 82 97 95 99 100 100 100 100 100 99 95 78 75 81 76 63 54 51 76
3 5 9 13 20 32 42 60 63 70 64 87 82 100 100 88 94 100 91 60 64 87 100 100 100 98 98 100 100 98 100 100 100 96 86 77 63 54 63 58 52 48 51 72
3 6 10 14 22 32 42 68 73 84 69 76 79 96 92 88 89 100 100 80 70 74 81 96 95 100 100 100 100 97 100 98 86 76 63 57 50 45 49 51 49 45 43 57
4 7 12 17 24 37 49 84 86 96 82 73 71 88 94 96 93 97 100 100 74 66 79 82 91 100 100 100 100 96 89 87 81 60 54 50 45 38 34 37 39 37 38 48
4 8 14 20 24 51 64 91 90 99 94 81 71 86 90 96 94 100 100 100 100 100 97 94 92 100 100 100 100 95 90 85 86 80 71 52 42 40 38 34 33 33 34 37
5 9 17 22 32 65 67 86 88 94 98 85 68 79 88 98 92 100 100 100 100 100 100 100 100 100 99 100 100 100 87 88 98 95 85 68 47 33 30 30 31 31 30 30
6 10 18 25 39 74 78 84 87 91 98 92 73 73 86 88 95 94 100 100 100 95 94 94 95 100 99 94 92 91 84 84 94 91 78 69 64 57 48 45 44 47 48 44
6 11 20 37 46 68 77 78 86 88 100 96 84 78 86 88 85 82 92 100 100 100 100 100 100 98 100 98 98 97 100 100 95 87 85 77 74 72 70 77 89 87 83 88
7 12 24 37 46 57 88 86 95 100 100 100 98 94 93 98 94 98 92 86 98 100 100 100 100 100 94 94 89 86 87 84 88 91 90 94 88 85 87 91 97 94 96 94
9 14 25 31 40 49 85 92 100 100 100 100 100 100 100 100 100 97 100 100 95 98 100 100 100 100 100 92 91 91 88 87 81 76 85 99 100 100 100 100 100 95 92 91
9 11 17 23 32 60 99 100 100 100 100 100 100 100 100 100 100 99 96 100 100 94 92 100 95 98 100 100 99 98 92 88 90 94 94 89 84 88 87 80 80 92 100 99
9 10 14 19 33 82 100 100 100 100 100 100 100 100 100 100 98 84 85 88 93 99 100 100 96 90 95 100 99 100 98 96 98 100 100 99 100 96 93 99 99 93 95 95
11 10 12 21 38 87 98 100 100 100 100 100 100 100 100 100 87 82 88 89 97 94 91 94 97 93 87 88 94 97 94 88 89 99 100 100 100 100 100 100 100 98 94 90
12 14 19 21 30 67 75 76 96 99 100 100 100 100 100 100 98 89 87 88 86 83 76 85 89 91 93 93 93 95 94 95 100 100 98 96 100 100 96 80 82 87 89 90
14 18 27 26 33 46 66 79 84 99 95 100 100 97 95 100 92 94 98 92 83 80 76 78 77 82 89 98 100 100 100 100 100 93 89 91 100 100 100 96 96 98 97 96

GFSNW_250_rhum_042.txt.gz
RH
3 2 2 2 2 2 2 3 3 5 7 9 12 25 55 100 97 99 95 96 97 100 100 100 100 100 100 100 94 71 79 98 87 100 100 96 97 98 80 57 44 18 8 8
3 2 2 3 3 3 3 3 4 6 7 9 11 22 48 79 87 82 94 98 93 97 100 100 97 100 92 97 75 76 95 91 98 91 100 100 100 85 79 68 37 22 11 8
3 2 2 3 3 3 3 3 4 6 8 11 14 22 49 78 88 70 93 95 89 91 97 92 99 100 88 70 74 96 100 93 86 100 100 96 94 70 93 100 73 40 42 33
4 2 2 3 3 3 3 4 5 8 10 12 13 18 33 42 72 78 83 94 92 94 87 97 100 99 68 76 92 100 95 91 100 100 99 75 73 90 100 100 100 78 82 83
4 2 3 3 4 3 3 5 6 8 9 10 12 13 17 23 38 69 91 96 93 89 90 95 100 66 73 96 100 100 93 100 100 100 100 79 100 100 88 100 100 100 86 82
4 3 3 4 5 4 5 6 7 9 10 11 15 18 22 30 39 53 76 90 90 85 77 78 58 74 100 100 100 98 97 100 100 95 100 100 100 86 100 99 100 100 100 83
4 3 3 5 5 6 6 6 8 10 12 15 16 17 19 21 22 26 32 42 53 61 53 63 89 100 100 100 95 89 100 100 83 95 100 99 100 79 100 100 100 100 97 90
3 3 3 5 6 6 7 8 8 11 13 17 20 19 18 21 24 27 32 40 45 58 67 92 100 100 100 94 94 100 100 100 98 100 100 100 100 90 100 100 100 100 100 93
4 3 3 6 6 7 8 9 10 13 16 17 20 24 25 27 33 44 62 65 66 80 100 97 93 78 62 91 98 100 100 89 92 100 78 87 98 100 100 100 100 100 100 91
3 3 4 6 7 8 9 11 15 19 18 19 26 34 51 61 67 74 85 82 92 93 65 45 40 35 49 86 99 100 96 92 88 76 100 79 86 89 100 99 100 100 100 83
3 3 4 6 8 9 10 13 17 21 21 31 49 77 76 75 83 84 86 76 65 43 48 39 32 39 57 72 84 100 94 80 68 77 89 80 94 100 100 100 100 100 91 69
3 3 4 7 9 12 14 20 29 38 48 60 84 72 81 87 80 84 71 67 41 43 44 38 51 59 68 68 74 76 95 100 99 96 100 100 100 100 100 100 100 100 100 75
3 3 5 7 10 14 18 25 41 58 67 76 70 78 79 70 82 80 68 51 47 40 53 56 73 88 89 90 99 93 91 96 100 100 100 100 100 100 100 100 100 95 81 70
3 3 5 9 12 18 29 41 56 70 97 69 72 80 67 76 75 78 68 64 50 58 69 72 84 97 97 100 100 100 100 100 100 100 99 100 100 96 99 100 100 93 70 60
3 4 7 10 15 25 36 61 60 80 91 67 76 72 70 74 75 63 68 79 70 66 75 70 86 100 98 100 100 100 100 100 100 100 100 95 87 78 74 83 94 86 67 52
3 4 7 11 17 29 46 75 68 85 82 76 83 62 70 73 69 58 73 80 74 76 73 80 93 100 100 100 100 100 100 100 100 100 100 100 90 79 63 61 67 71 64 60
3 5 8 12 21 34 57 69 70 91 86 94 84 64 77 77 63 62 73 77 81 90 92 100 100 100 95 96 99 100 100 100 89 81 79 81 69 66 64 62 56 56 51 50
4 6 9 13 23 32 53 62 76 88 84 100 90 69 83 81 70 65 85 92 92 86 91 95 91 97 96 93 91 91 98 87 77 74 76 66 64 64 59 59 60 56 52 49
4 7 10 15 24 31 54 71 86 86 96 99 100 74 92 92 87 76 79 88 100 100 98 98 88 76 75 93 94 99 100 100 100 100 99 99 81 74 72 67 59 50 47 46
5 8 12 20 20 30 56 84 96 90 97 100 100 87 86 93 96 87 84 86 100 100 100 100 100 100 100 100 100 100 100 100 100 100 100 100 100 95 90 86 78 81 90 91
6 9 12 19 22 28 54 93 100 96 97 100 100 100 89 94 98 96 90 86 87 97 100 100 100 100 100 100 100 100 100 98 99 97 94 84 84 96 99 100 98 95 95 100
7 9 13 19 24 34 63 97 100 100 98 100 100 100 100 95 98 99 99 100 99 92 92 97 97 100 100 100 93 86 86 85 91 91 86 79 69 67 73 72 78 91 98 100
9 10 14 19 25 41 90 100 100 99 96 92 100 100 100 100 100 96 97 94 100 100 99 94 98 99 91 94 99 93 86 77 79 80 79 84 86 91 92 92 90 89 89 91
9 10 13 18 30 51 93 96 100 100 94 90 91 97 100 100 100 100 100 95 96 96 98 100 90 94 100 98 90 89 91 92 98 98 96 86 78 87 97 100 100 100 96 90
10 11 13 18 35 52 76 93 100 100 96 91 90 95 94 87 87 93 100 100 100 98 100 100 98 91 96 100 100 100 100 100 99 100 100 100 100 100 100 100 99 92 94 100
13 11 13 18 29 41 58 72 100 100 100 98 82 84 93 93 88 76 86 100 98 89 93 97 99 97 94 98 99 100 100 100 100 100 100 100 100 100 97 94 92 100 99 96
20 14 11 12 22 39 50 52 74 100 100 100 96 88 88 87 84 77 71 86 83 84 80 76 79 93 100 100 100 100 100 100 100 100 99 100 100 97 95 88 88 96 95 95

GFSNW_250_rhum_048.txt.gz
RH
6 5 6 4 2 2 3 2 2 2 3 4 6 10 18 48 84 90 86 81 83 84 77 83 96 96 98 100 99 100 98 100 100 84 79 100 100 85 69 68 69 80 52 72
6 5 6 4 2 2 3 2 2 2 4 5 8 11 21 42 67 90 84 84 86 88 82 80 99 98 98 100 99 100 100 100 100 98 100 86 68 67 68 70 69 65 70 70
6 6 7 4 2 2 3 2 3 3 4 5 9 16 24 48 81 84 86 88 86 86 95 93 99 89 98 96 100 100 100 100 98 94 76 78 73 71 58 54 59 82 82 82
6 6 7 4 2 2 4 3 3 3 5 7 10 15 28 43 89 85 88 88 88 87 100 97 92 92 100 100 100 97 97 91 83 82 92 80 75 61 62 65 71 91 80 71
6 6 7 4 3 3 4 4 4 5 6 7 12 15 23 28 66 90 88 82 85 96 94 96 99 98 98 100 100 96 100 99 99 100 88 80 75 79 74 70 85 81 70 78
7 7 7 4 3 3 4 5 5 6 6 8 11 14 17 26 54 85 88 99 96 90 100 100 100 100 98 97 100 100 100 98 100 96 82 80 85 75 69 89 92 96 90 87
7 8 8 4 3 3 5 6 6 7 8 9 11 12 17 18 43 76 78 99 99 100 100 99 100 100 100 100 100 98 95 100 99 88 86 98 75 67 82 90 96 96 100 100
7 9 8 4 3 3 5 6 7 8 9 9 11 15 17 24 34 70 82 86 99 100 100 100 100 100 99 96 100 99 99 99 99 94 98 88 60 82 100 100 100 100 100 100
7 10 6 4 3 3 6 7 8 9 10 11 13 15 15 19 29 44 56 86 100 100 100 100 100 99 95 94 91 100 97 88 93 95 100 79 85 86 100 100 100 100 100 100
8 10 5 4 4 4 7 8 9 10 10 10 11 13 16 19 23 30 40 56 88 95 98 99 94 94 95 94 97 98 94 88 85 94 98 91 70 100 100 100 100 100 100 100
9 11 5 4 4 4 8 10 10 11 12 14 14 15 16 17 20 25 27 40 57 76 79 88 92 99 98 93 100 90 87 92 98 85 93 90 88 97 100 100 100 100 100 100
9 9 5 4 4 5 9 10 12 12 13 15 16 17 18 19 21 22 26 34 45 60 70 62 63 69 69 83 80 97 96 87 94 98 98 87 94 92 100 100 99 100 100 100
9 7 4 4 4 6 9 10 12 13 14 17 17 20 22 22 23 25 28 30 32 34 35 34 44 52 52 65 98 92 88 85 84 100 98 97 100 100 100 100 100 100 100 100
10 6 4 4 4 6 10 12 13 15 14 17 22 26 28 37 51 52 49 47 50 50 53 53 63 72 73 97 92 85 82 96 100 100 99 99 100 95 94 100 99 100 100 100
10 5 4 4 4 8 12 14 15 18 24 25 32 46 73 90 86 75 64 55 51 40 31 26 27 45 82 100 100 95 90 100 100 100 96 66 90 98 78 78 85 96 100 100
10 5 4 4 5 10 14 14 17 24 34 45 64 75 92 88 76 62 50 48 39 36 30 27 33 50 79 96 98 88 93 100 100 98 77 100 94 67 83 84 87 95 100 100
9 4 4 4 6 11 14 16 23 32 49 66 68 90 89 92 79 56 52 56 58 52 46 56 63 67 70 76 92 84 94 100 100 100 100 97 83 100 100 99 100 100 100 100
8 4 4 5 7 13 18 23 29 45 59 68 81 91 94 86 83 75 63 67 68 70 72 81 86 86 95 98 100 100 100 100 100 100 96 95 98 99 93 98 97 94 89 87
8 5 4 6 10 17 22 27 40 51 67 72 89 91 99 92 93 70 69 75 80 78 88 99 92 100 100 100 100 100 100 100 96 100 99 100 98 92 88 94 85 79 79 89
9 6 5 9 14 22 25 32 45 60 70 76 86 97 100 92 100 92 83 80 84 82 81 79 81 83 99 88 90 94 98 95 100 100 100 100 100 100 100 100 100 100 100 92
11 7 7 12 17 23 33 38 47 62 70 76 87 98 100 99 97 100 98 91 84 84 82 78 78 100 97 99 93 96 98 100 100 100 100 99 100 95 92 97 94 91 90 91
17 9 9 12 21 28 36 47 52 68 72 76 87 98 100 99 95 95 99 99 94 84 85 84 85 93 89 91 96 100 100 100 100 100 100 100 100 100 100 100 99 94 92 97
25 11 10 14 23 31 40 41 61 73 80 78 93 96 98 100 100 95 97 100 98 93 89 82 87 95 99 100 100 100 100 100 100 100 99 100 100 100 100 100 100 100 100 100
43 19 12 14 22 31 36 40 56 79 90 91 91 99 97 99 100 100 100 92 91 88 92 92 90 91 100 97 92 98 96 92 93 98 100 100 100 100 100 100 100 100 92 88
37 36 18 14 15 17 30 42 57 69 93 100 99 98 96 90 92 98 100 100 99 92 89 86 87 85 87 88 89 92 97 99 100 100 100 97 100 100 100 98 96 98 100 97
35 51 37 23 17 15 14 24 44 69 72 84 98 100 99 98 88 82 87 91 94 99 100 100 100 97 92 92 94 99 100 100 100 100 98 98 99 99 93 91 91 87 83 81
35 44 56 45 29 20 17 20 23 38 62 78 82 95 100 100 100 96 79 67 67 80 97 100 100 99 96 96 98 100 100 100 100 100 100 99 92 86 82 79 83 90 84 85

GFSNW_250_rhum_051.txt.gz
RH
6 5 5 5 6 3 2 4 2 2 2 3 4 7 10 32 58 77 69 81 81 90 88 86 87 91 94 83 66 75 77 87 90 76 76 70 74 74 71 78 84 79 57 76
6 5 5 5 6 3 2 4 3 2 2 3 4 9 14 37 52 73 76 88 87 86 95 89 85 92 86 66 69 86 88 92 80 71 72 86 99 94 98 95 88 67 67 71
6 5 6 6 6 3 2 4 3 3 3 4 5 9 14 34 58 70 73 84 88 90 97 90 98 96 80 73 86 87 92 90 76 81 100 100 96 100 85 78 65 62 51 57
6 5 6 7 7 3 3 5 4 4 4 5 7 9 15 27 47 64 82 94 95 97 92 91 96 95 83 88 88 89 98 86 90 97 100 99 90 87 82 70 57 56 62 76
7 5 6 8 8 3 3 5 5 4 5 6 8 11 15 31 55 66 87 96 95 98 99 91 92 98 85 89 90 100 100 100 100 100 96 98 97 81 75 67 63 66 74 81
7 5 6 9 8 4 3 6 5 6 6 7 10 11 18 36 56 72 92 96 94 99 98 96 100 99 95 93 100 100 100 100 97 92 92 97 84 79 79 73 78 85 89 92
7 6 7 10 8 4 3 6 6 7 8 9 12 13 21 38 53 81 92 100 100 100 100 99 99 100 100 100 100 100 100 98 90 95 100 91 85 80 73 72 85 99 99 99
8 6 7 11 7 4 4 6 7 8 8 10 12 16 22 33 47 70 83 95 98 100 100 100 100 98 99 99 100 100 98 97 100 100 95 88 95 80 82 82 100 100 99 94
8 7 8 10 6 4 5 6 7 8 10 11 13 14 17 24 42 59 80 100 100 99 100 100 100 100 100 98 88 94 96 100 100 97 95 92 84 72 88 79 90 78 100 97
8 8 9 11 6 4 6 8 8 9 10 11 13 14 17 26 37 48 75 96 98 100 100 100 100 98 100 100 100 100 100 100 100 100 100 100 83 69 92 100 100 87 83 100
8 8 10 12 5 4 6 7 9 11 11 11 11 12 14 17 25 33 58 74 88 100 99 94 96 98 100 100 100 100 100 100 100 100 100 100 76 77 66 100 96 99 92 99
7 8 10 12 4 4 6 8 10 11 12 12 13 13 14 15 18 22 30 46 64 79 87 85 82 86 95 96 100 100 100 100 96 92 100 96 91 96 81 74 99 99 100 100
7 8 11 9 4 4 6 9 11 11 12 13 16 16 17 18 19 20 24 28 37 49 70 72 73 80 84 90 97 100 100 98 96 100 84 88 80 98 96 100 100 91 99 100
7 9 12 6 4 5 7 11 12 13 15 14 16 18 19 19 21 24 26 31 34 40 48 60 67 66 72 85 98 100 96 95 100 94 82 74 98 100 100 100 100 88 80 98
7 10 12 5 4 5 8 11 12 15 16 17 19 22 25 26 26 26 26 27 28 29 32 38 44 57 71 76 74 77 96 98 80 88 87 100 100 98 98 91 77 75 83 95
8 11 10 4 4 6 9 12 15 18 20 23 26 39 46 50 54 51 53 62 61 53 48 42 45 43 52 65 87 98 100 85 77 84 93 85 82 79 95 73 70 80 86 99
9 12 7 4 5 7 11 15 18 22 25 35 63 74 86 86 84 76 66 54 47 44 35 32 38 61 77 100 98 98 91 99 92 78 88 91 90 100 97 94 100 99 92 99
11 12 6 4 7 10 16 18 21 28 39 76 85 83 81 76 64 61 61 54 44 43 32 28 29 73 100 100 100 97 97 89 94 90 88 100 93 69 71 92 100 90 91 93
12 11 6 5 9 14 17 19 26 37 70 91 89 92 88 68 63 68 72 66 60 50 60 63 72 98 100 100 100 83 90 100 87 98 99 87 68 95 100 100 100 99 97 99
13 12 6 6 10 17 20 24 28 47 94 93 95 98 96 80 77 75 80 79 82 80 84 86 92 100 100 100 100 100 94 88 91 100 86 95 100 99 100 100 100 100 100 100
14 16 8 9 12 19 26 28 35 62 91 89 98 99 100 97 89 80 84 94 91 94 92 94 96 94 100 100 100 91 94 97 100 100 100 100 95 100 100 100 100 100 100 100
16 19 12 12 12 16 25 34 42 66 93 95 99 100 100 100 100 97 92 85 82 86 82 91 98 95 98 98 99 99 99 97 98 100 100 100 100 100 100 98 92 91 93 97
17 23 21 12 14 17 27 39 48 71 89 100 100 100 100 100 100 100 100 93 95 86 79 83 81 84 82 87 92 94 88 98 100 100 100 100 100 100 100 98 95 95 94 93
18 26 31 18 17 18 25 39 58 81 91 98 100 100 100 100 100 100 99 99 100 99 94 89 87 84 83 78 77 86 99 100 100 98 95 94 98 97 94 95 94 92 91 90
21 29 40 32 18 17 21 30 48 80 100 99 100 100 100 100 100 100 98 100 97 100 99 100 100 96 94 92 89 98 93 85 83 86 92 98 98 94 92 93 93 92 91 97
21 30 47 49 37 21 21 27 38 56 91 100 100 100 100 100 100 100 100 100 100 100 100 100 100 100 100 100 100 95 90 95 99 98 97 92 95 98 99 95 93 96 99 97
22 24 38 62 64 43 22 23 32 32 48 73 96 100 100 100 100 100 98 99 96 100 100 98 100 100 100 98 95 96 95 94 93 93 93 97 97 96 98 100 100 100 100 99

GFSNW_250_rhum_054.txt.gz
RH
8 7 6 5 5 5 5 2 4 3 3 3 3 4 6 9 30 47 55 74 87 76 73 83 76 90 92 92 94 95 93 94 94 93 96 95 91 86 81 74 62 58 45 70
7 7 5 5 5 5 5 2 4 3 3 3 4 5 8 16 35 52 70 71 76 90 92 92 92 94 90 91 92 94 92 92 82 76 64 53 57 55 62 64 74 65 71 72
7 7 6 5 6 6 4 3 4 3 4 4 5 5 9 20 45 62 82 86 84 88 95 98 96 100 100 100 100 93 84 68 60 54 62 65 73 81 92 95 72 88 62 76
7 7 6 6 6 6 4 3 4 4 4 4 6 6 8 23 48 58 82 82 82 89 93 96 95 100 100 100 88 75 60 58 67 76 84 86 83 94 100 94 86 77 57 57
7 7 6 6 7 7 5 3 5 5 5 6 7 6 11 20 44 50 64 77 91 98 100 100 100 100 100 99 82 74 71 79 73 82 92 87 90 97 83 90 77 69 56 80
7 7 6 6 7 8 5 4 5 6 6 7 8 9 10 18 24 48 77 92 98 98 96 100 100 100 100 97 94 80 77 78 77 79 82 95 86 90 95 89 80 64 78 77
7 7 6 7 8 8 6 4 6 7 7 9 10 13 16 34 56 78 97 100 99 100 100 100 100 100 100 100 97 87 83 88 80 83 90 84 100 99 92 81 70 76 96 94
8 7 6 7 8 10 6 4 6 8 9 9 11 14 25 40 64 90 93 99 100 100 100 100 100 100 100 100 100 93 96 91 82 90 87 100 100 95 87 81 71 80 96 100
8 7 6 8 8 10 6 5 5 9 9 10 12 15 26 49 79 86 88 100 100 100 100 98 100 100 100 100 99 100 100 100 95 88 98 98 100 96 83 67 66 67 82 84
8 7 7 8 8 11 6 5 6 10 10 10 12 13 19 32 54 78 82 90 99 98 94 93 93 95 100 100 98 100 100 99 92 98 100 100 100 100 75 65 76 91 88 81
8 7 7 7 9 11 6 5 7 10 11 11 12 13 16 24 42 54 59 80 97 98 98 91 81 85 89 95 100 100 100 100 100 100 100 98 100 92 82 72 100 94 99 98
8 7 8 7 10 10 5 5 7 11 12 14 14 14 15 19 29 38 43 56 81 89 94 92 94 88 88 89 94 99 100 100 100 100 100 98 100 100 92 86 82 90 100 82
8 7 8 8 10 9 5 5 8 11 12 13 15 16 15 17 20 29 35 41 60 81 84 90 89 87 91 96 99 100 100 100 100 100 100 100 98 100 77 92 86 99 86 92
8 7 8 8 10 8 4 6 9 11 12 14 16 17 18 17 17 19 23 33 40 65 72 81 93 91 88 90 100 100 100 100 100 100 97 100 97 90 94 99 89 100 92 89
8 7 8 8 10 7 4 6 10 12 13 15 16 17 19 21 22 22 22 24 28 36 47 60 78 87 91 88 99 100 100 100 100 96 100 100 91 91 98 98 100 81 68 72
7 7 8 9 9 5 5 7 12 14 16 20 21 22 22 23 24 25 26 28 28 29 31 35 46 53 74 93 99 100 100 100 99 100 93 89 100 87 100 100 78 60 91 77
7 8 8 9 8 5 6 13 14 16 21 24 24 26 26 26 27 28 30 30 31 31 31 32 35 44 58 79 92 98 97 91 98 90 92 88 90 87 94 93 78 82 94 98
7 9 8 9 7 6 8 12 15 21 27 30 37 48 57 70 77 69 65 58 51 47 46 44 39 38 40 51 69 71 81 96 97 88 78 82 74 83 100 99 75 80 96 100
8 9 9 10 8 6 10 14 19 27 36 45 63 85 92 84 73 62 55 50 45 38 32 29 39 61 48 58 64 94 100 100 97 78 77 75 88 100 93 73 96 95 99 100
10 10 9 14 8 8 12 18 24 36 45 67 87 96 84 66 71 71 71 64 58 51 42 32 47 87 77 87 95 100 100 91 100 84 74 96 100 92 82 97 100 96 96 98
12 12 13 14 11 10 15 21 29 52 70 85 98 100 81 74 85 76 79 80 69 62 77 89 97 100 100 100 100 100 100 98 100 80 88 100 94 100 99 100 100 100 100 95
14 15 15 18 10 12 19 26 34 68 91 98 100 100 93 87 88 88 87 83 79 80 91 98 100 100 100 100 100 100 100 98 83 71 100 100 100 100 98 100 100 100 100 99
16 16 17 21 16 15 20 32 38 77 97 100 100 99 96 99 99 95 93 93 97 91 95 100 100 100 100 100 100 100 95 78 80 98 100 99 100 95 93 100 100 100 99 96
19 18 18 26 21 14 18 32 41 64 100 100 100 100 100 98 100 100 96 100 99 95 92 93 96 91 99 100 100 91 84 83 96 97 83 100 100 93 96 92 94 100 97 99
22 20 19 21 28 18 21 26 36 54 89 100 100 100 100 100 99 99 100 100 100 99 93 90 88 86 92 96 96 97 99 96 94 83 94 99 86 91 98 96 93 97 94 96
27 23 22 22 32 36 18 24 33 46 72 100 100 100 100 100 100 97 99 100 100 100 100 99 96 91 90 84 83 80 80 83 83 92 100 100 100 93 88 99 100 100 100 96
30 26 24 22 28 40 44 20 23 35 50 78 100 100 100 100 100 99 94 98 100 100 100 100 100 100 100 99 100 100 100 99 100 100 100 97 91 96 100 100 100 99 98 100

GFSNW_250_rhum_057.txt.gz
RH
7 7 6 6 6 6 5 5 3 4 3 3 3 3 4 4 6 13 35 51 50 64 71 68 71 72 76 89 87 96 96 97 96 100 100 100 100 100 100 100 100 100 100 100
7 7 6 6 6 6 5 5 3 4 4 4 4 4 4 5 10 22 42 74 79 80 79 72 89 86 96 100 100 98 93 90 99 99 100 99 93 90 86 85 88 90 91 91
8 7 6 6 7 6 5 5 3 4 4 4 5 5 6 9 23 39 46 60 66 83 98 98 96 99 100 100 100 100 100 96 95 100 99 95 94 91 96 100 91 86 73 68
7 7 6 6 7 6 5 6 3 4 5 5 6 7 8 18 39 46 49 64 62 82 90 98 94 100 100 98 99 98 96 94 96 94 95 90 86 74 61 56 56 77 71 78
7 7 6 6 7 6 5 7 4 4 5 6 7 9 10 16 40 48 61 65 82 97 100 100 100 100 100 100 100 97 96 95 85 71 72 63 56 79 84 77 89 77 60 62
8 7 6 6 7 6 5 7 4 4 6 6 8 10 10 20 35 50 65 80 76 81 94 100 98 100 100 99 94 92 80 71 69 74 70 75 81 83 86 96 82 64 61 79
7 7 6 7 6 6 6 6 4 4 7 8 9 13 22 24 45 66 75 84 92 97 100 100 100 100 94 95 95 85 80 78 74 76 78 72 93 87 85 78 71 87 89 82
7 7 6 7 7 6 7 7 5 4 7 9 11 14 19 42 58 68 83 91 93 94 99 99 96 100 100 100 96 88 83 81 83 75 81 85 84 73 75 84 92 73 73 95
8 7 7 8 7 6 6 8 5 5 8 10 11 14 19 29 46 78 86 93 98 94 94 97 96 96 99 100 100 94 84 82 79 83 89 83 96 78 85 90 87 71 88 92
8 7 6 8 8 7 7 9 6 5 9 12 12 14 20 29 43 66 85 88 91 93 90 92 90 91 96 92 96 99 95 95 92 98 86 90 98 90 98 88 78 72 93 95
7 7 7 7 8 7 7 9 6 5 9 12 13 14 18 30 46 55 64 82 90 86 92 93 91 92 95 92 96 97 99 92 97 94 90 92 94 98 99 77 77 64 85 98
7 6 8 8 8 8 8 10 6 5 8 11 14 14 16 20 28 41 54 68 81 84 82 89 94 97 98 100 97 100 100 93 93 84 98 85 100 100 100 97 87 67 89 100
6 6 7 8 8 8 8 10 6 6 10 12 14 15 16 19 24 30 43 43 63 78 87 86 91 89 90 95 95 100 94 94 91 84 87 100 100 99 100 98 82 77 83 88
6 6 7 7 7 7 8 9 6 6 11 12 13 16 17 18 20 24 29 42 55 71 86 95 94 93 92 90 91 95 91 88 87 76 100 100 100 100 100 89 87 87 84 81
6 6 7 7 7 7 8 7 5 6 12 12 13 16 17 18 18 20 25 33 44 58 74 81 83 95 99 95 99 98 96 95 90 99 100 100 100 92 96 82 94 97 79 66
5 5 7 7 7 8 8 5 6 8 12 13 14 15 17 19 20 20 20 22 27 39 50 59 74 84 96 99 91 93 100 100 100 95 100 100 98 97 87 92 100 96 68 69
5 6 7 7 7 8 8 6 7 10 13 16 16 18 20 21 21 21 21 21 22 24 27 31 44 75 96 98 84 98 100 100 100 100 100 97 85 100 89 100 98 86 80 80
5 7 8 8 8 9 7 6 9 12 15 14 18 19 21 24 25 27 28 30 29 27 27 28 32 38 52 69 87 97 96 100 100 96 95 92 89 86 84 78 83 95 74 82
6 7 8 9 9 9 8 8 11 15 16 18 23 27 34 35 57 61 54 51 48 52 46 33 28 31 36 48 62 80 100 100 97 92 91 94 80 84 84 88 84 90 87 97
6 8 9 9 10 10 9 10 13 18 19 27 35 47 70 79 82 63 62 52 50 48 42 39 40 32 33 42 54 71 87 96 93 88 95 79 82 76 100 99 94 86 96 100
8 9 9 10 12 12 10 12 18 21 26 38 54 68 80 82 73 64 55 54 60 57 37 33 37 53 42 38 46 62 71 72 89 100 83 85 76 100 99 88 83 97 100 100
9 10 11 12 15 16 13 16 22 25 33 52 68 78 85 76 69 71 62 66 74 74 66 78 80 72 64 61 63 68 89 100 100 99 97 84 73 100 100 96 100 100 98 98
10 11 13 15 18 18 16 18 24 31 43 62 82 87 89 81 74 77 77 77 71 78 90 98 93 99 98 100 100 100 100 100 98 98 94 85 99 100 93 86 98 100 100 100
12 14 15 18 18 22 18 23 31 37 56 72 89 96 95 95 84 84 87 80 76 75 87 100 93 100 100 100 100 100 99 100 97 96 79 85 100 100 88 80 92 94 100 98
16 18 17 20 20 24 23 19 29 37 58 85 90 94 96 100 99 86 93 94 94 89 80 90 93 100 100 100 100 100 100 99 92 91 85 85 98 98 82 85 91 88 88 94
19 20 19 23 23 28 29 22 24 33 44 89 95 95 95 98 100 100 98 94 100 100 99 92 86 93 100 100 97 96 97 99 98 89 84 84 82 90 89 91 95 91 91 94
19 21 20 24 26 27 36 39 24 25 41 56 90 97 100 97 97 100 100 100 100 97 97 100 100 97 91 82 87 91 91 86 88 98 98 95 97 96 96 96 93 89 90 87

GFSNW_250_rhum_060.txt.gz
RH
5 6 5 5 6 6 6 6 4 4 2 4 4 4 4 4 6 7 11 21 38 62 62 57 55 55 62 56 56 50 50 41 46 57 72 90 92 87 73 76 81 81 84 91
5 5 5 5 6 7 6 6 5 5 3 4 4 5 5 6 7 9 20 39 52 58 59 63 59 66 65 66 62 57 59 61 76 76 86 96 98 97 97 98 92 82 78 81
5 5 5 6 6 7 6 6 5 5 4 5 5 7 6 7 10 22 43 63 76 74 78 75 73 95 92 92 92 97 98 100 98 96 95 96 98 99 99 100 99 90 98 97
5 6 6 6 6 7 6 6 6 5 4 6 6 8 8 8 13 22 43 74 78 75 92 99 100 100 97 100 100 100 100 100 99 98 98 99 92 82 94 98 89 100 79 95
6 6 6 6 6 7 7 6 6 6 4 6 7 9 11 13 22 34 56 62 70 70 82 81 90 98 92 93 92 90 99 98 98 100 100 97 94 100 99 94 90 87 95 95
6 6 6 6 5 6 7 6 7 7 5 7 8 12 15 29 39 49 50 57 59 76 85 85 95 99 100 98 100 98 96 97 96 100 100 94 94 99 99 88 77 71 75 75
7 6 6 6 4 6 6 6 7 8 5 8 11 16 31 26 48 64 68 64 70 84 93 90 94 93 93 94 95 97 98 98 100 99 93 87 72 65 66 80 76 67 71 62
7 6 6 6 4 5 6 6 8 9 5 9 12 24 32 47 53 67 73 73 74 88 84 86 92 92 91 98 100 100 100 86 78 68 67 70 83 77 86 74 72 72 59 63
7 7 6 6 5 6 6 6 9 11 5 9 12 15 18 29 40 56 67 78 83 91 93 95 95 96 93 92 100 96 86 86 78 74 78 81 80 74 73 73 73 65 77 79
6 6 6 5 5 6 6 6 8 11 6 9 12 14 19 26 37 57 69 74 87 86 89 94 94 93 92 99 100 93 87 82 83 78 78 84 79 74 73 74 80 83 93 87
6 6 6 5 5 5 6 6 8 11 7 7 13 14 18 33 36 42 55 64 83 83 84 87 86 94 100 100 100 100 94 94 88 81 88 81 76 79 77 75 82 82 86 91
5 6 6 5 5 6 6 7 7 11 7 7 12 15 17 25 32 42 51 64 74 80 83 84 82 84 97 99 100 100 94 94 91 88 92 82 80 79 85 73 81 80 75 84
5 5 5 5 5 6 6 7 8 11 7 6 11 15 16 17 24 36 45 54 67 79 84 91 87 81 86 92 99 98 93 96 91 89 91 89 83 84 92 77 84 90 94 100
5 5 5 5 6 6 7 7 8 10 6 7 11 14 16 16 19 20 32 41 57 75 87 88 90 90 86 88 93 90 90 94 95 93 92 83 86 100 97 87 99 98 97 100
5 5 5 5 6 6 7 7 8 8 5 7 12 14 16 18 20 23 31 40 54 72 78 83 84 93 95 99 93 93 96 93 99 100 88 86 91 100 94 86 99 96 93 99
5 5 5 5 6 6 7 7 8 7 6 7 11 14 16 18 18 22 27 38 44 57 72 74 80 92 97 98 84 88 92 92 95 93 94 89 99 100 96 92 86 86 100 81
5 5 5 5 5 6 7 7 8 7 6 9 12 14 16 18 18 18 19 20 23 32 45 61 68 88 94 93 80 96 97 99 100 95 86 91 100 100 99 100 79 100 85 84
5 5 5 6 6 6 7 8 8 7 8 11 15 17 17 18 19 20 21 20 20 21 24 34 46 62 82 90 86 100 98 98 96 88 89 100 100 96 87 98 87 94 73 90
6 6 6 6 6 7 9 9 9 8 10 12 16 19 22 22 22 23 24 24 24 23 23 23 27 35 52 67 86 100 95 100 100 95 100 100 100 97 82 90 92 75 86 83
6 6 6 6 7 9 10 10 9 10 13 15 22 24 26 27 29 34 39 43 41 32 29 24 23 25 27 37 59 82 95 100 100 94 100 100 100 89 86 88 91 94 82 82
6 7 7 8 9 10 11 11 10 13 15 21 28 34 44 45 53 62 70 70 62 51 45 39 32 29 28 32 33 48 79 98 100 100 100 100 100 100 95 79 100 93 88 78
8 9 8 9 10 12 12 13 12 15 18 28 36 50 62 61 70 72 69 69 61 54 47 39 35 42 43 35 40 46 59 78 96 100 100 100 99 95 86 100 97 91 91 92
9 11 9 11 12 15 16 16 15 20 25 34 47 69 72 72 65 75 80 71 68 68 66 53 56 71 63 44 46 55 62 75 93 100 100 95 94 85 98 100 100 100 98 91
11 12 13 14 14 16 19 19 20 22 30 43 57 74 77 74 72 84 85 76 72 76 86 91 81 76 72 63 57 65 72 78 97 100 100 99 99 100 96 96 90 100 77 81
14 13 15 17 17 20 22 23 21 23 34 50 59 77 86 83 80 86 88 83 79 78 87 90 93 96 98 92 86 88 100 100 100 100 100 92 95 100 100 100 90 94 86 77
16 15 17 20 20 22 26 26 26 22 29 47 66 83 94 93 92 94 100 95 84 77 76 84 86 88 94 100 100 100 100 98 99 94 91 94 100 97 92 89 98 97 85 90
17 18 19 18 23 24 26 30 29 29 28 37 64 83 97 99 100 100 99 98 98 96 92 85 81 84 90 95 99 100 100 95 92 97 98 95 86 81 82 82 89 90 94 100

GFSNW_250_rhum_063.txt.gz
RH
6 5 5 5 5 6 6 5 5 5 4 3 4 4 5 5 5 5 7 11 20 41 43 56 60 53 58 56 54 49 46 62 62 68 80 92 98 100 100 100 100 97 100 77
5 5 5 5 6 7 6 6 6 5 5 4 4 5 6 6 7 8 10 18 27 40 56 58 53 60 59 60 56 56 59 56 67 68 75 91 94 92 90 90 91 100 100 89
5 5 5 6 6 8 6 6 6 6 5 4 5 6 8 8 8 11 16 26 49 67 66 60 63 78 81 77 76 78 77 74 67 61 62 71 85 87 96 100 97 87 97 77
5 5 5 6 6 7 6 6 6 7 6 4 5 7 9 11 13 20 36 53 58 53 57 78 89 86 86 88 90 86 83 74 65 62 70 78 92 94 98 91 84 94 73 81
5 5 4 6 6 7 6 6 7 7 6 5 6 9 15 15 16 25 34 48 57 66 76 76 69 69 71 82 70 81 87 86 85 89 89 84 79 89 95 84 96 86 89 78
5 5 4 6 6 6 6 7 7 7 7 6 7 11 22 24 27 36 39 49 58 66 83 83 74 90 100 95 92 98 92 98 100 97 96 96 92 97 90 94 100 88 84 90
5 5 4 6 6 5 6 7 7 8 8 8 7 12 22 34 40 40 50 50 60 64 76 82 83 90 100 93 94 94 95 96 94 93 93 89 93 99 95 100 100 98 97 100
5 5 4 5 5 5 6 7 7 8 9 9 8 14 20 35 41 54 56 56 61 56 73 78 86 91 88 94 98 100 100 100 100 100 94 91 100 100 100 100 98 86 73 88
5 5 4 5 5 5 5 6 7 8 10 10 8 12 24 35 35 46 63 66 69 78 86 90 90 92 87 92 88 93 95 94 97 94 91 92 100 90 73 68 73 79 92 90
5 5 4 6 5 5 5 6 7 8 10 12 8 12 18 31 44 53 57 68 73 76 89 89 94 97 93 95 97 96 93 91 90 77 76 74 67 74 84 82 72 78 74 57
5 5 5 6 6 5 5 6 7 9 10 12 9 11 15 25 33 52 59 70 76 77 84 86 89 92 90 96 100 100 93 82 74 72 77 84 86 88 78 69 62 60 59 66
5 5 5 6 5 5 5 6 6 8 10 13 10 9 14 22 37 49 58 65 71 77 74 77 85 88 85 95 100 97 83 74 78 84 88 90 83 82 75 70 67 63 68 81
5 4 5 6 6 5 5 6 6 8 10 11 10 8 14 19 30 59 65 67 67 75 79 74 79 82 86 100 100 95 87 80 83 86 87 92 87 83 76 76 83 78 71 82
4 5 5 6 6 5 6 6 6 7 8 11 9 7 13 16 20 41 59 71 77 80 87 81 77 78 82 99 100 96 97 93 93 91 87 90 91 88 81 85 85 90 85 87
4 5 5 6 6 6 6 6 6 7 8 10 8 7 13 14 17 24 33 56 76 80 80 83 87 83 78 88 92 88 99 100 98 100 91 95 96 90 79 83 93 94 96 100
4 5 5 6 6 6 6 6 7 7 9 10 7 8 14 15 16 20 26 45 63 81 86 84 87 89 89 85 82 98 94 100 100 100 93 100 100 100 94 85 95 90 92 100
5 5 5 6 6 6 6 7 7 8 9 9 8 11 14 16 17 18 22 28 42 63 78 77 82 91 89 90 80 98 95 100 100 100 95 100 100 100 99 84 98 92 99 99
5 5 6 6 6 6 7 7 8 8 9 8 9 14 15 15 16 17 17 20 24 31 43 54 71 87 98 96 87 97 94 98 98 100 98 100 100 100 100 95 93 99 100 91
5 5 6 6 6 6 7 8 8 9 9 9 11 14 17 18 18 20 21 21 22 21 24 28 40 62 89 82 86 99 99 94 98 98 97 100 100 100 99 95 100 100 100 87
6 6 6 7 7 7 7 8 8 10 10 10 13 16 19 20 20 21 23 24 23 22 21 21 22 26 36 49 64 85 95 90 100 100 97 100 100 97 95 100 95 100 99 87
6 7 7 7 7 7 8 9 10 11 12 13 15 18 20 20 23 25 26 27 28 26 27 25 22 22 22 25 35 51 79 88 96 99 99 100 100 100 100 94 100 95 99 87
8 8 8 8 9 8 9 10 12 12 13 16 17 21 24 26 32 46 56 69 72 67 57 49 38 32 26 23 25 30 48 73 87 99 95 100 100 100 95 91 98 97 98 82
10 9 9 10 10 11 11 12 15 15 16 19 22 26 35 47 58 74 78 84 76 69 62 49 45 39 37 39 30 30 34 49 84 96 100 100 100 100 91 96 100 98 93 91
13 11 12 11 12 13 13 16 17 16 18 22 26 34 52 65 76 77 76 78 79 86 79 69 59 57 52 55 42 40 39 41 57 100 100 100 100 100 100 100 99 90 97 99
15 14 14 13 14 16 17 18 19 20 21 24 33 42 61 84 85 82 82 87 83 84 86 82 78 86 80 71 55 47 50 54 59 85 100 100 100 100 100 100 100 98 95 94
16 16 15 16 16 18 20 20 22 24 23 26 37 49 69 90 96 92 92 93 96 87 82 93 97 100 86 76 68 65 65 68 74 85 100 100 100 100 99 98 100 100 100 97
16 16 19 20 20 21 23 22 24 27 27 26 36 46 71 84 98 99 96 92 95 98 98 88 91 99 100 90 82 75 79 81 88 94 95 100 100 99 99 100 100 98 93 100

GFSNW_250_rhum_066.txt.gz
RH
4 5 5 5 5 4 5 5 4 4 4 5 4 4 5 6 6 6 6 7 11 30 37 47 46 58 56 55 51 48 56 66 65 70 66 87 100 98 100 100 91 81 61 66
5 5 5 5 5 4 5 5 4 4 4 5 5 4 6 7 7 7 9 15 27 38 44 49 55 59 62 55 54 55 56 65 85 90 90 100 100 100 99 100 100 100 94 62
5 5 5 5 5 5 5 5 5 5 4 5 5 5 8 9 9 10 14 20 36 44 52 60 62 62 60 68 71 64 57 56 71 89 88 89 100 100 100 100 100 100 91 77
5 5 5 5 5 5 5 6 5 5 5 6 6 5 8 12 15 13 15 24 32 39 50 52 56 58 69 74 74 72 71 60 56 64 79 95 100 96 99 100 95 100 84 87
5 5 6 5 6 5 5 6 5 5 5 6 6 6 9 15 20 21 23 30 36 50 54 55 60 68 62 68 64 64 67 68 70 72 79 86 90 93 99 99 100 92 90 76
5 5 6 6 6 5 5 6 6 5 6 7 7 7 10 18 24 32 35 43 50 54 58 64 75 80 87 87 85 90 80 79 78 75 68 67 72 85 89 91 96 88 84 79
5 5 5 6 6 5 5 6 6 6 6 7 9 8 11 21 28 36 36 44 51 57 65 67 72 76 78 77 77 71 77 82 74 71 66 72 78 78 73 81 91 80 74 81
5 5 4 5 6 6 5 6 6 6 6 8 9 10 11 17 27 36 46 47 52 48 59 64 68 74 74 85 75 68 70 78 77 74 68 76 78 80 85 91 89 83 93 100
5 4 4 5 6 6 5 6 7 7 7 7 9 11 10 17 28 37 46 61 64 64 55 60 66 75 75 90 93 85 87 92 93 94 97 100 100 100 100 100 100 100 100 100
5 4 4 4 5 5 5 6 7 7 7 7 10 12 11 17 24 48 50 55 66 72 69 74 74 90 98 100 100 100 100 100 98 99 100 100 100 100 100 100 99 97 92 86
4 4 4 4 5 5 5 6 7 7 7 7 9 12 12 13 24 40 52 52 59 68 73 81 85 88 90 100 100 99 99 100 100 96 97 98 100 96 96 81 72 80 86 95
4 4 4 4 4 4 5 5 6 7 7 7 9 11 13 10 20 33 43 59 61 67 80 82 84 89 90 98 100 98 100 95 93 86 82 75 71 69 72 76 82 79 68 71
4 4 4 4 5 5 5 5 6 6 7 7 10 11 12 10 15 29 54 60 75 67 72 85 87 90 93 92 96 95 93 94 83 75 68 68 76 82 76 71 70 64 66 67
4 4 4 4 5 5 5 6 6 7 7 8 9 12 11 9 12 21 43 78 74 80 71 77 86 85 85 93 92 85 93 97 79 74 73 79 86 87 84 80 73 64 76 87
4 4 4 4 4 5 5 6 6 7 7 8 10 11 10 8 11 16 32 62 88 90 80 78 83 85 89 89 84 92 93 87 78 85 80 87 85 90 94 86 81 79 84 98
4 4 4 4 4 5 6 6 6 7 7 7 10 10 9 8 11 16 18 35 76 99 93 84 92 89 89 87 86 100 88 91 83 92 81 92 98 100 100 98 90 84 99 100
4 4 4 4 5 5 6 6 7 7 7 8 10 10 9 8 12 18 19 27 50 78 85 92 89 96 98 92 85 99 94 96 94 97 85 98 99 100 100 100 94 96 100 100
4 4 4 4 5 5 6 7 7 7 7 8 10 10 9 10 13 17 20 21 34 48 69 76 80 93 100 100 86 92 93 89 97 100 90 99 99 100 100 100 88 94 100 99
4 4 4 5 5 6 6 7 8 8 8 9 11 10 10 11 14 16 18 20 22 27 36 48 73 88 100 94 79 100 97 93 86 92 92 92 100 97 100 100 100 94 93 99
4 5 5 5 5 6 7 8 8 8 9 10 11 11 12 14 17 19 21 23 24 24 26 28 35 43 60 84 78 84 92 90 88 86 89 90 96 100 100 100 100 99 91 89
6 6 6 6 6 7 8 8 8 9 11 11 12 12 14 18 20 22 22 23 23 24 24 24 23 25 30 35 49 53 73 88 90 92 96 92 92 99 100 100 100 93 91 89
7 7 7 7 7 8 9 9 10 10 12 12 13 15 16 21 24 24 24 26 27 30 28 26 26 24 22 22 24 32 46 69 88 96 99 98 99 100 100 100 98 99 94 91
8 9 8 8 9 10 10 10 12 12 14 14 15 17 20 24 26 27 32 31 38 48 53 54 58 52 45 33 25 22 26 40 66 91 98 100 100 100 100 100 100 100 92 85
9 10 9 10 12 12 12 14 13 14 14 16 17 19 25 30 36 50 65 75 75 76 70 70 71 60 49 41 40 35 26 27 41 66 92 100 100 100 100 100 100 100 95 95
11 12 11 11 13 14 15 16 15 16 18 20 20 22 30 39 70 82 91 88 84 87 76 74 77 80 76 71 57 47 37 31 33 44 68 94 100 100 100 100 100 100 100 97
13 15 12 13 16 16 17 18 18 18 20 23 23 27 34 49 76 95 97 92 91 97 91 90 91 93 95 100 84 64 45 41 39 40 47 74 100 100 98 93 97 100 100 91
14 14 13 16 19 19 20 21 20 22 23 24 26 30 35 51 75 97 98 95 90 93 100 100 100 100 100 100 97 83 60 52 49 49 51 58 96 100 100 100 100 100 100 98

GFSNW_250_rhum_069.txt.gz
RH
8 7 5 5 5 5 4 5 5 5 5 4 4 4 5 6 6 6 6 8 8 16 34 44 42 39 38 38 36 35 38 42 53 54 40 43 67 63 73 88 84 58 54 74
7 7 5 5 5 5 4 5 5 5 5 5 4 5 5 8 8 8 10 13 26 28 28 32 42 41 36 43 47 52 67 72 75 54 42 55 65 80 62 81 72 73 72 63
7 6 5 5 5 5 4 5 5 5 5 5 5 6 5 9 11 12 14 19 26 38 45 42 43 47 47 46 50 64 81 96 79 65 56 61 64 60 62 66 82 76 66 55
7 6 5 6 5 5 4 4 5 5 6 5 5 6 6 10 14 15 19 23 33 39 44 42 49 54 54 52 50 56 60 82 88 74 79 82 97 100 93 82 87 78 72 69
6 5 6 6 5 4 4 4 5 5 6 5 5 6 6 11 17 20 22 22 34 37 47 54 56 61 66 64 62 62 64 61 80 95 96 98 98 100 100 100 97 79 89 88
6 5 6 5 5 4 4 4 5 5 6 5 6 7 8 9 18 25 28 33 35 44 50 52 57 60 66 83 85 87 90 83 73 70 81 96 94 100 100 100 100 100 100 100
7 6 5 5 4 4 4 4 5 5 6 6 6 7 8 9 18 25 35 37 43 46 52 51 55 63 69 70 71 72 75 78 76 77 74 81 86 92 97 98 100 99 95 95
8 6 5 5 4 4 4 4 5 5 6 7 7 7 9 10 16 28 33 43 47 46 50 54 56 68 67 66 68 67 76 79 74 73 76 79 91 90 93 95 96 89 85 83
6 6 5 4 4 4 4 4 5 5 6 7 7 8 11 12 13 26 42 45 56 62 64 61 62 62 69 66 68 77 79 74 72 76 86 84 81 81 85 84 86 84 85 95
6 5 5 4 4 4 4 4 5 6 6 7 7 8 10 13 13 20 40 49 56 62 67 81 74 72 76 75 88 91 89 88 85 88 90 92 94 99 100 97 100 99 100 100
5 5 4 4 4 4 4 4 5 6 7 7 7 8 10 13 14 18 30 48 53 60 64 74 73 78 79 89 97 100 100 100 100 100 100 99 99 100 96 100 93 100 100 100
4 4 4 4 4 4 4 4 5 5 7 8 7 8 10 13 16 14 28 42 64 72 68 68 71 79 86 95 98 98 100 99 100 99 100 100 100 99 98 100 100 100 95 88
4 4 4 4 4 4 4 4 5 6 7 8 8 8 10 13 16 13 17 41 70 74 80 77 76 76 84 90 98 100 100 100 100 100 100 100 98 87 87 90 84 88 92 91
4 4 4 4 4 4 4 4 5 6 6 8 8 8 9 12 16 14 13 26 56 75 85 80 83 85 88 88 89 96 100 100 99 99 90 82 73 73 71 78 80 77 77 68
4 4 4 4 4 4 4 4 5 5 6 8 8 8 9 11 15 15 11 14 33 67 81 84 87 94 97 93 92 99 94 100 99 95 74 72 74 80 84 83 78 71 65 66
4 4 4 4 4 4 4 4 4 5 6 8 8 8 9 11 14 14 10 14 20 45 79 93 88 91 93 94 92 100 95 100 100 96 74 77 84 84 84 82 76 74 75 84
4 4 4 4 4 4 4 4 5 6 6 8 8 9 9 11 14 11 10 13 18 28 67 91 91 96 100 99 96 93 95 94 100 94 79 84 85 89 88 85 84 90 88 94
4 4 4 4 4 5 5 5 6 7 7 9 8 8 10 13 12 10 10 15 20 23 41 65 88 100 100 99 77 92 99 91 99 99 83 93 92 94 98 100 99 99 98 100
5 4 5 5 5 5 5 6 7 7 8 8 8 9 11 12 11 10 12 17 19 23 28 39 67 93 100 88 74 91 98 93 85 99 91 88 99 96 100 100 100 100 92 84
5 5 5 6 6 6 6 7 8 8 8 8 9 10 12 13 12 12 16 18 20 22 24 33 58 60 75 94 74 74 92 90 87 80 93 91 98 98 96 99 98 99 97 94
5 5 6 6 6 6 7 8 8 9 9 9 10 12 13 14 13 16 18 20 21 24 27 29 31 32 40 53 70 65 73 91 91 83 84 89 95 100 99 98 100 100 100 100
6 6 7 7 7 8 8 10 10 10 10 10 11 13 14 15 14 17 19 22 23 25 25 27 26 26 28 29 31 39 49 59 70 87 93 90 86 97 100 100 100 100 100 100
7 8 8 8 8 9 10 12 11 10 10 11 12 15 15 17 18 21 23 24 25 25 26 28 28 28 27 25 22 21 21 27 43 67 87 93 92 94 97 99 100 100 100 100
9 9 8 9 10 11 12 13 12 11 12 13 15 16 17 20 26 29 31 31 32 31 34 39 47 46 52 43 37 29 21 20 23 35 67 91 96 97 100 100 100 100 100 100
9 10 10 10 11 13 14 15 13 13 13 16 18 19 20 25 33 35 36 39 47 54 62 73 77 72 68 58 49 44 42 32 24 25 31 62 92 100 100 100 100 100 100 100
10 10 10 10 13 15 16 17 16 15 16 18 20 21 25 32 38 40 53 76 86 86 80 83 89 90 89 85 94 90 68 49 35 27 27 36 73 99 100 100 100 100 100 100
10 10 10 11 16 19 20 20 18 18 19 21 21 23 28 37 50 73 84 92 92 93 87 88 97 100 100 100 98 95 95 74 56 45 35 34 49 86 100 100 100 100 100 100

GFSNW_250_rhum_072.txt.gz
RH
26 12 6 6 6 5 5 5 4 4 4 5 5 5 5 5 7 7 7 6 7 9 16 27 34 38 38 35 31 32 29 31 32 30 30 31 28 28 26 27 32 28 28 35
20 12 7 6 6 6 5 4 4 4 4 5 5 5 5 5 8 8 9 11 19 24 26 34 40 35 34 36 36 34 36 42 40 41 49 56 60 44 35 41 34 40 48 50
21 14 9 6 6 6 5 4 4 4 4 5 5 6 6 6 8 12 12 16 21 29 37 40 42 46 45 40 41 44 42 38 43 51 48 50 53 58 68 53 75 60 55 65
27 13 8 7 7 6 5 4 4 4 4 5 5 6 6 6 11 15 15 18 24 27 32 36 43 47 54 54 46 44 51 58 64 73 67 65 66 61 66 80 74 98 96 92
28 17 9 7 7 6 5 4 4 4 4 5 6 6 7 7 11 16 21 22 26 32 39 45 48 50 54 62 70 77 73 73 93 89 92 68 50 48 49 59 74 92 96 100
18 14 9 8 7 5 5 4 4 4 5 5 6 6 6 8 11 19 26 29 32 37 42 44 44 50 51 53 65 83 90 99 97 90 78 70 67 64 61 52 53 77 91 99
23 16 10 7 7 5 4 4 4 4 5 5 6 6 7 8 10 17 27 34 37 44 45 49 52 56 56 60 63 66 74 72 80 78 91 86 82 81 84 80 68 76 94 100
13 14 8 7 7 5 4 4 4 4 5 5 6 6 7 9 11 15 25 36 44 47 50 46 46 52 61 66 68 70 69 73 77 82 81 81 88 81 86 97 94 94 92 95
13 8 7 6 6 4 4 4 4 4 5 5 6 7 7 8 11 15 21 38 50 57 60 66 66 62 66 69 76 77 74 74 77 80 91 94 82 81 80 80 91 98 100 100
8 8 7 6 5 4 4 4 4 4 5 5 6 7 8 9 10 13 19 38 49 58 62 64 75 74 81 81 80 80 84 84 81 85 87 87 88 86 88 88 82 84 86 91
7 8 6 5 5 4 4 4 4 4 5 5 6 7 8 9 10 13 16 29 46 61 72 67 71 81 78 81 80 96 98 95 96 96 90 90 91 94 95 95 96 94 100 100
6 7 5 5 4 4 4 4 4 5 5 6 6 7 8 9 11 13 16 20 40 59 77 75 69 75 75 81 84 82 90 96 100 96 100 100 100 98 100 100 100 100 100 100
6 6 4 4 4 4 4 4 4 5 6 6 6 6 8 10 10 13 17 16 24 54 72 82 78 72 76 81 86 87 85 94 100 100 100 100 94 99 99 100 100 97 100 98
7 5 5 4 4 4 4 4 4 5 6 6 7 7 8 10 11 13 17 17 19 38 64 80 86 81 79 84 86 85 89 94 96 95 92 88 92 90 86 87 88 92 95 90
6 5 4 4 4 4 4 4 5 5 6 6 7 8 8 10 11 12 16 18 16 22 52 75 90 88 86 89 96 96 93 99 96 97 92 94 94 87 85 88 91 85 80 83
5 5 4 4 4 4 4 5 5 6 6 7 8 8 10 10 11 12 14 18 17 17 30 67 87 100 96 90 92 93 94 98 100 100 96 100 85 75 79 82 83 80 68 68
6 5 4 4 4 4 5 5 6 6 6 7 8 8 9 11 12 12 13 17 16 13 26 46 73 99 98 100 95 92 89 95 100 100 97 99 85 80 82 93 85 75 73 73
6 5 5 4 5 5 6 5 6 6 7 8 8 8 9 11 12 13 15 15 13 12 16 31 54 97 100 96 71 97 99 96 93 100 99 100 82 89 97 92 89 84 80 81
6 5 5 5 5 6 6 6 6 7 8 9 8 8 9 12 12 12 14 14 11 11 15 23 44 83 96 74 74 95 100 89 87 93 93 96 86 98 100 98 92 91 89 90
6 5 5 6 6 7 7 6 6 7 8 9 8 10 12 11 13 14 13 13 12 13 16 19 38 56 66 78 70 80 98 98 79 88 94 90 91 91 100 100 100 100 98 95
6 6 6 6 7 7 7 7 7 9 10 10 10 10 11 12 13 14 14 13 14 18 20 22 26 31 56 61 70 67 82 98 91 80 83 95 92 96 95 98 100 100 100 100
6 6 6 7 8 8 8 8 8 10 11 10 10 11 12 12 14 15 14 15 17 20 20 22 23 29 39 55 57 64 60 71 83 79 78 79 86 96 93 97 97 98 100 100
6 7 7 8 8 8 8 8 10 10 11 11 11 12 13 14 16 16 17 19 22 22 23 23 25 29 32 38 40 40 42 45 53 56 65 76 74 74 85 94 97 95 97 100
7 7 8 8 8 9 9 10 11 11 12 13 13 14 15 16 18 21 21 23 25 28 28 28 28 28 30 29 28 26 24 22 21 28 43 65 73 78 80 79 87 94 97 99
8 7 8 8 8 9 10 11 12 12 12 13 13 15 16 19 22 24 25 28 29 28 28 30 32 33 35 35 40 42 35 25 20 20 22 33 55 73 81 88 94 97 100 100
8 7 7 8 10 11 12 12 13 13 14 15 14 16 19 22 25 26 27 32 32 31 39 44 51 65 77 79 73 60 50 44 40 36 26 22 25 42 68 85 94 100 99 100
8 8 9 9 11 13 14 15 17 16 17 16 18 19 23 25 25 27 33 36 40 46 58 74 83 83 82 80 78 78 82 75 64 56 50 39 28 30 48 78 97 100 100 100

GFSNW_250_rhum_075.txt.gz
RH
38 55 62 48 21 9 4 4 5 5 4 4 4 4 5 5 6 8 10 9 12 8 13 17 13 14 19 22 19 20 26 23 26 26 24 26 23 23 21 20 19 18 17 18
56 52 44 39 24 10 4 3 4 5 4 4 4 4 5 6 7 10 11 11 15 17 20 22 27 29 32 32 32 31 33 37 32 35 32 36 37 36 33 27 23 22 21 21
48 85 68 47 20 10 4 3 4 4 4 4 4 4 6 6 7 10 12 16 20 21 29 32 35 36 40 41 41 42 45 45 46 42 44 45 48 43 43 43 38 29 28 27
48 73 71 50 29 8 5 3 4 4 4 4 4 5 6 7 7 11 13 17 23 30 30 33 41 44 47 49 46 48 49 53 56 53 55 65 63 62 55 48 41 39 36 33
56 76 71 31 21 8 6 4 4 4 4 4 5 5 6 7 7 12 17 21 24 32 38 39 34 41 46 46 56 56 59 60 68 78 84 70 77 76 79 75 56 63 64 45
68 56 50 40 24 10 5 4 4 4 4 4 5 5 6 8 8 11 16 23 29 32 38 46 51 46 44 49 50 51 60 76 86 88 91 79 74 71 65 65 90 78 92 100
68 59 30 34 15 13 6 4 5 4 4 4 5 5 6 8 8 11 18 26 34 40 44 46 51 59 66 62 53 51 54 60 68 66 70 78 81 72 61 61 71 83 85 96
52 49 48 25 16 9 6 4 4 4 4 4 5 6 6 8 8 10 19 28 39 43 48 48 50 55 61 65 70 66 65 61 64 70 78 88 84 91 90 88 82 84 92 89
42 45 33 28 18 9 5 5 4 4 4 5 5 6 6 7 9 11 16 27 46 48 50 58 63 60 59 65 73 73 76 84 81 79 78 83 80 80 82 83 88 90 90 100
38 44 50 18 15 8 5 5 4 4 5 5 5 6 6 7 9 10 13 26 45 56 62 67 73 79 75 73 80 85 88 86 89 87 83 80 82 77 76 79 76 85 94 99
28 41 30 41 11 8 4 4 4 4 5 5 6 6 7 8 9 10 13 21 36 58 70 71 71 71 84 87 84 89 95 96 94 96 95 89 76 75 83 82 86 91 100 100
41 60 36 21 14 6 4 4 4 4 5 6 6 7 7 8 9 10 12 15 23 38 63 76 71 71 78 83 85 89 90 96 100 97 96 87 88 86 84 88 91 95 99 98
45 65 39 25 9 5 4 4 4 5 5 7 6 7 7 8 10 10 12 15 19 25 50 75 79 70 78 83 87 91 80 82 92 93 94 98 100 100 99 94 92 96 99 100
49 37 20 15 6 5 5 4 5 5 6 7 7 7 7 8 9 11 13 13 18 18 32 69 84 81 78 86 85 83 81 85 89 91 98 100 100 99 98 97 99 98 99 97
41 46 28 18 6 5 5 5 5 5 7 7 7 8 8 8 10 12 13 14 15 20 25 49 82 85 82 82 82 87 84 85 96 100 99 100 96 93 100 100 98 96 97 94
28 21 57 44 7 5 5 5 5 6 7 8 8 8 8 9 10 12 13 16 16 22 20 30 65 90 88 85 87 87 88 89 95 96 94 96 93 93 90 87 89 92 94 96
29 20 46 25 7 6 5 5 5 6 7 8 9 8 8 9 10 12 14 15 16 20 24 20 37 76 88 91 82 95 97 98 97 97 92 98 96 91 88 88 94 94 95 92
25 22 26 8 7 6 6 6 6 7 8 9 9 9 9 10 11 12 14 15 16 20 24 22 20 64 82 88 75 100 100 100 100 100 98 99 98 90 85 78 80 87 84 81
32 64 8 8 7 7 6 6 6 8 8 9 8 9 10 10 12 14 14 15 16 20 23 20 18 34 83 51 70 96 100 98 100 100 100 98 100 93 88 82 86 89 84 69
62 18 8 8 6 7 6 6 7 8 9 9 9 10 10 12 14 16 16 16 18 21 19 16 16 17 38 40 51 76 98 96 92 99 100 96 95 95 88 88 100 91 83 82
61 10 8 7 7 7 6 6 7 9 9 10 11 11 12 14 14 15 17 18 18 19 15 14 14 12 18 53 48 61 82 92 86 80 92 95 95 100 84 90 97 96 96 93
12 9 9 7 7 7 6 7 8 8 10 11 11 12 13 14 15 17 17 17 17 16 15 14 13 16 21 45 60 60 66 77 88 79 72 81 87 89 94 80 90 93 97 95
10 9 8 7 7 7 7 8 8 9 10 12 12 12 13 14 15 16 17 19 17 17 17 17 17 20 23 33 50 63 72 73 70 75 73 71 73 72 82 89 82 87 91 92
9 8 8 7 7 7 7 8 9 10 11 12 12 13 14 15 16 17 19 19 20 19 19 19 22 24 24 30 37 41 53 65 69 69 73 70 69 73 72 76 87 86 89 98
8 8 8 6 7 8 8 9 10 11 12 12 12 13 14 15 17 19 19 20 20 19 19 23 26 26 26 27 29 31 30 31 32 30 32 43 57 67 71 76 80 82 88 90
7 7 6 6 7 8 9 10 10 12 14 14 14 14 16 16 19 20 19 20 21 21 24 29 29 30 30 30 30 30 29 28 24 22 21 21 22 26 40 57 71 82 86 87
6 6 5 5 7 9 10 11 12 13 15 16 17 16 18 20 19 20 20 21 25 26 31 31 31 30 31 33 37 44 49 57 56 47 42 36 25 22 23 28 45 66 78 90

GFSNW_250_rhum_078.txt.gz
RH
30 33 41 54 68 98 60 41 20 8 3 3 3 4 4 4 5 5 8 10 10 9 9 13 11 12 17 20 18 16 17 20 19 29 29 27 27 25 27 24 22 18 15 15
30 35 38 59 58 81 94 55 21 7 4 3 3 4 4 5 5 6 8 12 14 13 14 17 21 19 22 21 24 24 29 24 29 32 32 32 33 30 28 25 24 21 19 19
29 32 43 60 63 66 77 45 18 8 4 3 3 4 5 5 6 7 10 11 15 17 18 20 27 28 29 31 37 44 46 46 42 44 49 41 40 37 32 31 30 26 26 21
26 31 41 55 73 92 82 52 14 9 3 2 3 4 5 5 6 7 10 12 16 18 24 26 26 32 32 36 44 48 56 56 56 59 61 65 66 66 60 50 39 35 38 28
28 26 41 54 74 89 57 29 12 6 4 2 3 4 5 6 6 8 10 16 18 24 25 31 35 34 36 42 45 56 68 67 70 80 77 87 92 79 70 66 66 61 39 34
28 25 39 50 81 91 77 58 12 5 4 3 3 4 5 6 7 8 10 17 21 28 33 36 39 42 44 45 48 53 68 77 91 88 92 97 86 90 92 83 82 73 70 61
26 25 38 61 72 76 56 36 30 10 5 4 3 4 5 6 7 8 10 15 24 30 37 40 44 45 46 49 50 49 55 71 84 78 88 88 89 84 87 94 90 83 84 72
21 28 31 52 71 64 50 39 18 9 5 5 4 5 5 6 7 8 10 13 21 36 37 40 46 48 52 51 56 58 56 59 62 71 83 85 94 88 89 85 78 76 81 72
21 24 24 56 59 57 50 32 18 10 5 5 5 6 6 6 7 8 9 12 17 34 40 42 44 49 51 52 59 68 71 70 65 64 75 94 83 87 83 78 74 76 75 80
19 25 35 50 43 66 44 38 17 7 4 5 5 6 7 7 7 8 10 11 19 24 43 47 50 59 65 70 74 79 76 76 78 77 78 75 77 79 82 92 85 82 83 86
18 21 24 42 53 50 39 30 20 6 5 5 6 6 8 8 8 8 10 11 13 24 41 55 61 62 70 76 82 87 85 85 82 83 79 81 80 82 86 85 95 97 90 84
9 22 25 35 59 46 47 37 16 5 5 5 6 7 8 8 8 8 10 12 14 19 35 53 65 72 75 83 88 88 94 89 92 90 89 82 80 79 88 92 89 92 98 100
12 17 25 42 42 34 41 25 11 5 5 5 6 7 7 8 9 8 10 12 15 18 24 42 70 77 80 80 78 86 85 82 86 87 88 90 90 93 88 87 96 99 91 93
9 17 24 32 32 33 36 30 11 6 6 5 7 7 8 8 9 10 10 10 14 17 21 31 53 75 72 76 76 77 86 83 76 82 79 88 88 90 97 98 98 96 98 99
11 16 14 29 41 47 43 32 6 6 6 6 7 7 8 8 9 11 11 11 12 16 20 25 40 58 73 74 74 80 90 93 82 74 82 87 87 99 100 100 100 97 90 92
10 15 16 25 37 44 30 22 6 6 6 6 7 7 9 8 9 10 11 13 13 16 20 26 29 46 62 75 76 78 98 100 98 89 94 98 100 100 100 100 100 100 98 96
34 16 12 24 35 33 43 8 7 6 6 7 7 8 9 8 9 10 13 13 14 16 20 24 26 30 53 68 74 88 99 100 100 99 100 100 100 100 100 100 100 99 99 100
13 14 17 24 33 47 61 9 8 6 7 7 7 8 9 9 9 10 12 13 15 16 18 21 25 28 34 61 56 98 94 100 100 100 100 99 100 100 100 100 94 93 94 96
25 11 25 34 37 29 44 9 8 7 7 7 8 8 9 10 10 12 13 14 16 17 19 19 24 28 30 24 57 79 83 96 100 100 100 98 96 98 96 96 94 93 96 90
14 15 14 28 34 36 10 9 8 8 7 8 8 8 9 10 11 13 15 15 17 18 17 19 26 28 26 27 28 76 75 74 89 97 100 97 90 91 92 87 86 83 79 80
25 14 13 38 37 19 10 9 8 7 7 8 8 9 10 11 12 14 15 16 17 19 17 20 24 26 23 26 22 21 68 70 62 72 87 94 92 89 89 88 86 80 76 79
24 19 23 33 46 19 10 8 8 7 8 8 9 10 11 10 12 13 16 17 18 20 17 20 26 17 20 19 17 18 38 95 89 73 71 84 92 91 90 90 88 86 80 85
21 12 20 21 30 11 9 8 8 7 8 9 9 11 13 12 12 14 16 18 19 19 22 22 21 18 16 14 13 14 21 86 93 88 86 81 79 88 88 88 86 90 88 96
16 14 14 18 14 9 8 7 7 7 9 10 10 12 12 14 16 16 18 18 20 23 21 20 19 18 17 17 17 17 19 36 81 94 85 82 80 79 79 79 84 87 91 92
12 12 14 12 12 9 7 6 7 8 9 10 11 12 12 14 17 18 21 22 23 20 18 18 21 21 21 22 23 22 23 29 42 62 80 81 80 79 79 82 82 79 80 87
8 14 10 12 10 7 6 6 6 7 10 11 12 13 14 16 17 20 22 22 20 18 18 21 26 26 26 25 25 26 27 32 39 42 40 37 42 54 66 71 74 79 82 81
10 10 10 10 7 6 5 6 6 8 10 11 13 14 16 18 20 22 21 20 19 20 20 26 28 28 27 28 30 30 30 32 33 33 31 29 27 25 26 28 34 47 63 76

GFSNW_250_rhum_081.txt.gz
RH
49 45 28 25 30 45 42 49 37 41 30 16 6 3 4 4 4 4 5 7 9 11 9 8 7 8 10 10 8 9 9 9 12 18 21 19 19 18 18 33 30 22 18 17
48 37 26 21 34 39 53 53 37 40 25 12 6 3 4 4 5 5 6 7 9 12 11 12 12 9 12 17 16 15 13 12 13 13 14 14 15 18 29 37 32 28 25 26
45 34 20 24 30 44 62 53 56 40 21 12 6 4 3 4 5 5 6 7 11 14 16 16 18 21 19 20 27 29 29 27 21 25 28 28 28 28 33 37 38 34 34 29
45 23 20 27 35 52 45 54 54 30 18 11 5 4 4 4 5 6 7 8 12 14 16 20 21 26 27 28 33 38 40 48 46 40 41 42 43 44 44 43 44 43 37 31
37 17 22 36 45 39 45 44 56 32 19 10 6 4 3 4 5 6 6 9 13 16 20 24 23 24 29 32 38 45 53 64 70 83 66 57 57 62 62 56 54 59 45 37
26 13 21 31 40 39 43 39 40 32 15 9 5 4 4 4 6 6 7 8 12 18 23 27 29 30 32 34 40 46 51 60 69 82 93 92 86 80 80 68 51 55 50 39
18 12 22 22 31 37 46 44 24 24 16 8 6 3 4 5 6 6 8 9 11 17 25 28 33 36 35 39 40 48 59 68 76 90 99 99 98 92 95 95 87 85 70 49
20 13 22 26 24 39 41 62 53 43 14 6 5 3 4 5 6 7 8 9 11 13 23 30 36 42 44 42 45 51 59 60 68 74 89 98 96 94 92 98 98 88 82 62
14 11 18 23 31 38 39 49 59 41 11 10 5 4 4 5 7 7 8 10 10 13 20 28 34 38 46 52 53 53 55 62 57 72 71 76 93 87 83 84 89 83 76 68
15 12 18 22 29 32 40 56 57 20 12 7 6 5 5 6 7 8 8 9 12 14 22 29 35 39 42 49 54 56 61 58 65 70 61 58 60 64 65 75 66 68 69 63
15 9 15 24 23 33 41 57 54 29 18 7 5 5 5 6 8 8 9 10 12 15 18 31 40 44 45 51 54 58 61 68 69 76 72 74 69 67 74 74 71 74 72 67
15 11 12 31 21 27 45 49 45 38 14 6 5 6 6 7 8 9 8 10 12 16 20 28 41 56 57 59 56 65 76 78 78 73 77 79 79 76 83 82 75 78 76 81
15 12 13 27 32 34 37 39 44 28 9 6 6 6 6 7 7 9 8 10 11 14 18 23 37 53 61 66 70 72 76 82 87 85 81 78 76 80 81 86 82 83 88 92
19 11 14 22 33 35 41 40 35 25 10 6 6 6 7 7 8 9 9 10 10 13 16 20 27 43 49 67 73 78 85 83 85 84 80 80 77 85 81 82 85 92 96 100
23 16 14 17 33 30 43 30 39 23 12 6 6 6 7 8 8 9 10 11 11 14 16 19 25 32 45 54 68 85 86 90 83 81 86 78 91 95 97 96 98 97 91 94
35 20 15 17 25 53 53 36 34 24 13 8 7 6 7 7 9 11 10 10 11 13 15 18 22 30 36 58 74 82 92 90 87 90 95 84 86 94 98 97 96 96 96 94
31 24 20 17 31 43 38 46 45 28 15 7 7 6 7 8 10 11 9 10 12 14 16 17 20 26 33 38 69 77 88 91 96 98 98 90 90 96 92 96 97 96 96 97
36 29 27 17 28 34 40 36 42 31 15 7 7 7 8 8 9 11 11 12 13 14 15 16 19 24 28 23 50 71 82 85 94 96 99 94 94 97 92 91 93 92 91 92
30 33 38 35 32 49 42 39 44 30 18 7 7 7 8 8 10 10 11 13 15 15 15 16 20 23 25 21 33 63 70 76 79 91 92 90 92 91 93 94 90 88 90 91
38 34 40 48 74 43 25 46 36 52 20 8 7 7 8 9 10 11 11 12 16 17 16 18 21 20 19 21 29 36 55 69 82 75 78 74 78 84 86 87 87 86 85 86
43 56 49 40 32 40 35 30 43 52 12 8 7 7 8 9 11 12 12 13 15 16 17 21 21 16 21 24 25 30 33 33 49 75 76 71 71 74 86 92 90 88 86 84
72 57 53 44 44 45 33 53 50 36 9 8 7 7 9 10 11 13 13 15 16 17 18 22 18 16 20 25 26 27 30 34 36 40 85 92 81 80 86 92 96 91 88 84
53 55 48 49 47 42 61 29 51 37 10 8 6 7 9 10 10 12 16 18 19 18 18 18 15 20 21 23 27 28 27 25 24 30 50 87 99 93 90 94 95 93 92 90
61 50 50 48 46 44 28 48 63 11 10 7 6 7 9 11 11 12 16 20 20 21 18 18 19 18 21 21 21 20 18 16 16 19 30 65 80 98 100 91 92 94 96 94
64 54 39 43 30 46 83 64 55 13 10 6 5 6 8 11 12 14 16 19 21 22 21 18 18 24 23 23 22 20 20 18 16 16 22 53 77 83 85 93 94 94 95 96
64 50 40 24 32 45 71 65 47 10 9 5 5 6 8 11 12 15 18 20 21 20 19 18 25 27 24 23 22 22 24 24 22 21 25 52 82 82 82 84 84 86 88 93
45 36 36 20 21 41 68 33 11 9 7 4 4 6 8 11 13 15 18 20 20 20 22 21 29 26 23 24 24 26 27 27 27 27 29 34 41 47 56 65 70 73 75 77

GFSNW_250_rhum_084.txt.gz
RH
65 49 51 57 38 25 36 56 48 19 15 26 10 10 8 5 4 3 4 4 5 9 11 9 7 6 5 5 6 6 7 8 7 13 13 14 12 15 14 18 27 22 22 27
58 46 51 57 32 26 37 55 68 22 19 26 18 7 8 6 4 3 5 5 6 11 14 12 11 8 7 7 6 7 8 8 10 10 12 13 11 12 15 17 19 21 21 36
54 45 50 51 28 26 36 58 77 53 26 16 16 9 9 8 5 4 5 6 6 10 16 15 15 14 10 11 10 9 9 10 11 20 28 34 30 19 20 22 28 45 48 50
50 44 50 46 25 25 35 67 72 89 38 25 16 10 9 7 4 4 6 6 7 10 17 21 18 20 18 16 18 16 13 13 14 15 17 20 20 23 28 39 56 49 52 50
47 42 52 46 32 26 37 51 69 88 53 36 22 12 10 6 5 5 6 6 7 11 18 23 26 24 25 18 24 35 32 30 23 24 25 24 25 30 30 40 46 61 58 51
44 40 44 46 31 25 30 41 51 60 59 43 23 12 8 6 5 5 6 7 8 10 20 24 28 27 28 29 28 34 42 36 42 45 42 44 45 47 49 51 59 67 54 46
33 38 47 45 34 25 27 33 55 57 73 54 29 15 8 6 6 5 6 8 8 11 16 23 30 33 31 35 39 46 59 63 56 60 65 71 72 64 67 74 82 76 59 49
31 38 45 41 36 31 27 26 47 54 49 50 33 16 10 6 6 6 7 8 9 9 15 22 29 38 33 34 40 45 52 62 73 82 83 78 82 88 93 89 78 74 67 65
32 36 39 39 36 30 27 27 44 56 67 48 33 14 12 6 6 7 8 8 9 9 14 21 27 34 38 40 39 45 49 57 62 77 77 88 93 90 84 86 93 86 87 78
40 32 33 37 37 31 28 35 49 73 79 54 30 16 10 6 6 7 8 9 10 10 12 16 26 36 39 43 45 43 47 52 59 63 75 81 79 77 78 85 78 81 77 70
40 33 31 25 27 28 25 33 46 63 74 52 30 18 10 7 5 6 7 9 11 11 11 14 23 33 41 42 49 53 53 54 54 54 56 64 69 68 74 67 66 65 59 55
44 36 34 22 26 31 26 32 42 61 59 57 30 16 8 7 6 6 7 10 11 12 12 16 22 29 41 45 50 55 62 65 69 63 59 62 56 58 66 63 66 70 68 65
44 45 35 29 24 24 28 31 43 56 57 46 37 18 8 6 6 7 8 10 12 13 12 15 22 25 36 52 56 59 64 65 73 72 69 65 64 65 67 72 77 89 87 85
54 47 36 34 24 23 23 29 34 60 59 65 42 16 9 6 6 7 8 9 12 14 14 15 17 21 32 48 56 65 67 71 74 70 70 78 80 76 71 72 78 86 90 92
58 48 42 36 27 18 24 28 32 47 62 56 46 16 10 7 7 7 8 10 12 13 14 15 18 22 27 36 48 68 76 81 87 94 92 88 85 84 86 90 95 98 98 92
69 51 53 40 24 15 22 27 36 63 52 71 34 41 16 8 7 8 8 10 12 13 14 16 18 22 26 33 38 61 66 74 81 88 89 85 88 91 84 83 88 93 98 99
74 60 61 39 24 16 20 19 42 68 46 67 62 37 26 8 8 8 9 10 12 14 14 15 17 20 23 30 42 50 64 74 81 84 84 81 86 83 82 87 90 90 92 93
73 68 62 37 24 16 21 24 38 53 55 66 67 46 26 9 8 8 9 10 12 14 14 15 17 19 19 24 33 44 56 75 76 80 78 80 85 90 89 87 91 91 94 96
76 67 66 43 30 28 24 23 37 47 60 63 69 37 25 9 8 8 9 11 12 14 14 16 18 19 16 23 29 37 48 58 73 78 77 76 76 79 91 87 85 80 82 88
70 71 42 40 34 35 21 22 34 68 60 60 57 39 33 10 8 8 9 11 14 15 14 16 17 15 15 21 28 30 33 34 51 75 78 74 66 68 72 84 84 81 83 85
75 63 48 40 36 38 37 43 38 55 81 69 57 72 50 12 9 8 10 10 13 16 18 18 16 15 19 20 23 26 30 31 28 31 53 70 79 78 72 69 76 82 82 84
70 51 47 44 42 35 52 42 37 56 64 80 65 35 21 8 9 8 9 11 14 17 20 21 17 17 18 19 21 22 24 27 31 32 33 35 50 84 91 87 80 81 84 87
72 46 54 43 41 37 34 38 53 63 64 76 48 30 18 8 8 7 10 12 15 16 18 20 16 20 21 20 21 21 22 23 26 30 33 34 35 48 80 90 92 86 87 90
64 60 56 44 44 31 33 34 53 61 82 72 100 64 16 9 8 7 9 13 15 17 17 18 20 20 21 23 23 24 24 25 26 26 26 28 32 30 32 53 82 93 89 91
77 61 63 52 36 32 37 24 59 67 46 78 46 63 8 9 8 6 8 13 15 17 19 20 19 21 24 22 22 24 26 26 24 21 19 17 18 24 28 31 70 86 91 96
76 74 52 42 34 34 35 29 52 53 76 92 70 22 8 8 7 6 7 12 14 17 19 20 21 26 24 22 24 27 26 25 23 22 21 19 17 18 22 25 44 79 90 94
72 58 50 49 38 31 44 31 56 74 78 42 63 8 7 7 6 5 6 11 15 18 20 23 25 25 23 24 27 30 28 27 26 25 25 24 21 22 24 31 45 72 86 89

GFSNW_250_rhum_087.txt.gz
RH
81 81 74 64 58 48 48 44 34 39 36 56 49 36 18 10 7 6 5 6 7 6 5 8 9 8 6 4 4 4 5 5 7 9 14 17 17 21 18 26 30 28 44 41
84 82 69 55 54 46 50 40 32 46 46 59 55 38 15 10 6 6 5 6 8 7 6 9 11 11 8 5 5 6 5 6 6 7 8 9 14 18 19 24 27 29 35 36
76 80 58 60 53 50 51 35 32 40 58 58 50 41 18 10 6 6 6 6 8 9 9 11 15 14 10 8 6 6 7 7 7 12 24 34 27 22 23 27 29 33 36 59
76 65 52 61 54 59 52 34 32 39 50 63 50 40 22 10 8 5 6 6 8 10 10 13 18 17 15 11 8 8 7 8 9 11 10 14 15 17 20 28 34 36 51 72
70 52 59 60 55 56 50 39 32 41 49 57 58 44 26 13 7 5 6 6 9 9 11 18 22 22 20 16 14 10 10 9 11 12 14 12 13 14 16 19 26 33 44 72
51 48 64 68 66 59 50 36 35 39 49 60 56 50 28 13 6 6 6 7 9 10 11 18 22 26 27 23 19 16 14 14 14 17 20 23 23 27 28 32 42 64 84 82
46 49 62 68 63 60 48 39 36 38 53 53 61 51 26 13 7 6 6 6 9 10 10 15 22 27 31 30 29 28 24 27 24 22 27 38 47 41 40 43 56 73 77 62
47 50 61 64 64 58 50 41 39 40 44 63 64 54 39 14 7 6 7 6 8 10 10 13 23 30 34 32 32 34 38 41 46 44 41 37 45 49 53 46 44 50 52 46
48 51 59 63 64 56 50 42 44 34 37 65 60 52 48 18 10 6 7 8 7 10 11 11 18 32 41 40 35 41 39 45 56 57 66 52 48 54 58 59 62 68 63 56
54 48 54 54 52 45 50 48 47 36 38 58 66 66 54 21 12 7 6 8 8 9 11 12 14 29 40 41 43 42 51 50 58 62 78 81 82 81 81 83 87 88 83 81
53 52 50 48 45 46 48 44 46 41 34 48 72 63 54 26 12 8 6 7 9 9 10 12 13 22 40 44 46 46 47 51 58 67 73 84 78 85 93 90 93 92 90 84
64 61 48 38 42 51 36 51 43 38 35 47 61 76 54 36 20 8 7 7 8 10 10 11 13 16 31 43 47 50 54 52 47 50 59 59 63 64 63 67 69 70 69 67
72 60 46 35 38 46 55 56 42 39 30 42 52 67 61 62 29 9 7 8 9 10 11 11 13 15 26 39 46 54 53 56 60 60 57 57 58 58 60 60 62 63 66 72
67 54 44 42 40 38 39 53 43 38 28 36 48 76 63 35 30 14 7 8 10 10 12 12 12 14 21 28 39 54 62 63 61 64 70 79 81 81 79 75 73 68 69 75
75 49 51 46 47 41 33 37 46 38 32 31 45 69 67 42 32 25 14 8 10 11 12 12 14 14 16 23 32 47 60 69 69 72 75 77 76 76 82 84 79 76 76 78
92 66 70 63 44 45 34 46 33 34 25 30 40 73 87 59 37 28 15 8 10 12 14 13 14 15 17 20 28 40 54 69 71 80 83 79 83 84 82 81 86 85 81 79
100 76 87 61 48 46 38 35 34 27 26 29 52 55 65 51 42 31 24 9 9 11 13 14 15 16 18 19 24 32 42 51 62 64 71 81 82 80 84 85 88 92 90 87
99 86 79 65 62 50 49 46 35 24 22 38 52 62 55 60 77 50 20 10 8 11 12 15 16 16 16 20 22 26 32 39 46 52 63 75 86 81 80 76 74 78 86 95
99 81 82 71 67 78 60 50 36 25 31 34 45 48 62 80 61 54 30 11 8 10 11 14 16 14 15 20 20 24 27 32 36 39 44 57 78 82 77 72 68 72 76 86
84 87 82 85 85 79 62 51 36 28 34 35 48 53 70 75 65 59 55 11 9 8 11 13 15 14 18 22 23 24 27 30 30 32 34 36 46 68 80 76 73 73 83 89
92 100 97 96 87 91 67 50 29 23 48 54 44 56 59 86 71 69 41 10 9 8 10 14 14 13 22 24 24 24 24 25 28 30 31 30 29 37 60 85 89 83 83 86
100 100 99 100 98 86 62 49 29 28 45 75 50 58 83 87 60 60 16 9 9 8 9 14 14 14 24 24 26 26 25 26 27 27 29 33 35 36 42 50 79 98 96 92
100 100 100 100 92 72 60 38 34 33 39 58 65 65 73 70 66 51 9 8 8 7 8 11 13 18 21 23 25 26 26 26 27 28 28 29 30 32 34 35 42 64 84 95
100 100 100 98 84 69 51 40 35 43 54 54 83 75 86 91 86 67 28 8 7 7 6 9 15 20 22 23 23 24 26 27 28 30 31 30 28 26 27 30 32 31 48 77
100 100 100 90 76 57 44 41 34 50 36 63 70 86 45 84 58 68 30 8 7 6 6 10 14 18 22 23 24 26 30 31 31 27 26 26 26 26 27 27 27 30 29 40
100 100 89 79 66 46 42 52 47 49 37 60 82 81 73 67 58 30 8 8 7 6 6 9 14 17 23 24 25 28 29 30 28 26 26 27 26 24 22 20 19 21 27 29
99 82 74 62 44 43 47 54 40 38 50 71 84 80 83 53 36 13 6 7 8 6 6 9 14 20 23 23 26 28 30 29 27 28 28 26 25 24 23 21 17 18 22 30

GFSNW_250_rhum_090.txt.gz
RH
92 100 100 100 86 82 57 48 47 43 47 42 67 53 31 14 13 8 8 5 4 4 5 5 7 9 8 5 4 4 5 6 8 9 9 10 10 15 18 22 27 27 28 32
95 100 100 98 92 81 48 45 46 39 44 48 63 60 48 20 17 11 8 6 4 5 6 6 7 8 9 7 4 4 5 6 7 8 10 11 13 18 23 23 28 40 41 44
90 100 100 98 82 68 48 48 41 38 39 50 53 65 64 22 25 11 7 6 5 6 6 6 7 10 11 8 6 5 6 6 7 11 19 24 21 20 25 28 35 41 54 65
88 100 100 98 80 56 51 48 42 34 41 39 47 74 62 28 24 13 8 6 6 6 7 8 8 11 14 11 10 6 6 6 7 11 13 18 28 25 41 50 76 63 75 87
98 100 96 93 71 53 45 46 43 36 45 45 57 74 79 52 26 14 10 6 5 6 8 8 9 13 15 17 12 10 6 6 7 7 10 14 16 14 18 25 39 50 60 41
100 100 100 87 66 59 45 45 42 41 38 46 50 57 68 49 28 14 10 6 6 6 8 9 10 14 16 19 17 14 10 8 8 10 10 12 15 22 30 39 34 40 50 65
95 96 98 80 67 58 53 43 35 41 40 55 49 55 68 58 36 18 11 10 6 7 8 10 10 16 19 20 22 19 16 12 9 10 11 13 20 26 30 39 52 62 60 58
89 95 82 79 75 63 60 40 36 45 44 56 46 55 68 63 42 20 12 12 6 7 8 11 11 13 23 29 26 24 22 20 17 14 14 17 22 30 39 56 58 62 67 67
93 82 77 76 75 71 58 41 36 50 50 58 46 59 65 70 49 25 13 13 7 7 8 12 12 13 23 32 36 31 29 28 28 25 22 18 20 24 28 31 34 51 53 53
86 83 80 64 65 73 53 41 39 43 49 54 52 46 62 59 52 33 16 15 11 7 8 11 13 13 19 33 40 42 38 35 38 40 43 41 42 41 40 42 43 40 47 50
88 86 73 57 60 69 51 45 46 43 47 52 58 45 57 61 54 29 20 15 15 8 9 10 13 14 16 30 48 51 49 46 45 48 57 67 66 73 80 76 68 64 61 63
89 81 59 60 58 60 51 47 52 55 50 50 58 56 48 58 61 34 33 21 14 8 8 10 12 13 16 23 36 50 54 52 55 53 54 60 64 67 64 71 79 83 86 75
87 78 62 66 60 50 58 52 50 52 53 56 63 57 44 50 65 47 36 29 16 9 9 11 13 14 14 16 32 49 55 58 57 58 55 59 64 62 64 66 71 70 71 72
85 71 69 62 58 55 48 64 46 59 48 59 74 65 54 44 66 51 34 31 27 10 8 11 13 14 16 15 21 35 52 65 64 63 64 65 65 67 69 69 68 68 67 71
78 84 68 64 61 50 52 56 54 54 53 66 70 59 65 44 57 71 48 34 27 20 8 9 12 14 16 17 18 23 35 52 68 73 71 69 67 70 77 82 82 78 74 72
92 92 72 68 55 52 53 56 47 55 57 65 54 60 68 52 49 65 61 53 28 22 11 8 11 14 16 18 20 22 28 36 53 62 70 73 75 80 84 84 84 84 84 86
99 80 75 70 64 59 56 52 39 48 52 56 72 66 76 56 50 60 82 84 68 24 11 8 9 13 16 17 21 21 22 28 35 51 68 76 86 91 89 88 93 94 94 90
91 87 94 84 68 64 56 44 40 41 53 50 67 79 78 57 50 59 87 78 74 26 11 10 9 12 14 17 21 22 25 24 26 32 46 57 73 88 95 94 92 90 88 91
100 100 88 80 70 70 54 44 46 41 54 57 65 78 80 64 47 63 65 61 59 34 10 9 9 10 12 18 21 22 24 25 28 29 35 45 53 64 83 93 92 86 83 82
100 97 95 74 69 60 63 62 48 55 65 70 79 76 72 57 48 73 67 75 53 24 15 8 9 8 14 18 22 24 25 26 27 30 31 34 40 47 58 75 92 93 89 85
99 100 100 83 69 70 70 68 64 61 70 66 73 72 71 45 51 69 72 57 50 21 16 7 8 7 15 18 21 23 26 28 27 27 27 29 32 34 39 52 73 97 98 96
100 100 100 91 89 95 87 76 83 79 78 79 68 68 53 40 64 78 64 67 64 19 13 7 7 6 16 19 21 23 24 26 28 28 28 28 30 34 36 38 45 59 84 94
100 100 100 96 95 92 91 88 82 80 79 67 62 62 47 45 73 85 77 76 70 28 9 7 7 7 11 17 20 22 27 28 28 28 29 30 30 31 31 31 32 33 36 56
100 100 96 92 99 100 84 92 84 70 81 74 59 45 43 58 83 78 83 64 56 72 9 7 7 7 8 15 18 21 22 25 28 29 29 28 27 27 27 27 26 26 27 31
100 100 99 99 93 89 93 86 86 84 77 70 57 52 48 68 74 83 55 53 52 40 7 7 7 7 8 13 18 21 24 28 29 31 31 30 29 28 26 25 24 24 25 26
100 100 99 99 97 97 89 89 94 91 81 67 52 44 50 80 86 83 85 72 37 15 7 6 7 7 7 10 18 23 26 28 29 29 30 29 30 28 28 27 26 26 26 25
100 100 98 98 94 96 89 94 91 89 79 53 44 40 65 75 94 92 76 54 23 8 6 5 6 7 6 9 19 24 25 28 29 30 29 29 29 29 29 28 27 25 23 22

GFSNW_250_rhum_093.txt.gz
RH
100 100 96 93 89 80 87 77 66 58 38 35 40 52 48 36 23 10 10 8 6 4 4 5 6 5 6 6 4 4 4 4 5 4 5 6 11 14 15 18 22 25 26 28
100 100 92 92 95 88 85 72 74 51 38 37 42 58 56 46 37 16 11 12 8 5 5 5 6 6 8 7 5 4 4 4 5 5 8 9 16 21 23 23 25 26 28 26
100 100 85 99 100 86 91 72 67 44 38 36 46 59 63 61 48 18 15 11 10 6 5 5 6 5 10 9 8 5 5 5 5 6 8 11 22 29 27 29 32 33 28 26
100 88 97 98 100 86 82 82 56 45 36 37 40 53 76 70 62 26 22 16 12 7 6 6 6 6 8 12 10 7 6 6 5 6 7 9 20 23 26 33 36 37 38 33
100 92 98 100 93 83 84 74 57 43 35 37 35 43 70 79 73 52 18 18 15 9 5 6 7 7 8 13 13 8 6 7 6 7 8 10 17 22 30 35 44 66 67 61
94 100 98 100 94 80 83 74 55 42 37 37 41 39 55 75 79 58 25 18 17 10 8 7 6 8 8 10 15 13 10 7 7 8 9 11 16 23 29 38 50 47 44 34
100 100 100 94 86 70 67 72 52 46 38 39 42 39 60 67 89 68 41 25 18 14 8 7 8 8 8 11 14 17 14 10 9 8 11 13 14 20 27 32 35 43 46 43
100 100 100 93 78 74 68 73 58 55 41 47 44 42 53 61 91 71 54 33 23 14 12 8 9 10 10 9 15 19 20 16 11 11 11 14 18 25 26 29 30 37 47 48
100 100 100 91 79 80 74 66 57 54 45 48 45 44 52 66 81 87 60 42 26 16 15 8 9 12 12 11 12 20 22 22 20 15 16 16 20 32 37 36 44 51 64 67
100 100 100 95 91 89 80 62 59 55 46 57 50 48 51 62 65 84 70 51 37 25 17 10 9 10 14 14 14 19 26 30 25 22 20 18 22 28 32 37 56 57 52 54
100 100 100 100 97 92 84 59 56 61 51 57 52 50 63 67 68 84 73 63 43 28 20 16 8 11 13 16 16 19 30 34 35 32 29 24 23 23 22 26 30 35 37 36
100 100 100 100 92 89 78 65 57 55 58 57 62 58 75 63 67 80 59 62 53 33 25 16 11 9 14 16 18 24 31 44 47 45 42 38 36 36 38 36 37 40 39 37
94 100 100 100 97 88 65 66 65 57 59 59 65 59 56 57 68 74 63 56 59 42 30 22 14 8 12 16 19 20 33 46 54 57 54 52 52 51 50 47 52 55 53 55
94 100 100 100 91 77 62 67 63 58 59 57 63 62 54 63 60 68 70 58 61 51 31 21 17 9 9 13 19 21 26 40 56 64 63 64 63 63 64 57 55 58 60 64
99 100 100 95 86 66 69 72 66 62 58 56 61 61 58 67 54 59 66 73 75 58 44 27 20 14 8 11 16 20 25 31 41 60 66 70 71 70 70 73 75 74 74 76
100 100 100 91 78 71 76 69 69 59 59 65 68 62 64 72 54 60 62 67 76 76 61 31 18 19 9 8 15 18 20 25 33 45 62 73 80 83 79 84 89 87 89 93
100 100 89 89 91 95 86 69 65 54 56 78 65 64 65 71 63 77 78 71 64 84 58 42 22 14 15 8 11 16 20 22 26 32 44 63 84 92 94 87 88 92 92 94
100 100 91 100 99 100 87 61 57 52 51 55 65 69 69 68 73 73 84 76 66 79 59 46 26 14 11 10 10 12 17 20 22 24 30 39 55 76 89 90 93 96 96 99
100 100 100 100 100 94 92 61 55 52 49 55 59 60 61 58 73 75 79 72 58 77 60 38 23 16 9 10 10 11 17 18 22 23 28 32 40 51 68 82 97 100 100 100
100 100 100 100 100 99 77 54 58 59 55 58 63 56 58 65 71 74 72 62 62 67 59 42 33 21 10 7 9 9 14 18 20 22 24 28 35 40 46 60 72 90 100 99
100 100 100 100 100 86 69 69 69 76 66 71 65 54 53 55 75 66 74 63 66 67 54 51 28 17 10 7 8 9 12 19 19 20 22 24 26 30 37 44 56 66 81 97
100 100 100 100 96 93 81 85 78 78 77 77 68 59 56 60 72 73 86 72 66 72 65 37 20 19 10 7 7 8 10 16 20 20 23 25 27 30 33 37 43 46 52 60
100 100 100 100 100 100 94 93 82 82 78 81 70 60 58 56 73 74 89 82 70 69 58 46 16 17 12 6 7 8 10 14 18 21 23 26 28 28 27 27 28 31 33 37
100 100 100 100 100 100 92 96 91 81 85 83 78 70 62 59 73 78 66 66 73 75 60 50 22 14 12 7 7 8 8 11 18 21 23 25 27 27 25 24 25 28 29 30
100 100 100 100 100 100 100 100 88 86 86 84 79 74 66 73 80 73 71 68 74 82 61 49 23 13 9 7 6 8 8 8 16 24 27 28 26 26 25 27 28 26 27 27
100 100 100 100 100 100 100 94 90 93 81 79 77 76 69 75 71 71 68 64 70 77 71 51 23 13 8 7 6 7 8 8 14 25 29 28 28 28 27 26 26 26 26 25
100 100 100 100 100 100 100 96 94 90 83 88 85 77 67 66 78 71 57 72 70 75 83 42 27 13 7 6 6 6 8 9 13 24 30 30 30 29 28 28 29 28 27 26

GFSNW_250_rhum_096.txt.gz
RH
100 100 100 100 98 94 92 79 74 81 69 50 34 33 32 36 44 30 9 6 6 7 8 5 5 5 7 6 4 3 2 3 3 4 5 5 11 12 11 12 13 18 23 26
100 100 100 100 95 100 95 76 78 80 68 48 38 33 30 36 48 37 14 8 8 9 8 5 5 5 6 7 5 4 3 4 4 5 6 8 14 16 14 14 14 19 22 23
100 100 100 100 100 100 94 81 91 80 64 47 41 31 29 36 58 68 24 12 10 9 8 6 6 6 8 8 7 5 4 4 5 6 7 14 20 19 17 16 16 20 22 23
100 100 100 100 100 100 88 89 90 73 62 51 42 33 30 42 52 86 42 14 13 10 13 7 6 6 7 10 10 6 4 4 5 7 10 18 20 18 18 19 20 21 25 26
100 100 100 100 100 100 90 90 80 65 59 52 41 35 32 43 56 81 74 23 17 14 12 11 6 7 7 11 12 9 6 5 5 7 11 18 21 22 21 19 18 23 25 27
100 100 98 100 100 95 86 91 79 66 61 48 43 34 33 41 54 67 80 51 16 17 15 10 11 7 8 10 13 12 9 6 6 8 10 15 20 22 22 26 24 23 26 28
100 97 100 100 100 94 91 80 73 73 63 54 45 34 33 42 56 58 85 88 35 15 16 16 10 8 8 9 13 16 12 7 7 8 10 12 16 19 22 23 20 25 28 31
100 96 100 100 100 100 92 78 84 83 63 53 46 36 37 41 52 52 64 96 71 20 22 17 15 10 7 10 10 16 17 13 8 8 11 14 14 19 22 24 26 28 28 29
100 96 100 100 100 98 82 75 89 85 61 54 48 40 38 47 56 52 67 85 77 42 22 23 21 15 9 8 11 16 20 20 15 10 10 13 18 20 22 26 27 26 27 32
94 100 100 100 94 98 79 78 87 83 60 59 49 44 41 48 50 52 58 81 76 65 26 24 26 18 14 9 10 11 20 30 26 21 14 13 15 21 25 26 32 32 33 37
97 100 100 100 100 94 82 84 79 77 57 64 52 47 48 53 47 56 61 67 79 78 55 29 31 24 16 11 10 12 12 26 37 35 26 21 20 18 18 26 32 35 36 38
100 100 100 100 100 91 90 76 76 69 63 68 54 55 52 54 64 58 55 63 66 90 75 42 27 24 20 15 11 13 13 14 25 37 48 44 32 27 24 27 30 32 31 31
100 100 100 100 97 94 88 82 85 64 61 69 60 65 63 64 71 61 52 54 65 84 80 65 34 34 23 19 12 11 15 16 20 32 44 47 47 49 45 38 37 38 39 40
100 100 100 100 100 99 87 87 82 58 60 66 61 66 69 70 71 75 56 59 61 71 96 81 51 32 26 21 14 11 15 17 20 28 38 44 46 49 50 51 48 43 48 48
100 100 100 100 100 100 94 91 67 58 64 67 60 59 76 82 82 90 68 62 64 68 82 97 60 43 33 24 19 10 12 17 19 20 34 43 54 63 59 62 65 69 63 58
100 100 100 100 100 100 95 88 65 65 68 74 60 62 79 93 90 93 84 63 66 67 78 95 73 56 32 24 23 14 10 15 20 23 28 36 48 64 76 76 71 70 73 78
100 100 100 96 100 100 99 92 87 78 77 86 64 61 77 93 93 83 79 65 67 64 71 93 70 57 31 23 20 14 9 11 18 21 23 31 36 54 76 81 85 88 87 87
100 100 100 99 100 100 100 100 100 81 79 74 68 62 76 92 86 89 74 61 69 67 71 93 80 62 43 20 19 17 10 9 12 20 22 25 30 38 55 81 92 96 98 96
100 100 100 100 100 94 96 100 100 81 76 79 61 71 74 84 92 85 80 60 62 66 68 84 80 71 48 27 19 14 11 9 10 15 22 24 27 34 41 58 86 94 99 97
100 100 100 100 87 84 99 100 96 82 83 70 61 76 66 70 90 82 78 76 69 72 66 71 76 76 57 29 19 14 12 8 9 12 17 22 25 26 31 38 51 65 77 88
100 100 100 99 91 100 100 99 100 87 96 74 67 77 67 71 83 85 68 72 63 69 59 66 71 74 55 34 20 16 12 8 8 10 15 20 23 24 25 28 35 41 52 63
100 100 100 92 99 100 100 100 100 97 98 79 78 80 59 75 81 78 75 71 66 73 58 69 80 79 58 50 28 21 13 8 8 9 10 17 23 26 26 26 28 32 39 44
100 94 100 100 100 100 100 100 100 92 96 82 82 84 64 85 79 76 75 81 73 70 61 62 78 83 58 51 41 18 12 8 7 8 10 12 20 25 27 28 28 28 27 26
98 100 100 100 100 100 100 100 100 89 91 91 85 80 74 90 89 80 73 74 75 80 62 69 68 72 77 62 39 21 12 8 7 7 8 10 16 23 27 27 27 27 27 27
100 100 100 100 100 100 100 98 91 98 98 94 91 73 78 96 90 81 80 76 81 76 56 73 71 73 73 62 33 25 12 8 6 6 8 9 12 20 24 27 29 28 27 28
100 100 100 100 100 100 100 100 100 100 99 97 88 71 82 98 86 83 89 79 81 72 65 69 70 78 82 71 37 21 10 7 6 6 7 8 10 15 22 25 29 29 30 29
100 100 100 100 100 100 100 100 100 100 100 100 93 92 100 93 86 88 88 76 67 63 64 75 69 90 85 65 39 15 8 7 6 5 6 7 9 12 18 23 26 28 30 29

GFSNW_250_rhum_099.txt.gz
RH
94 100 100 100 100 100 100 100 100 87 76 96 68 45 35 26 34 38 23 14 8 8 9 8 5 5 4 5 5 3 2 3 3 3 4 5 6 9 10 9 9 11 11 13
94 94 100 100 100 96 100 100 100 80 89 94 61 43 36 30 34 45 38 19 10 10 10 9 6 5 5 6 6 4 3 3 3 4 5 6 10 12 12 10 10 11 11 13
91 99 100 100 100 86 100 100 91 82 94 83 58 42 37 29 36 44 54 33 14 11 12 11 7 6 6 6 7 5 4 4 4 5 6 11 13 16 15 12 12 12 12 14
96 100 100 98 100 90 100 100 89 90 100 75 58 45 36 31 32 38 50 50 23 12 14 14 10 7 7 7 8 8 4 4 4 5 9 16 20 18 15 13 13 14 16 18
89 95 100 100 90 99 100 93 90 100 95 72 61 44 39 31 31 40 43 54 42 15 13 13 15 9 8 8 9 11 7 5 6 6 9 19 24 20 16 14 13 14 17 19
93 100 100 85 96 100 94 98 93 95 88 73 62 43 40 33 34 43 42 58 62 29 18 12 13 14 8 9 8 12 10 5 6 6 9 18 27 21 18 16 14 14 15 18
100 96 95 84 92 98 100 100 90 95 86 77 60 44 39 36 37 39 42 54 64 74 18 16 15 16 12 9 9 10 14 8 6 7 7 15 22 21 20 18 17 16 18 19
100 100 89 79 89 100 100 99 83 95 83 82 61 45 38 38 43 43 41 50 62 71 39 22 20 18 18 10 10 9 13 14 8 8 9 13 17 22 21 21 20 19 19 21
100 100 91 88 89 100 98 88 88 94 90 83 62 46 40 38 42 39 51 49 60 63 74 27 20 18 19 19 9 10 10 18 14 9 11 11 13 18 19 20 20 20 22 24
100 100 98 89 98 100 97 87 86 88 89 82 56 49 44 40 48 45 58 57 51 56 66 66 35 30 24 25 22 10 12 12 22 17 12 13 16 18 24 24 27 24 24 27
100 100 100 98 97 100 100 89 84 79 85 81 53 50 47 46 52 55 62 62 56 51 60 69 45 36 38 32 28 30 11 14 18 26 21 14 16 22 25 22 23 32 32 36
100 100 100 100 96 100 100 95 89 75 74 78 53 49 53 54 62 52 68 67 58 54 59 63 68 58 31 26 24 22 17 13 16 21 30 25 21 18 22 25 31 38 42 42
100 100 100 100 100 100 100 100 83 74 81 74 50 54 57 58 67 63 71 69 60 52 50 59 72 75 65 31 25 25 24 14 15 20 32 36 31 25 23 24 28 31 34 37
100 100 100 100 100 100 100 100 97 76 76 70 51 61 59 62 64 79 75 76 66 51 48 55 66 71 69 45 30 23 23 19 12 16 25 36 43 38 36 35 38 33 35 40
100 100 97 100 100 100 100 100 100 84 73 64 54 56 56 71 66 84 85 72 63 62 61 54 60 65 71 58 38 28 23 18 14 12 16 22 39 56 51 48 46 45 47 51
100 100 96 100 100 100 100 100 100 88 72 63 53 54 56 76 69 70 79 76 71 68 68 60 57 58 68 70 54 37 34 21 13 11 13 19 22 32 52 63 60 66 66 64
100 100 100 100 100 100 100 100 100 84 78 64 60 62 65 80 68 77 74 76 80 63 70 65 54 62 66 73 66 44 31 24 16 9 11 15 22 24 32 45 66 66 65 69
100 100 100 100 100 100 100 100 100 91 81 69 64 64 71 85 79 74 81 82 72 68 70 70 54 63 68 72 66 47 32 25 18 11 9 11 17 24 29 39 47 67 78 76
100 100 100 100 100 100 100 100 100 100 85 74 65 65 85 96 84 77 74 96 63 71 72 64 66 64 62 74 73 54 42 33 22 14 8 9 12 19 23 27 38 47 64 82
100 100 100 100 100 100 100 100 100 96 81 93 67 69 84 89 79 77 72 91 58 64 75 62 64 64 61 65 72 85 48 36 26 14 11 8 10 14 22 25 28 35 40 51
100 100 100 100 100 100 100 100 100 100 93 82 62 73 77 86 96 75 83 87 80 82 70 67 59 63 64 71 74 95 68 46 39 24 10 10 8 12 17 23 25 29 37 41
100 100 100 100 100 100 100 100 99 100 91 90 75 79 86 83 91 86 84 96 81 80 71 65 59 50 56 66 70 94 74 60 31 28 13 9 9 9 12 19 26 28 32 38
100 100 100 100 100 100 100 100 94 100 100 99 75 80 98 98 96 86 84 88 79 88 76 73 51 53 59 60 66 95 80 68 34 28 23 9 9 9 9 13 20 26 29 32
100 100 100 100 100 100 100 100 100 100 100 88 86 81 90 98 91 80 83 70 82 87 79 74 68 65 61 62 64 85 97 86 61 26 23 13 8 8 9 10 15 23 28 30
100 100 100 100 100 100 100 100 100 99 90 100 94 96 98 99 95 75 79 83 80 80 74 84 72 62 68 78 66 82 91 84 69 28 21 14 8 7 8 9 11 15 22 27
100 100 100 100 100 100 100 100 100 100 100 82 86 97 100 75 82 86 91 82 87 82 82 71 72 74 54 68 68 86 93 90 61 28 20 11 8 7 6 7 9 12 14 22
100 100 100 100 100 100 100 100 100 100 99 96 100 100 89 78 94 99 92 88 90 92 84 78 69 62 58 66 69 91 91 80 47 19 14 9 7 6 6 7 9 11 14 19

GFSNW_250_rhum_105.txt.gz
RH
100 95 91 72 68 60 64 86 90 94 86 78 91 89 84 55 37 32 22 22 23 14 10 5 7 8 5 4 4 4 2 2 2 2 2 3 3 4 8 9 8 8 10 12
96 98 91 61 67 58 78 95 91 92 83 88 94 90 80 48 37 31 25 30 27 18 10 8 8 8 7 4 4 5 3 2 2 2 3 4 4 6 10 11 9 8 9 9
100 100 76 73 67 61 84 96 83 87 86 86 100 90 72 47 37 30 27 33 42 29 16 12 7 9 8 6 5 6 5 3 3 3 3 4 6 6 10 12 10 8 8 9
100 100 65 75 65 74 82 79 88 89 90 96 98 77 71 48 36 30 28 37 47 43 31 18 12 11 7 8 5 6 7 5 4 4 4 4 7 7 10 13 13 12 14 15
100 91 81 68 69 83 78 80 84 92 91 100 88 73 71 53 37 28 32 42 53 56 41 26 16 14 11 8 7 6 8 8 5 5 5 4 6 10 11 13 18 15 13 13
100 90 79 66 79 80 71 78 86 96 97 100 92 72 73 54 41 27 37 34 53 58 56 42 31 19 15 11 9 8 7 11 8 8 8 6 7 9 13 16 18 17 15 14
100 100 80 69 93 68 79 79 99 100 100 99 89 74 76 55 45 26 33 34 48 57 62 62 51 28 21 18 13 10 8 8 12 9 8 9 8 9 10 13 17 18 18 16
94 100 81 73 89 78 84 85 100 100 98 99 86 81 78 59 48 30 28 36 45 49 61 66 74 47 42 26 17 13 12 9 12 13 11 9 9 11 12 13 17 20 19 18
100 98 81 86 76 86 87 95 100 100 98 100 82 86 78 59 49 38 26 34 40 47 54 62 72 74 52 46 36 18 14 13 10 14 16 12 12 12 15 15 19 20 22 20
100 99 83 87 76 82 96 100 100 98 94 91 75 82 74 59 50 41 29 28 38 46 49 58 64 68 67 67 52 41 26 14 14 11 14 18 16 14 14 19 23 23 22 23
100 93 91 87 78 86 96 100 100 100 97 93 74 79 71 62 54 43 36 27 34 44 49 48 60 66 72 79 58 61 62 38 25 15 13 15 22 20 17 19 19 25 27 26
100 95 99 89 78 88 98 100 100 100 98 95 74 73 76 66 58 47 42 35 32 43 47 52 53 66 70 74 78 72 66 58 65 45 17 13 15 24 25 22 20 21 24 28
100 90 98 94 83 84 94 100 100 100 98 85 74 73 70 67 61 52 46 41 34 41 46 51 56 55 68 70 73 71 78 67 78 64 52 16 12 12 18 24 28 22 24 30
93 92 87 89 86 84 94 99 100 100 96 87 81 75 70 67 67 61 51 47 43 40 41 48 56 60 67 70 79 70 75 74 66 71 60 33 23 12 11 16 23 32 24 28
100 86 84 90 88 90 100 98 100 100 91 83 79 78 72 68 78 73 59 51 50 47 48 55 57 56 60 73 80 79 67 76 80 71 70 62 56 22 11 11 17 23 35 26
100 91 77 86 88 100 100 98 100 100 90 80 74 70 74 82 74 78 70 57 61 55 49 63 59 65 62 72 87 80 72 61 80 81 71 66 64 36 20 11 11 16 24 37
100 92 75 83 100 100 100 95 94 91 92 77 69 68 72 78 74 78 82 66 60 61 56 58 61 68 69 64 78 86 79 67 74 82 68 69 56 70 37 23 10 10 15 26
100 87 74 92 100 100 92 89 89 100 94 87 69 67 67 75 70 84 96 75 62 60 58 65 76 75 77 73 73 76 87 79 72 77 71 77 70 51 49 27 19 10 10 14
98 84 76 96 97 91 91 90 100 100 100 95 80 74 77 83 72 96 98 93 66 62 66 70 81 68 68 70 75 76 90 82 85 70 70 81 78 80 54 46 21 15 9 10
97 84 83 100 97 100 100 100 100 98 100 99 90 80 85 96 91 85 100 95 77 66 70 77 77 70 65 72 66 65 89 77 83 75 70 66 70 66 66 60 34 18 14 9
93 91 93 100 100 100 100 100 100 96 100 100 98 92 91 100 99 83 96 97 75 70 75 77 69 71 62 71 68 67 81 85 83 95 68 67 77 73 71 65 54 21 14 12
99 100 100 100 100 100 100 100 99 94 100 100 100 100 98 99 93 88 94 90 79 76 79 78 71 68 58 75 63 62 82 90 95 79 78 64 73 78 67 51 54 24 14 12
100 100 100 100 100 100 100 100 100 100 100 100 100 100 99 90 98 98 99 98 88 78 74 73 70 63 58 66 66 65 83 82 92 95 83 66 72 86 74 52 44 29 10 10
100 100 100 100 100 100 100 100 100 100 100 100 100 100 100 100 100 100 99 99 97 87 85 74 73 65 63 70 63 74 93 86 84 98 89 73 84 86 77 87 42 23 8 8
100 100 100 100 100 100 100 100 100 100 100 100 100 100 100 100 100 100 100 96 82 85 75 68 72 70 65 66 68 85 87 86 94 83 90 76 71 89 78 65 33 18 7 6
100 100 100 100 100 100 100 100 100 100 100 100 100 100 100 100 100 100 100 89 81 89 80 73 72 65 71 71 69 84 87 75 94 85 78 72 79 77 57 60 25 12 6 6
100 100 100 100 100 100 100 100 100 100 100 100 100 100 100 100 100 100 99 83 84 84 76 64 61 65 72 78 82 83 85 75 72 82 77 68 75 79 44 40 15 8 5 5

GFSNW_250_rhum_108.txt.gz
RH
49 100 100 100 100 96 100 73 86 86 71 79 62 53 62 76 50 40 30 24 22 17 11 7 6 5 4 4 3 4 2 2 2 2 2 3 3 5 5 6 8 10 13 23
98 100 100 100 100 100 100 93 89 81 76 68 59 53 64 70 49 40 32 25 26 24 15 9 6 6 5 4 4 4 3 2 2 2 3 3 3 6 9 10 12 13 18 19
100 100 100 100 100 100 100 97 90 78 72 64 58 60 66 66 48 37 33 24 32 32 26 10 9 7 6 5 5 4 4 3 3 4 3 3 4 5 7 9 9 9 12 15
100 100 100 100 100 100 100 89 80 70 68 66 58 62 68 63 53 37 35 29 32 35 40 18 12 11 8 6 6 6 6 5 4 5 4 4 5 6 7 9 10 8 8 10
100 100 100 100 100 100 100 91 83 62 69 67 65 65 70 67 55 40 39 28 34 43 41 31 25 19 14 9 6 7 7 8 5 5 6 4 4 5 7 10 12 13 14 17
100 100 100 100 100 100 100 87 84 64 66 74 66 70 74 68 53 46 36 36 42 48 44 51 36 34 27 19 12 8 8 6 10 8 6 8 7 6 8 9 11 13 13 13
100 100 100 100 100 100 94 99 78 68 72 71 70 74 83 64 53 48 32 35 44 49 58 62 53 50 47 40 23 15 10 10 8 11 9 10 10 10 9 10 11 14 15 14
100 100 100 100 100 100 96 94 74 72 74 84 80 82 76 62 55 51 38 34 42 46 53 59 59 64 54 53 53 34 22 15 11 9 13 12 10 11 15 14 16 16 17 15
100 100 100 100 100 97 100 95 79 73 78 87 80 82 75 63 57 50 46 32 36 40 51 52 61 61 64 56 56 53 56 34 21 12 10 12 15 12 12 19 20 17 17 20
100 100 100 100 100 94 100 95 86 78 78 79 78 81 79 66 59 53 48 41 32 38 44 49 55 61 60 72 68 67 59 63 48 32 21 11 9 15 15 11 18 23 21 20
100 100 100 100 95 98 100 100 91 85 86 78 78 77 78 67 62 58 54 48 41 36 37 45 54 58 59 65 71 82 69 70 67 57 36 25 14 10 11 20 15 16 24 26
100 100 100 98 93 99 100 100 98 95 85 86 82 74 75 63 61 62 60 52 53 47 39 41 57 60 60 61 69 74 86 78 74 64 61 47 46 29 14 11 16 23 16 19
100 100 100 99 86 96 100 100 100 98 85 82 78 78 75 68 61 59 62 60 55 52 50 46 46 62 75 61 59 67 70 74 78 76 67 75 60 59 39 19 11 14 25 23
100 100 100 99 87 92 100 100 100 100 93 78 78 85 82 79 74 58 62 66 65 60 61 60 51 49 61 72 57 60 63 67 71 66 95 65 72 56 50 42 21 13 12 20
100 100 100 98 80 93 100 100 100 100 98 88 79 83 91 87 88 61 61 62 63 65 65 64 61 59 59 61 66 55 60 61 66 69 77 79 79 73 71 57 50 22 18 11
100 100 100 92 79 97 99 99 98 100 100 97 77 79 85 81 90 77 60 62 61 67 68 65 69 63 68 72 60 54 56 55 60 62 75 73 74 72 75 79 57 53 22 19
100 100 100 100 85 91 100 100 97 93 93 99 80 87 86 77 79 76 61 66 63 62 71 70 75 71 73 70 61 55 63 53 58 75 64 70 68 86 94 77 72 82 46 24
100 100 100 99 87 90 100 99 90 80 86 89 90 95 88 76 75 72 59 62 69 65 79 78 70 73 81 78 70 60 58 55 63 62 67 66 71 82 82 78 53 68 57 41
100 100 100 100 86 86 100 94 85 71 80 90 100 98 91 79 74 66 62 62 70 69 74 87 80 85 95 84 73 68 65 60 62 62 74 65 72 83 79 66 48 44 50 44
100 100 100 100 87 91 100 88 84 72 84 94 95 94 86 80 74 72 64 63 70 66 77 88 86 96 95 90 81 79 67 66 65 68 66 65 72 78 81 74 64 42 38 43
100 100 100 100 93 97 100 85 82 85 92 93 97 95 88 82 84 71 69 68 71 70 80 96 90 98 90 92 95 86 66 64 70 74 63 69 66 73 89 89 80 72 55 44
100 100 100 100 100 98 98 90 96 100 99 94 100 100 98 95 88 79 85 80 82 84 83 97 94 97 86 90 97 88 72 62 55 71 66 75 85 83 84 99 85 72 58 54
100 100 100 100 92 100 100 100 100 100 93 96 100 100 100 91 87 83 93 86 84 85 97 95 94 97 83 90 84 87 69 58 62 76 84 90 96 95 84 94 76 94 57 62
100 100 100 100 87 100 100 100 100 100 86 97 100 100 100 99 98 92 85 99 96 89 100 96 94 92 94 99 84 81 65 55 69 68 92 94 88 96 95 88 77 79 50 63
100 100 100 100 100 100 100 100 100 100 98 99 100 99 96 100 100 99 86 97 99 85 89 90 96 95 96 100 86 71 65 61 62 78 85 91 88 88 75 71 85 67 71 44
100 100 100 100 100 100 100 100 100 100 100 100 100 100 100 100 100 100 94 94 97 92 90 92 89 90 100 94 82 67 61 62 70 73 71 64 79 87 72 76 80 49 54 35
100 100 100 100 100 100 100 100 100 100 100 100 100 100 100 100 100 100 98 96 94 89 91 88 89 96 99 96 69 64 59 60 67 70 70 67 78 70 67 73 78 38 37 20

GFSNW_250_rhum_111.txt.gz
RH
9 17 31 100 100 100 100 100 100 100 100 100 93 80 59 68 51 46 32 30 27 22 13 10 7 4 4 4 4 3 2 2 2 2 2 3 5 6 7 6 6 11 22 30
14 44 59 100 100 100 100 100 100 100 100 97 89 64 62 67 52 48 36 36 27 26 20 12 8 8 5 4 4 4 3 2 2 2 3 3 4 6 8 7 8 13 26 33
45 84 100 100 100 100 100 100 100 100 100 97 70 56 64 69 53 49 41 33 29 25 29 16 10 9 8 5 4 4 4 3 3 3 4 3 4 6 9 10 9 9 21 37
100 100 100 100 100 100 100 100 100 100 100 76 56 62 69 61 49 49 43 34 28 27 40 25 14 10 10 9 6 5 6 4 3 4 4 4 4 4 7 12 13 12 14 26
100 100 100 100 100 100 100 100 100 100 89 65 57 67 73 55 52 50 41 36 28 30 45 35 25 18 13 13 13 8 6 7 5 4 5 6 6 7 7 12 14 13 13 16
100 100 100 100 100 100 100 100 100 98 72 60 64 78 73 57 53 51 38 37 35 38 48 53 39 30 27 20 17 13 12 8 9 8 6 6 7 8 8 12 15 13 14 12
100 100 100 100 100 100 100 100 100 93 70 60 75 90 67 59 53 52 45 36 36 38 47 56 56 48 39 36 26 20 14 13 10 8 11 8 7 8 11 12 14 15 15 15
100 100 100 100 100 100 100 100 100 94 67 68 90 84 65 62 56 54 50 44 38 38 40 50 55 61 57 51 38 37 37 27 21 18 12 11 12 8 9 12 14 16 18 18
100 100 100 100 100 100 100 100 100 95 67 74 94 77 68 64 59 58 50 54 47 41 39 42 54 53 60 62 64 42 43 50 44 32 24 20 12 12 12 9 10 13 16 17
98 100 100 100 100 100 100 100 100 88 74 81 92 81 71 65 62 62 52 54 54 54 48 43 43 49 52 56 59 62 52 50 57 54 40 34 31 26 14 14 15 11 14 17
100 100 100 100 100 100 100 100 96 88 72 89 88 86 73 64 63 60 56 53 56 56 59 58 48 44 49 52 56 59 60 63 55 53 59 66 47 36 29 22 11 14 16 14
100 100 100 100 100 100 100 100 99 86 78 90 88 87 78 62 59 60 60 56 56 59 62 64 60 58 49 53 58 59 55 66 75 69 62 53 65 54 45 37 30 20 12 17
100 100 100 100 100 100 100 100 96 90 84 92 91 89 84 69 59 59 66 59 55 60 64 67 61 66 67 55 57 53 56 59 63 74 80 82 84 76 76 57 46 53 39 24
100 100 100 100 100 100 100 100 92 98 92 98 95 91 90 75 66 57 59 64 60 59 65 61 66 68 71 62 62 58 54 55 60 58 69 81 78 75 77 91 86 76 57 37
100 100 100 100 100 100 100 100 98 100 100 98 100 92 88 84 75 65 58 62 63 64 62 64 70 73 75 75 71 63 57 56 53 60 62 69 79 69 92 74 77 71 76 68
100 100 100 99 100 100 100 100 100 100 100 96 100 97 90 87 85 72 61 58 61 65 62 69 69 74 80 83 84 75 62 63 52 62 62 64 77 85 68 85 98 75 56 74
98 100 100 100 90 93 100 100 100 100 100 100 100 100 100 95 88 78 68 62 56 61 64 68 65 73 77 83 83 88 80 70 63 56 57 64 66 91 66 66 64 74 74 75
100 100 100 100 97 86 100 100 100 100 100 100 100 100 100 100 100 89 72 64 59 59 62 71 61 64 72 84 84 97 90 85 72 60 58 57 66 73 74 61 61 92 76 65
100 100 95 100 100 90 97 100 99 100 100 98 100 100 100 100 100 99 80 70 66 60 66 68 62 65 71 82 95 99 99 100 79 67 64 60 71 63 68 65 69 80 89 82
100 100 93 97 100 87 92 100 100 100 96 97 97 98 100 99 95 91 83 72 66 60 72 70 66 65 67 80 87 90 97 100 89 77 65 59 71 63 69 73 89 97 89 75
100 100 99 96 100 97 95 100 100 96 98 99 100 97 98 96 92 87 75 72 63 59 67 73 65 63 71 81 79 83 85 100 97 92 68 62 58 64 67 70 78 84 85 86
100 100 100 100 100 100 82 100 100 100 96 100 100 100 100 94 96 94 86 78 71 63 68 83 64 63 72 78 86 90 96 96 100 90 71 67 62 66 63 62 70 79 95 76
100 100 100 100 100 99 77 100 100 100 100 100 100 100 96 90 98 99 100 91 82 71 68 77 73 67 76 89 93 100 96 96 97 84 67 67 64 64 58 66 77 79 86 76
100 100 100 100 100 87 88 100 100 100 100 100 100 100 96 93 95 93 99 100 90 77 74 79 77 71 77 91 100 98 100 93 95 95 68 66 54 63 58 64 73 75 88 87
97 97 100 100 100 100 98 100 100 100 100 100 100 100 100 97 96 87 85 91 88 77 82 75 73 73 78 100 100 100 100 100 100 91 66 58 58 57 54 64 71 79 86 73
88 98 100 100 100 100 99 100 100 100 100 100 100 100 100 99 94 82 75 78 87 82 78 73 76 79 100 100 100 100 100 94 98 79 61 62 62 51 50 62 68 74 78 80
82 100 100 100 100 100 100 100 100 100 100 100 100 100 100 94 85 78 72 80 89 90 77 80 80 97 92 100 100 100 100 96 74 67 67 55 48 49 52 61 69 84 75 77

GFSNW_250_rhum_114.txt.gz
RH
12 13 19 38 55 93 100 100 100 100 100 100 100 100 98 78 54 40 37 32 26 23 14 13 13 5 4 3 3 3 2 2 2 3 4 4 5 5 6 7 7 11 20 24
13 15 27 50 59 94 100 100 100 100 100 100 100 100 79 62 46 40 40 34 31 26 17 12 13 9 5 4 4 3 2 2 2 3 3 4 6 6 6 6 9 14 22 27
18 42 46 66 98 100 100 100 100 100 100 100 100 81 65 53 46 43 39 34 31 33 23 20 14 11 10 6 5 5 3 3 3 3 4 4 6 7 7 7 8 16 20 26
36 72 100 100 100 100 100 100 100 100 100 100 89 72 61 52 48 46 37 34 34 36 36 30 22 16 17 14 8 5 6 4 3 4 3 4 7 8 9 9 10 12 16 23
100 100 100 100 100 100 100 100 100 100 100 94 77 68 57 52 52 54 40 37 35 37 45 48 41 26 24 24 18 12 7 7 5 4 4 5 6 9 10 13 15 14 18 19
74 100 100 100 100 100 100 100 100 100 99 85 75 63 56 52 56 55 45 39 37 39 50 54 49 42 37 27 24 20 16 11 8 8 6 5 7 9 11 15 16 15 15 22
84 90 86 100 100 100 100 100 100 100 94 89 75 64 56 54 60 56 50 47 41 42 48 53 54 48 47 42 32 27 22 18 16 13 10 9 8 7 10 14 18 14 14 16
94 100 100 100 100 100 100 100 100 100 93 94 77 62 59 61 60 58 54 51 48 48 48 49 55 55 48 56 47 42 35 26 25 26 25 17 11 11 10 10 14 17 18 16
100 100 100 100 100 100 100 100 100 100 99 99 79 63 61 63 67 60 54 58 50 53 51 47 53 56 54 55 61 56 49 42 34 27 28 30 24 23 14 15 13 12 14 18
100 100 99 100 100 100 100 100 100 100 100 100 85 69 66 68 69 61 56 56 57 54 57 54 52 52 56 58 58 57 63 56 50 38 33 31 31 34 36 36 20 14 14 14
98 100 94 100 100 100 100 100 100 100 100 100 92 76 72 67 66 61 60 57 59 56 56 57 65 59 55 51 59 60 58 61 56 45 53 54 42 38 38 39 41 43 47 20
100 100 95 100 100 100 100 100 100 100 100 100 99 88 81 69 63 61 61 58 58 56 57 58 58 63 64 67 66 67 60 57 68 67 71 58 55 48 54 45 40 41 42 45
93 100 98 100 100 100 100 100 100 100 100 100 100 93 88 78 67 61 61 60 59 55 59 58 57 61 68 75 87 76 72 62 57 58 63 59 62 57 59 64 62 55 39 39
76 100 93 100 100 100 100 100 100 100 100 100 100 100 91 86 81 68 68 59 60 59 63 60 65 58 62 73 78 79 81 76 72 64 63 63 65 67 58 59 71 66 87 76
65 78 93 99 100 100 100 100 98 98 100 100 100 100 100 96 91 84 79 70 64 59 62 63 61 57 59 68 79 85 86 92 81 73 69 64 68 69 75 69 67 54 58 60
71 69 93 95 99 100 100 100 100 95 100 100 100 100 100 100 100 95 89 79 73 66 59 64 64 63 58 59 66 76 77 86 82 83 77 71 65 63 61 75 77 84 64 81
84 75 80 93 99 100 100 100 100 100 100 98 100 100 100 100 100 100 100 90 81 74 64 62 64 62 62 60 60 66 72 74 84 95 96 80 74 63 65 65 71 77 84 85
92 79 73 85 100 100 100 100 100 99 97 86 99 100 100 100 100 100 100 100 98 83 73 63 62 58 60 60 61 66 70 77 82 89 91 92 89 70 66 65 64 78 83 98
95 85 79 80 83 97 100 100 100 100 100 100 99 100 100 100 100 100 98 93 99 96 78 69 58 56 58 59 59 66 72 87 84 93 96 85 99 78 68 67 58 70 78 83
100 92 80 76 76 88 86 100 100 100 100 98 100 100 100 100 100 100 96 93 93 99 83 72 61 59 62 66 62 65 74 84 80 92 96 96 98 76 67 76 56 57 70 74
98 96 85 88 76 78 82 85 100 100 100 100 100 100 100 100 100 100 100 99 92 83 83 74 64 59 62 67 71 66 71 82 80 83 88 97 96 75 65 62 60 55 68 72
95 100 100 98 84 74 69 72 99 100 100 100 100 100 100 100 100 100 100 100 100 93 89 78 66 62 57 57 65 68 73 85 81 85 87 97 97 92 84 65 62 51 60 66
73 100 100 84 59 64 63 63 83 100 100 100 100 100 100 100 100 100 100 100 100 99 93 82 71 66 62 58 63 74 73 90 85 84 92 98 100 97 91 70 58 51 59 67
57 86 88 61 56 68 77 80 85 96 100 100 100 100 100 100 100 100 100 100 100 100 91 90 77 67 64 59 66 78 84 84 93 84 93 100 100 94 72 60 55 50 58 63
30 50 59 53 81 90 81 98 80 90 100 100 100 100 100 100 100 100 100 98 100 95 98 91 82 71 65 60 67 81 88 93 93 100 100 100 95 73 61 64 54 50 54 60
17 31 50 78 84 100 100 100 88 87 99 100 100 100 100 100 100 100 100 100 90 89 86 86 82 76 70 65 67 81 94 97 96 97 100 98 84 73 62 58 54 52 58 56
6 25 60 94 100 100 100 100 91 84 90 96 100 100 100 100 100 100 100 100 97 88 90 79 78 78 73 67 69 81 96 92 91 99 100 93 75 67 61 64 59 50 59 66

GFSNW_250_rhum_117.txt.gz
RH
16 19 24 51 99 93 100 100 100 100 100 100 100 100 100 85 48 37 31 28 20 16 12 16 10 4 3 3 3 2 2 2 2 3 5 5 4 4 4 6 11 10 28 30
54 47 54 85 99 100 100 100 100 100 100 100 100 100 86 54 40 38 38 31 25 18 14 15 14 8 5 4 4 3 2 2 2 4 5 5 6 6 5 7 10 8 31 49
36 49 55 83 100 100 100 100 100 100 100 100 100 95 61 42 41 44 39 34 30 26 22 17 17 16 9 6 5 4 3 3 3 3 4 6 8 8 8 7 10 14 20 23
54 74 88 96 100 100 100 100 100 100 100 100 100 73 50 42 45 45 42 36 36 37 34 25 19 18 20 14 9 6 5 4 4 4 4 6 9 12 11 10 10 14 29 30
70 91 100 100 100 100 100 100 100 100 100 100 93 62 49 45 47 51 44 39 40 46 52 46 30 19 21 24 19 12 7 6 5 5 6 6 7 10 12 14 12 14 24 41
75 93 99 100 100 100 100 100 100 100 100 100 84 58 51 50 50 50 51 42 45 46 59 54 45 30 25 26 22 19 15 12 9 8 7 8 8 9 10 9 11 15 25 38
73 87 100 100 100 99 100 100 100 100 100 100 79 60 54 53 53 54 55 49 46 48 55 59 60 47 36 37 33 30 26 23 19 18 12 10 10 12 13 14 14 12 15 26
69 95 100 100 100 100 100 100 100 100 100 100 82 62 55 54 56 54 59 55 53 56 55 55 60 64 60 52 47 42 35 30 31 30 26 24 16 13 13 14 19 19 18 16
45 90 100 100 100 100 100 100 100 100 100 100 92 66 57 56 57 54 58 57 55 57 60 58 57 64 64 58 63 52 47 41 41 37 44 32 29 31 33 22 18 16 23 26
44 78 98 100 100 100 100 100 100 100 100 100 95 73 60 60 58 54 56 57 57 57 58 59 63 53 59 68 63 66 65 64 54 48 43 44 40 39 34 40 38 41 31 17
69 58 86 100 100 100 100 100 100 100 100 100 100 81 69 61 60 56 54 56 58 53 55 61 57 62 67 68 55 69 70 71 68 68 63 59 49 47 44 38 34 36 46 49
80 61 81 96 100 100 100 100 100 100 100 100 100 94 80 69 62 60 56 55 58 56 55 57 56 59 58 61 63 68 72 70 63 63 71 72 64 67 52 50 51 45 35 34
95 73 72 88 100 100 100 100 100 100 100 100 100 100 89 83 66 66 58 56 57 61 58 59 55 58 56 57 56 66 72 71 70 66 63 62 65 66 68 64 57 62 49 46
82 90 70 93 96 100 99 100 100 100 100 100 100 100 100 92 80 76 72 62 60 60 61 58 58 58 60 57 55 58 70 76 67 74 73 67 64 58 64 66 61 68 66 64
42 96 70 90 92 100 96 100 100 100 100 100 100 100 100 100 92 86 88 88 82 74 66 61 59 57 60 56 59 64 63 68 67 71 77 85 72 67 59 62 66 68 73 72
16 66 84 71 98 100 100 92 100 100 100 100 100 100 100 100 100 99 100 99 96 91 84 72 64 57 53 54 56 61 64 66 66 70 74 84 86 80 76 74 71 66 68 66
12 26 86 82 86 100 94 100 98 100 100 100 100 100 100 100 100 100 100 100 100 98 94 88 79 68 56 52 54 58 62 65 65 64 64 82 86 90 90 83 88 90 68 64
16 14 40 88 83 96 100 90 100 100 100 100 100 100 100 99 100 100 100 100 100 98 96 90 87 78 66 58 56 59 59 64 64 64 66 67 84 92 85 92 74 81 65 71
15 16 18 50 88 87 94 98 95 99 100 100 100 100 100 99 100 100 100 100 100 99 96 96 94 86 78 64 60 57 56 61 66 64 63 64 78 86 99 92 91 68 70 58
12 19 13 18 61 84 80 87 98 91 90 100 100 100 100 100 100 100 100 100 99 100 100 95 92 86 76 75 64 62 57 58 68 64 63 64 70 71 76 95 96 79 74 64
9 13 17 16 50 65 85 72 83 97 98 100 100 98 97 100 100 100 100 99 100 100 100 100 90 93 82 79 74 70 70 60 67 75 66 70 80 75 88 98 89 71 60 69
8 10 15 23 46 53 63 85 69 91 93 99 98 97 96 100 100 100 100 100 100 100 100 95 94 87 84 84 82 79 76 66 66 77 73 67 72 76 85 93 94 67 49 54
7 8 10 14 15 15 33 76 91 85 99 100 100 100 100 100 98 100 100 100 100 100 100 98 94 86 87 88 82 80 81 72 66 78 78 71 63 73 90 89 84 55 51 55
5 6 7 7 3 6 35 79 90 98 100 100 100 100 100 99 100 100 100 100 100 100 95 91 95 90 94 95 85 80 80 76 65 69 76 72 63 73 80 79 74 58 53 61
5 5 5 3 4 16 34 90 100 97 99 93 97 100 100 100 97 100 100 100 100 100 100 100 88 88 92 92 88 82 79 74 64 61 68 68 61 64 71 68 62 56 63 63
4 4 4 6 8 20 41 100 100 100 90 79 87 100 100 100 100 100 100 100 100 100 100 100 98 97 100 97 99 96 87 80 64 60 65 64 57 58 68 65 59 67 64 60
4 4 6 6 10 28 65 100 100 100 84 84 90 91 100 100 100 100 100 100 100 100 100 100 94 94 86 87 100 99 90 86 68 60 61 58 59 68 64 64 65 57 49 55

GFSNW_250_rhum_120.txt.gz
RH
56 74 100 82 71 95 97 100 100 100 100 99 100 100 66 42 35 30 21 20 18 16 15 9 4 2 3 3 2 2 2 2 4 4 5 4 4 4 7 7 8 9 6 7
59 81 66 87 100 100 100 100 100 100 97 100 91 62 45 39 38 28 27 24 19 17 18 14 8 4 3 3 3 2 2 3 4 6 6 6 6 6 6 7 10 14 15 6
45 77 87 96 100 100 100 100 100 100 100 99 64 49 45 42 38 33 36 29 23 23 23 18 13 8 5 4 4 3 3 4 5 5 7 9 8 7 8 10 7 11 23 28
43 98 86 96 98 100 100 100 100 100 100 77 56 50 48 44 42 40 42 34 29 30 31 24 23 13 10 8 6 4 4 4 6 8 6 6 8 8 8 10 12 11 9 16
58 80 84 98 100 100 100 100 100 100 94 74 57 51 51 48 47 46 45 41 38 44 40 34 26 20 19 13 11 9 7 6 6 7 8 10 8 7 8 11 16 13 10 12
74 76 86 84 100 100 100 100 100 100 90 77 60 54 52 52 51 50 50 47 44 50 48 42 40 28 27 25 22 20 14 12 10 7 8 9 11 11 11 10 12 17 16 11
92 94 66 100 100 100 100 100 100 100 93 80 65 56 53 54 53 53 55 51 48 51 52 55 46 44 39 40 32 36 27 23 18 18 13 9 10 10 11 12 13 19 19 23
100 99 78 92 100 100 100 100 100 100 99 92 76 61 56 55 52 52 54 51 53 53 49 54 56 64 56 53 50 46 44 38 37 29 27 21 17 12 10 11 11 14 22 31
73 100 87 79 100 96 100 100 100 100 100 100 93 74 59 56 55 53 51 52 54 55 50 51 49 56 66 60 70 58 51 44 42 39 41 40 34 29 25 20 13 11 14 17
29 91 100 81 94 94 100 100 100 100 100 100 100 94 71 60 56 54 52 49 53 54 56 54 56 52 52 54 56 59 65 64 54 48 43 44 47 48 45 50 43 28 18 15
30 38 88 98 93 82 90 100 100 100 100 100 100 100 90 71 60 55 54 52 56 58 54 56 55 51 52 50 50 48 56 58 63 66 60 58 51 50 51 52 50 56 58 52
31 27 55 100 100 90 91 91 100 100 100 100 100 100 100 91 70 61 56 54 58 59 62 60 57 55 58 51 54 51 49 50 52 55 54 58 67 70 61 60 57 63 54 57
28 28 26 71 95 100 90 97 95 100 100 100 100 100 100 100 92 69 62 58 56 62 62 60 58 56 58 55 58 51 51 52 52 54 56 65 69 61 58 61 68 62 63 58
37 24 24 40 77 97 100 100 89 100 100 100 100 100 100 100 100 95 78 73 73 72 72 66 61 57 53 53 60 54 55 53 50 51 48 56 65 66 64 56 55 59 57 63
24 22 26 26 47 83 100 97 100 83 100 100 100 100 100 100 100 100 98 95 88 83 85 81 73 71 59 54 56 55 58 55 52 53 54 50 51 55 53 69 73 62 64 56
16 26 19 27 30 86 96 100 99 100 76 93 100 100 100 100 100 100 100 100 98 89 78 84 89 81 76 68 61 56 56 57 56 57 52 53 54 49 56 62 65 64 51 52
12 19 13 23 25 58 94 100 100 94 98 79 91 100 99 93 97 100 100 100 100 96 87 80 83 88 90 84 78 68 58 56 58 60 60 61 58 57 56 58 62 89 71 59
9 12 10 19 24 33 81 98 95 98 95 96 80 92 100 94 85 98 100 100 100 100 93 83 86 91 94 92 86 85 75 67 65 62 62 66 65 59 55 59 60 68 89 65
9 9 8 13 21 29 50 79 99 96 91 89 98 90 88 98 100 100 100 100 100 100 97 87 89 100 97 96 90 90 88 84 79 70 64 63 69 63 61 57 57 60 72 62
9 8 7 11 20 30 34 51 78 92 87 74 100 100 100 93 95 100 100 100 100 100 97 95 94 94 83 92 95 87 93 94 91 84 74 66 63 62 58 58 56 56 66 70
9 7 6 9 15 16 22 29 41 80 92 92 97 100 100 93 92 100 100 100 100 100 100 100 93 97 85 86 88 87 93 96 95 89 83 71 63 69 57 54 58 51 54 57
7 6 5 6 8 9 9 12 22 48 89 98 100 100 100 95 99 100 100 100 100 100 98 100 91 94 84 90 92 92 95 100 98 88 80 71 60 65 54 50 53 49 54 58
6 5 4 5 6 5 6 11 22 46 89 100 100 100 100 100 91 98 100 88 96 100 100 99 90 95 84 90 95 98 99 100 97 87 80 74 61 61 55 49 50 50 55 53
5 5 4 4 5 7 15 18 41 68 99 100 100 100 100 100 92 93 87 90 93 100 100 100 96 97 89 88 84 87 88 85 93 98 96 84 70 68 63 53 50 48 49 50
4 4 4 4 5 9 16 19 26 59 98 100 100 100 100 100 82 82 77 91 93 100 100 100 100 100 97 94 84 79 79 76 79 90 100 98 76 62 63 56 49 46 50 54
4 4 5 6 6 9 16 24 20 34 93 100 100 100 100 99 72 70 88 94 100 100 100 100 100 100 100 99 88 99 88 78 65 78 96 95 71 61 61 54 54 47 53 46
4 4 5 6 6 9 12 17 21 27 69 100 100 100 90 99 82 70 89 100 100 100 100 100 100 100 100 100 100 100 95 80 66 71 94 94 77 60 60 58 58 51 50 47

GFSNW_250_rhum_123.txt.gz
RH
84 83 83 77 88 92 100 100 100 100 93 74 43 40 36 34 30 24 21 19 16 12 7 4 3 3 2 2 2 3 4 5 5 6 5 4 5 6 7 6 6 5 6 6
83 82 83 88 98 100 100 100 100 88 58 46 44 44 42 41 34 30 24 21 20 16 11 7 4 4 3 3 3 5 6 6 5 5 6 5 6 7 8 6 6 8 12 9
94 98 88 98 100 100 100 100 92 66 51 50 50 51 51 47 41 35 29 26 23 20 16 12 8 5 4 4 5 5 6 7 7 6 7 6 7 8 7 6 8 11 17 17
66 98 100 100 99 100 100 100 89 66 57 54 56 56 54 54 47 40 38 32 28 27 22 18 14 10 8 6 6 6 7 7 6 8 8 8 9 10 11 7 13 16 21 22
49 71 94 100 100 100 100 100 96 78 62 57 58 59 57 57 53 46 44 39 39 33 29 20 21 21 18 11 10 7 7 9 8 7 8 10 13 13 14 14 8 24 15 38
44 44 74 79 100 100 100 100 100 83 68 63 60 59 58 58 55 53 50 48 43 42 43 33 27 26 25 21 16 15 12 8 10 11 9 9 11 11 15 15 17 16 28 37
51 54 45 77 66 100 100 100 100 97 75 72 67 63 60 58 55 53 53 51 49 45 43 42 38 32 30 27 24 22 20 19 17 12 12 11 11 11 11 15 21 20 23 42
46 50 53 65 79 64 99 100 100 100 88 79 76 70 64 60 55 52 49 51 52 49 45 45 44 52 44 39 31 25 25 25 23 20 23 15 11 10 11 11 14 26 24 29
75 22 38 40 64 80 67 96 100 100 100 87 83 81 73 65 60 54 51 52 52 55 52 51 46 47 53 54 47 41 35 30 32 25 23 19 20 14 11 12 12 16 31 39
99 24 22 43 55 73 83 75 82 100 100 100 90 86 89 80 69 60 54 53 57 58 55 53 49 48 51 48 49 50 49 37 35 35 34 34 27 23 25 20 14 14 19 31
100 92 17 23 46 55 85 89 78 78 100 100 100 86 90 92 87 73 62 56 55 59 57 56 53 51 51 50 48 49 51 50 53 49 46 46 36 34 38 33 23 21 20 18
100 100 62 14 29 36 57 93 90 78 76 100 100 100 86 94 98 88 76 63 58 58 60 58 56 54 51 55 54 50 46 49 49 47 53 54 56 49 46 42 40 40 35 31
100 100 100 40 22 28 42 67 96 93 74 72 100 100 100 88 90 98 90 81 74 74 70 64 62 57 55 54 54 57 52 50 52 50 49 48 49 56 55 53 49 44 45 45
96 81 90 99 14 27 24 49 73 98 96 79 67 99 100 100 94 85 97 100 97 100 96 85 78 77 71 64 58 53 58 60 57 54 46 49 50 44 47 50 55 58 61 59
92 92 83 100 18 15 25 23 56 82 100 98 93 70 96 100 100 87 84 89 99 100 100 98 90 87 87 80 74 67 58 57 59 57 57 53 49 47 46 46 40 43 46 47
100 98 100 95 68 11 23 22 38 62 96 97 98 89 77 83 100 100 86 88 95 98 96 100 100 89 90 95 93 85 78 71 67 64 63 62 56 51 49 49 47 43 40 40
77 91 93 90 80 10 15 25 20 48 72 98 100 93 80 80 81 100 100 82 86 98 99 93 92 91 89 89 97 98 92 86 87 80 70 66 62 60 55 55 57 54 48 45
84 100 70 76 65 10 10 14 20 22 54 81 93 100 95 85 78 83 98 89 74 96 97 96 93 87 92 89 91 99 99 97 99 95 87 76 71 66 60 54 48 45 51 49
98 56 38 43 37 9 8 11 11 17 22 52 96 100 100 96 86 77 74 74 81 96 99 99 96 89 90 93 86 83 95 100 100 90 94 87 82 76 66 58 55 48 48 49
75 34 19 24 20 7 7 10 9 12 15 37 87 100 100 100 97 83 75 75 80 91 99 100 97 92 87 94 91 85 87 98 100 97 100 94 86 76 65 57 56 51 46 49
44 16 13 12 8 6 6 8 10 9 16 30 86 100 100 100 100 97 86 82 80 86 84 99 96 90 95 89 90 85 86 96 100 100 100 100 88 78 74 66 60 55 52 52
21 10 10 7 6 6 6 8 10 11 16 32 96 100 100 100 100 100 94 93 84 82 90 92 99 96 99 86 87 89 85 90 92 92 94 100 100 87 80 70 59 58 55 53
11 9 6 6 6 7 8 9 10 10 20 36 97 100 100 100 100 100 100 89 76 87 91 98 100 78 100 88 86 86 95 92 85 80 73 79 89 94 85 74 62 55 52 54
9 6 5 6 8 7 8 8 9 8 12 30 40 70 87 100 100 100 98 87 82 89 96 100 100 85 100 97 85 88 95 96 88 74 73 68 69 72 82 76 61 58 56 58
5 5 5 7 8 6 7 8 8 9 13 24 36 56 61 94 100 96 98 86 75 89 100 100 100 90 100 100 97 100 98 96 94 90 79 64 63 61 61 68 73 62 56 57
4 5 6 7 7 6 6 7 8 9 10 16 28 50 53 65 90 96 95 98 92 100 100 100 100 100 98 100 100 100 100 100 100 100 97 84 71 60 57 58 68 69 58 55
4 5 6 7 7 6 6 6 8 10 10 11 17 33 57 62 68 90 97 100 99 93 100 100 100 100 100 100 99 100 100 100 100 100 100 97 96 74 62 61 62 65 62 58

GFSNW_250_rhum_126.txt.gz
RH
100 100 100 99 96 96 73 52 46 45 47 47 48 46 41 35 31 26 25 21 17 11 6 5 4 3 3 3 4 5 5 5 6 6 6 5 4 5 5 5 6 6 6 5
56 79 100 100 100 100 90 63 54 51 52 52 54 51 48 45 40 33 29 28 24 19 12 7 5 4 5 5 5 6 6 6 6 6 6 5 5 5 6 5 7 8 9 6
28 48 63 83 97 100 100 95 71 55 54 54 55 55 51 50 48 40 34 33 27 26 20 16 10 6 6 6 7 7 6 6 6 7 7 5 6 8 7 6 10 11 11 10
87 36 44 61 76 97 100 100 93 81 56 56 57 56 57 52 51 48 42 39 32 31 28 22 19 13 8 6 8 8 8 8 7 7 8 7 7 9 8 8 18 43 21 22
100 96 87 36 55 66 80 100 100 100 90 59 59 58 55 55 51 50 51 48 43 35 31 30 25 22 20 13 8 7 9 9 10 9 9 9 11 10 8 7 18 33 32 30
100 100 100 95 41 48 68 58 98 100 100 95 69 62 61 55 51 50 53 53 50 43 40 35 32 30 26 24 21 16 9 8 9 10 11 12 14 18 11 22 17 28 35 86
100 100 100 100 99 47 61 63 57 91 100 100 100 80 65 64 55 52 52 54 51 49 46 43 38 32 32 31 32 28 22 15 11 12 12 14 18 17 18 22 46 32 32 61
100 100 99 97 100 100 44 70 64 57 97 95 99 100 88 68 66 57 54 55 53 52 51 49 46 46 35 34 34 28 28 27 23 18 15 16 15 20 20 17 38 46 29 50
100 100 100 95 98 100 100 44 79 65 57 84 97 94 100 96 78 68 60 55 57 54 53 52 53 50 47 44 40 33 28 25 28 26 30 16 18 23 24 21 23 41 49 51
95 100 100 100 95 96 100 97 37 85 66 67 73 100 81 100 100 88 72 64 57 56 56 54 51 52 54 48 47 45 45 37 30 24 24 31 22 19 27 24 21 35 82 66
98 98 100 100 100 97 63 84 35 42 97 66 71 64 99 74 98 100 96 77 67 63 61 62 57 53 51 53 53 49 45 47 43 38 31 27 28 35 38 42 36 29 64 89
100 100 100 88 74 97 49 47 38 23 54 95 72 77 80 95 75 95 100 99 87 86 85 75 73 72 63 56 53 58 55 48 51 47 45 36 29 29 29 35 43 58 62 65
98 100 100 100 72 47 29 31 32 14 25 70 94 75 78 78 90 91 96 99 100 95 100 92 85 89 80 73 68 59 60 60 55 48 49 50 44 38 31 34 35 30 25 31
100 98 99 93 67 53 20 18 27 11 17 27 80 95 77 81 79 76 92 90 91 100 95 100 95 88 87 89 86 80 70 65 65 64 55 52 51 51 43 38 36 33 32 31
99 100 96 81 75 47 18 14 19 14 11 28 30 92 94 79 87 79 68 91 86 86 90 96 100 89 86 86 88 94 87 80 76 71 66 64 61 52 43 45 46 45 43 41
100 100 92 85 72 32 25 13 12 14 10 19 28 39 100 94 88 96 77 82 96 89 84 85 96 100 90 89 89 92 95 90 92 84 81 73 70 64 59 52 48 44 43 43
98 88 89 79 83 29 23 14 10 12 12 10 26 31 49 100 96 92 98 74 94 100 92 78 82 92 96 82 88 99 96 93 90 92 87 88 82 75 67 63 60 59 54 51
100 89 94 82 68 30 18 15 9 10 10 10 15 34 37 72 100 96 96 95 73 100 97 98 78 87 88 76 75 90 99 98 94 91 80 82 80 77 75 64 56 54 49 48
100 96 95 70 62 18 17 15 9 9 10 9 11 24 35 44 89 100 96 97 94 84 90 73 78 93 93 89 77 76 89 93 91 96 91 89 86 78 75 70 67 62 54 49
90 79 96 74 65 14 16 17 9 7 10 9 10 13 27 36 66 98 99 88 89 100 90 66 74 92 97 92 94 84 88 89 90 87 95 95 90 81 81 75 72 68 60 52
86 97 95 76 58 16 17 14 8 6 8 8 8 10 14 26 38 90 96 97 89 100 100 73 83 90 89 99 95 89 86 88 82 80 79 86 90 88 88 80 70 68 65 62
87 96 100 71 63 18 15 14 8 7 6 8 7 8 7 7 15 50 89 86 85 96 100 83 100 99 84 100 76 85 83 81 80 76 74 77 77 75 72 71 77 77 75 67
96 96 97 78 58 18 12 13 9 8 6 6 7 7 7 8 7 15 48 77 80 80 97 91 100 100 91 100 94 86 94 92 87 86 82 81 81 81 71 69 61 58 58 60
98 96 96 80 40 12 12 12 8 7 6 5 6 7 7 6 8 8 21 41 66 74 91 100 100 100 100 100 100 93 89 96 96 90 86 99 100 91 83 77 73 61 57 56
96 96 90 71 30 12 13 9 7 6 5 5 5 7 7 6 6 8 11 30 60 68 98 100 100 100 100 97 100 100 90 90 97 100 98 100 100 100 100 95 90 82 70 61
87 90 63 38 12 11 11 8 6 5 4 5 5 6 7 6 6 7 10 22 81 94 81 98 100 100 100 100 100 100 100 94 100 100 100 100 100 100 100 100 97 93 93 80
70 60 40 13 10 11 9 7 6 5 5 4 4 5 7 5 5 6 11 40 100 86 65 77 100 100 100 100 100 96 98 100 100 100 100 100 100 100 100 100 100 100 99 87

GFSNW_250_rhum_129.txt.gz
RH
100 94 70 42 52 59 90 66 79 72 59 53 49 45 42 39 34 32 30 26 21 16 11 6 5 6 6 6 6 6 6 6 7 7 7 8 7 6 5 6 5 5 4 4
100 100 100 89 54 48 60 67 78 71 84 70 58 50 46 44 41 38 33 33 28 26 21 15 11 8 8 8 7 6 6 6 6 7 7 8 8 7 5 6 7 7 9 7
100 100 100 100 95 64 46 64 61 90 71 82 80 62 51 48 50 42 44 39 33 31 32 26 18 11 9 8 7 7 8 8 8 8 9 9 9 9 7 8 16 16 12 9
100 100 100 96 98 91 68 49 58 62 70 83 76 81 64 54 54 52 45 46 41 40 32 30 29 25 18 12 9 8 8 9 11 11 11 11 10 9 8 12 21 49 22 20
92 100 100 96 69 56 91 49 55 57 65 63 84 72 83 69 61 57 54 48 46 47 43 36 36 34 30 23 15 10 10 10 13 13 16 16 18 15 11 15 23 35 42 40
95 100 100 100 84 60 47 64 40 44 60 66 64 85 71 84 73 64 62 57 50 46 49 46 40 36 32 28 26 23 13 11 15 17 15 33 36 34 22 40 38 49 94 100
84 97 100 100 93 60 31 38 44 39 45 64 65 64 85 71 86 78 71 65 58 52 48 50 49 46 40 35 32 30 25 16 14 23 17 20 37 50 47 48 56 48 95 100
76 100 100 100 100 85 36 23 34 27 33 50 64 66 66 86 71 86 87 77 67 61 55 51 51 52 50 47 41 39 31 28 19 20 28 23 22 47 60 71 74 71 72 100
66 86 97 100 100 86 35 24 21 21 20 28 53 67 68 68 89 73 87 88 85 76 73 68 62 55 53 54 49 44 39 32 31 24 23 27 20 41 51 78 67 73 58 69
52 81 87 100 100 90 69 39 17 13 15 17 25 67 81 66 69 87 73 87 92 94 96 92 81 70 63 58 58 52 44 41 36 35 31 24 31 37 51 94 84 80 74 63
47 75 86 98 100 100 99 42 23 15 12 11 16 29 71 83 65 69 88 76 84 92 100 100 97 86 79 75 64 60 58 49 44 35 38 46 45 42 49 63 88 92 72 73
62 59 93 100 100 100 100 80 45 37 15 10 10 16 44 81 79 70 74 90 77 85 90 96 99 95 92 86 80 70 63 63 56 52 46 40 36 39 53 58 81 89 86 89
59 57 78 97 100 100 100 100 83 60 55 14 10 9 23 58 77 79 72 74 92 79 84 91 93 89 89 88 85 82 75 66 66 58 58 56 50 42 40 39 41 43 49 56
63 52 82 97 100 99 100 100 99 83 70 29 11 9 10 29 67 80 80 76 82 85 78 83 86 86 87 81 82 80 80 80 71 67 64 61 66 60 55 50 46 43 42 41
53 68 79 93 100 96 100 100 100 86 70 68 29 9 8 13 37 73 74 74 75 98 92 77 83 83 84 86 83 81 80 76 76 72 68 65 64 62 59 60 62 59 51 49
73 56 65 82 100 83 100 100 100 95 73 70 54 12 8 8 14 32 68 73 74 78 95 85 78 82 90 90 92 84 84 81 71 70 72 68 59 55 52 50 46 46 49 50
69 62 80 81 100 96 100 100 98 96 80 64 51 17 10 6 8 14 33 62 68 72 82 99 79 77 89 98 97 95 88 89 82 75 73 67 64 56 55 52 49 45 40 38
66 77 95 99 93 100 100 100 100 100 94 76 57 18 10 8 7 8 13 27 52 57 80 91 82 82 92 84 98 87 98 88 93 89 79 73 68 64 58 54 53 46 45 45
95 65 100 93 92 100 100 100 96 100 90 84 67 30 10 10 6 9 9 14 26 46 57 85 82 93 100 71 97 82 96 96 93 94 97 83 72 68 64 60 56 55 56 54
85 75 88 94 94 82 100 100 100 100 96 94 66 42 10 10 7 8 8 14 13 28 49 59 79 100 100 57 76 82 86 90 95 100 95 92 85 77 75 71 73 70 63 59
86 84 89 99 100 97 100 100 100 100 86 94 68 35 11 10 9 6 8 8 14 16 51 65 61 99 100 66 72 73 89 88 82 92 93 94 90 87 84 75 77 74 70 68
96 83 97 96 100 100 100 100 100 98 96 90 67 38 14 10 10 6 7 7 8 15 25 79 88 100 100 82 89 85 75 88 91 90 85 91 92 94 88 82 79 71 68 65
94 88 91 100 100 100 100 100 97 92 96 90 59 29 12 10 8 6 6 6 7 8 16 49 100 100 100 74 71 85 78 84 85 91 91 95 94 97 99 95 87 83 78 75
78 93 99 100 100 100 100 98 99 96 94 68 46 18 11 10 8 6 6 5 6 8 15 57 100 100 100 98 65 87 82 79 84 80 94 97 96 100 100 98 97 97 91 93
94 98 92 100 100 100 100 99 100 98 76 59 33 10 10 10 6 6 6 6 6 9 15 56 72 96 100 100 81 78 92 92 96 95 96 100 100 100 100 100 99 98 96 100
95 100 94 97 89 100 93 100 99 76 56 34 14 9 9 8 7 6 8 8 9 9 9 12 17 33 81 100 100 81 89 92 98 99 100 100 98 99 100 100 100 100 100 100
100 99 100 92 94 100 98 87 71 60 37 18 8 9 8 6 7 7 7 9 6 5 6 6 7 16 44 98 100 100 75 88 96 94 84 90 99 100 99 100 100 100 100 100